| time (UTC) | temp F | wind direction | speed MPH | gust MPH | rain 1hr in | rain 24hr in | rain mn in | humidity % | barometer mb |
| 20260906195329 | 77 | 78 | 6.0 | 11.0 | 0.00 | 0.00 | 0.00 | 64 | 1019.3 |
| 20260906195221 | 77 | 99 | 5.0 | 12.0 | 0.00 | 0.00 | 0.00 | 63 | 1019.3 |
| 20260906195132 | 77 | 69 | 6.0 | 12.0 | 0.00 | 0.00 | 0.00 | 63 | 1019.3 |
| 20260906195025 | 77 | 33 | 6.0 | 12.0 | 0.00 | 0.00 | 0.00 | 64 | 1019.4 |
| 20260906194935 | 77 | 44 | 6.0 | 12.0 | 0.00 | 0.00 | 0.00 | 63 | 1019.5 |
| 20260906194827 | 77 | 58 | 7.0 | 12.0 | 0.00 | 0.00 | 0.00 | 63 | 1019.4 |
| 20260906194723 | 77 | 71 | 8.0 | 12.0 | 0.00 | 0.00 | 0.00 | 63 | 1019.4 |
| 20260906194645 | 77 | 43 | 7.0 | 12.0 | 0.00 | 0.00 | 0.00 | 63 | 1019.4 |
| 20260906194537 | 77 | 79 | 7.0 | 12.0 | 0.00 | 0.00 | 0.00 | 63 | 1019.4 |
| 20260906194429 | 77 | 98 | 8.0 | 12.0 | 0.00 | 0.00 | 0.00 | 63 | 1019.4 |
| 20260906194322 | 77 | 74 | 6.0 | 11.0 | 0.00 | 0.00 | 0.00 | 63 | 1019.4 |
| 20260906194234 | 77 | 79 | 4.0 | 12.0 | 0.00 | 0.00 | 0.00 | 66 | 1019.5 |
| 20260906194127 | 77 | 53 | 4.0 | 12.0 | 0.00 | 0.00 | 0.00 | 65 | 1019.4 |
| 20260906194019 | 77 | 42 | 4.0 | 12.0 | 0.00 | 0.00 | 0.00 | 65 | 1019.4 |
| 20260906193932 | 77 | 81 | 5.0 | 12.0 | 0.00 | 0.00 | 0.00 | 63 | 1019.4 |
| 20260906193827 | 77 | 98 | 5.0 | 12.0 | 0.00 | 0.00 | 0.00 | 62 | 1019.4 |
| 20260906193740 | 77 | 81 | 6.0 | 12.0 | 0.00 | 0.00 | 0.00 | 63 | 1019.5 |
| 20260906193653 | 77 | 73 | 6.0 | 12.0 | 0.00 | 0.00 | 0.00 | 62 | 1019.5 |
| 20260906193544 | 77 | 49 | 8.0 | 12.0 | 0.00 | 0.00 | 0.00 | 62 | 1019.4 |
| 20260906193435 | 77 | 68 | 7.0 | 12.0 | 0.00 | 0.00 | 0.00 | 63 | 1019.4 |
| 20260906193347 | 77 | 85 | 7.0 | 12.0 | 0.00 | 0.00 | 0.00 | 63 | 1019.3 |
| 20260906193258 | 77 | 50 | 7.0 | 11.0 | 0.00 | 0.00 | 0.00 | 64 | 1019.3 |
| 20260906193218 | 77 | 5 | 7.0 | 11.0 | 0.00 | 0.00 | 0.00 | 64 | 1019.4 |
| 20260906193029 | 77 | 51 | 7.0 | 12.0 | 0.00 | 0.00 | 0.00 | 64 | 1019.3 |
| 20260906192923 | 77 | 26 | 7.0 | 12.0 | 0.00 | 0.00 | 0.00 | 64 | 1019.3 |
| 20260906192838 | 76 | 98 | 6.0 | 12.0 | 0.00 | 0.00 | 0.00 | 64 | 1019.3 |
| 20260906192750 | 76 | 89 | 5.0 | 12.0 | 0.00 | 0.00 | 0.00 | 64 | 1019.3 |
| 20260906192621 | 76 | 333 | 4.0 | 12.0 | 0.00 | 0.00 | 0.00 | 64 | 1019.2 |
| 20260906192532 | 76 | 15 | 5.0 | 12.0 | 0.00 | 0.00 | 0.00 | 63 | 1019.2 |
| 20260906192443 | 77 | 19 | 6.0 | 12.0 | 0.00 | 0.00 | 0.00 | 63 | 1019.3 |
| 20260906192356 | 77 | 16 | 8.0 | 12.0 | 0.00 | 0.00 | 0.00 | 64 | 1019.2 |
| 20260906192226 | 77 | 49 | 8.0 | 12.0 | 0.00 | 0.00 | 0.00 | 64 | 1019.2 |
| 20260906192138 | 76 | 36 | 6.0 | 12.0 | 0.00 | 0.00 | 0.00 | 66 | 1019.2 |
| 20260906192051 | 76 | 46 | 4.0 | 11.0 | 0.00 | 0.00 | 0.00 | 67 | 1019.3 |
| 20260906191921 | 76 | 109 | 5.0 | 11.0 | 0.00 | 0.00 | 0.00 | 65 | 1019.2 |
| 20260906191837 | 76 | 58 | 6.0 | 11.0 | 0.00 | 0.00 | 0.00 | 65 | 1019.2 |
| 20260906191739 | 76 | 96 | 7.0 | 11.0 | 0.00 | 0.00 | 0.00 | 65 | 1019.2 |
| 20260906191640 | 76 | 89 | 6.0 | 12.0 | 0.00 | 0.00 | 0.00 | 65 | 1019.2 |
| 20260906191531 | 76 | 58 | 6.0 | 12.0 | 0.00 | 0.00 | 0.00 | 65 | 1019.3 |
| 20260906191424 | 76 | 63 | 6.0 | 12.0 | 0.00 | 0.00 | 0.00 | 64 | 1019.4 |
| 20260906191336 | 76 | 74 | 7.0 | 12.0 | 0.00 | 0.00 | 0.00 | 65 | 1019.3 |
| 20260906191226 | 76 | 101 | 6.0 | 13.0 | 0.00 | 0.00 | 0.00 | 67 | 1019.4 |
| 20260906191137 | 76 | 67 | 6.0 | 13.0 | 0.00 | 0.00 | 0.00 | 67 | 1019.4 |
| 20260906191029 | 76 | 74 | 6.0 | 13.0 | 0.00 | 0.00 | 0.00 | 65 | 1019.4 |
| 20260906190925 | 76 | 92 | 7.0 | 13.0 | 0.00 | 0.00 | 0.00 | 65 | 1019.5 |
| 20260906190837 | 76 | 80 | 9.0 | 13.0 | 0.00 | 0.00 | 0.00 | 66 | 1019.4 |
| 20260906190750 | 76 | 98 | 8.0 | 13.0 | 0.00 | 0.00 | 0.00 | 66 | 1019.4 |
| 20260906190641 | 76 | 80 | 8.0 | 13.0 | 0.00 | 0.00 | 0.00 | 66 | 1019.5 |
| 20260906190532 | 76 | 80 | 8.0 | 13.0 | 0.00 | 0.00 | 0.00 | 65 | 1019.5 |
| 20260906190424 | 76 | 93 | 7.0 | 11.0 | 0.00 | 0.00 | 0.00 | 66 | 1019.5 |
| 20260906190335 | 76 | 63 | 6.0 | 11.0 | 0.00 | 0.00 | 0.00 | 68 | 1019.5 |
| 20260906190226 | 75 | 71 | 7.0 | 11.0 | 0.00 | 0.00 | 0.00 | 66 | 1019.5 |
| 20260906190148 | 75 | 111 | 7.0 | 11.0 | 0.00 | 0.00 | 0.00 | 66 | 1019.5 |
| 20260906190040 | 75 | 90 | 6.0 | 11.0 | 0.00 | 0.00 | 0.00 | 67 | 1019.6 |
| 20260906185956 | 75 | 67 | 8.0 | 11.0 | 0.00 | 0.00 | 0.00 | 65 | 1019.6 |
| 20260906185826 | 75 | 130 | 7.0 | 13.0 | 0.00 | 0.00 | 0.00 | 69 | 1019.5 |
| 20260906185738 | 75 | 113 | 6.0 | 13.0 | 0.00 | 0.00 | 0.00 | 68 | 1019.5 |
| 20260906185630 | 75 | 123 | 7.0 | 13.0 | 0.00 | 0.00 | 0.00 | 69 | 1019.6 |
| 20260906185522 | 75 | 116 | 6.0 | 13.0 | 0.00 | 0.00 | 0.00 | 66 | 1019.7 |
| 20260906185434 | 75 | 101 | 6.0 | 13.0 | 0.00 | 0.00 | 0.00 | 66 | 1019.7 |
| 20260906185326 | 75 | 85 | 7.0 | 13.0 | 0.00 | 0.00 | 0.00 | 65 | 1019.7 |
| 20260906185219 | 75 | 81 | 8.0 | 13.0 | 0.00 | 0.00 | 0.00 | 65 | 1019.7 |
| 20260906185133 | 75 | 90 | 8.0 | 13.0 | 0.00 | 0.00 | 0.00 | 66 | 1019.8 |
| 20260906185024 | 75 | 96 | 8.0 | 13.0 | 0.00 | 0.00 | 0.00 | 66 | 1019.7 |
| 20260906184937 | 75 | 67 | 8.0 | 13.0 | 0.00 | 0.00 | 0.00 | 67 | 1019.7 |
| 20260906184830 | 75 | 46 | 6.0 | 13.0 | 0.00 | 0.00 | 0.00 | 67 | 1019.6 |
| 20260906184721 | 75 | 75 | 4.0 | 11.0 | 0.00 | 0.00 | 0.00 | 67 | 1019.7 |
| 20260906184644 | 75 | 24 | 5.0 | 11.0 | 0.00 | 0.00 | 0.00 | 67 | 1019.7 |
| 20260906184535 | 75 | 42 | 7.0 | 13.0 | 0.00 | 0.00 | 0.00 | 68 | 1019.6 |
| 20260906184446 | 75 | 100 | 7.0 | 13.0 | 0.00 | 0.00 | 0.00 | 67 | 1019.7 |
| 20260906184337 | 75 | 115 | 6.0 | 13.0 | 0.00 | 0.00 | 0.00 | 67 | 1019.7 |
| 20260906184233 | 75 | 98 | 6.0 | 13.0 | 0.00 | 0.00 | 0.00 | 68 | 1019.7 |
| 20260906184123 | 75 | 107 | 6.0 | 13.0 | 0.00 | 0.00 | 0.00 | 68 | 1019.8 |
| 20260906184035 | 75 | 71 | 5.0 | 13.0 | 0.00 | 0.00 | 0.00 | 69 | 1019.7 |
| 20260906183946 | 75 | 114 | 4.0 | 13.0 | 0.00 | 0.00 | 0.00 | 68 | 1019.7 |
| 20260906183835 | 75 | 113 | 6.0 | 13.0 | 0.00 | 0.00 | 0.00 | 67 | 1019.8 |
| 20260906183727 | 75 | 112 | 7.0 | 13.0 | 0.00 | 0.00 | 0.00 | 68 | 1019.8 |
| 20260906183619 | 75 | 113 | 7.0 | 11.0 | 0.00 | 0.00 | 0.00 | 67 | 1019.8 |
| 20260906183531 | 75 | 108 | 7.0 | 12.0 | 0.00 | 0.00 | 0.00 | 68 | 1019.8 |
| 20260906183423 | 75 | 104 | 7.0 | 12.0 | 0.00 | 0.00 | 0.00 | 67 | 1019.7 |
| 20260906183339 | 75 | 111 | 8.0 | 12.0 | 0.00 | 0.00 | 0.00 | 66 | 1019.7 |
| 20260906183239 | 75 | 103 | 7.0 | 12.0 | 0.00 | 0.00 | 0.00 | 66 | 1019.7 |
| 20260906183141 | 75 | 92 | 7.0 | 12.0 | 0.00 | 0.00 | 0.00 | 66 | 1019.7 |
| 20260906183032 | 75 | 117 | 6.0 | 12.0 | 0.00 | 0.00 | 0.00 | 66 | 1019.8 |
| 20260906182944 | 75 | 91 | 5.0 | 12.0 | 0.00 | 0.00 | 0.00 | 66 | 1019.8 |
| 20260906182857 | 75 | 44 | 7.0 | 12.0 | 0.00 | 0.00 | 0.00 | 68 | 1019.8 |
| 20260906182748 | 75 | 103 | 5.0 | 12.0 | 0.00 | 0.00 | 0.00 | 67 | 1019.8 |
| 20260906182639 | 75 | 63 | 5.0 | 11.0 | 0.00 | 0.00 | 0.00 | 67 | 1019.7 |
| 20260906182530 | 75 | 76 | 8.0 | 11.0 | 0.00 | 0.00 | 0.00 | 67 | 1019.8 |
| 20260906182423 | 75 | 119 | 6.0 | 11.0 | 0.00 | 0.00 | 0.00 | 68 | 1019.8 |
| 20260906182339 | 75 | 105 | 5.0 | 11.0 | 0.00 | 0.00 | 0.00 | 68 | 1019.8 |
| 20260906182252 | 75 | 61 | 6.0 | 13.0 | 0.00 | 0.00 | 0.00 | 68 | 1019.8 |
| 20260906182204 | 75 | 40 | 6.0 | 13.0 | 0.00 | 0.00 | 0.00 | 68 | 1019.8 |
| 20260906182034 | 75 | 131 | 3.0 | 13.0 | 0.00 | 0.00 | 0.00 | 68 | 1019.7 |
| 20260906181927 | 74 | 90 | 4.0 | 13.0 | 0.00 | 0.00 | 0.00 | 67 | 1019.8 |
| 20260906181820 | 74 | 74 | 5.0 | 14.0 | 0.00 | 0.00 | 0.00 | 69 | 1019.8 |
| 20260906181732 | 74 | 88 | 6.0 | 14.0 | 0.00 | 0.00 | 0.00 | 68 | 1019.8 |
| 20260906181655 | 74 | 84 | 7.0 | 14.0 | 0.00 | 0.00 | 0.00 | 68 | 1019.8 |
| 20260906181526 | 74 | 132 | 10.0 | 14.0 | 0.00 | 0.00 | 0.00 | 66 | 1019.7 |
| 20260906181421 | 74 | 120 | 9.0 | 14.0 | 0.00 | 0.00 | 0.00 | 67 | 1019.8 |
| 20260906181333 | 74 | 129 | 8.0 | 14.0 | 0.00 | 0.00 | 0.00 | 68 | 1019.8 |
| 20260906181225 | 74 | 109 | 8.0 | 14.0 | 0.00 | 0.00 | 0.00 | 68 | 1019.7 |
| 20260906181136 | 74 | 126 | 8.0 | 14.0 | 0.00 | 0.00 | 0.00 | 68 | 1019.7 |
| 20260906181028 | 74 | 125 | 10.0 | 14.0 | 0.00 | 0.00 | 0.00 | 68 | 1019.8 |
| 20260906180921 | 74 | 130 | 9.0 | 14.0 | 0.00 | 0.00 | 0.00 | 68 | 1019.8 |
| 20260906180833 | 74 | 119 | 6.0 | 11.0 | 0.00 | 0.00 | 0.00 | 68 | 1019.8 |
| 20260906180743 | 74 | 113 | 5.0 | 12.0 | 0.00 | 0.00 | 0.00 | 71 | 1019.8 |
| 20260906180655 | 74 | 115 | 5.0 | 12.0 | 0.00 | 0.00 | 0.00 | 71 | 1019.8 |
| 20260906180530 | 74 | 105 | 6.0 | 12.0 | 0.00 | 0.00 | 0.00 | 69 | 1019.9 |
| 20260906180442 | 74 | 70 | 7.0 | 12.0 | 0.00 | 0.00 | 0.00 | 68 | 1019.9 |
| 20260906180354 | 74 | 104 | 8.0 | 12.0 | 0.00 | 0.00 | 0.00 | 69 | 1019.9 |
| 20260906180243 | 74 | 88 | 8.0 | 12.0 | 0.00 | 0.00 | 0.00 | 68 | 1019.9 |
| 20260906180143 | 74 | 101 | 8.0 | 12.0 | 0.00 | 0.00 | 0.00 | 70 | 1020.0 |
| 20260906180034 | 74 | 101 | 9.0 | 12.0 | 0.00 | 0.00 | 0.00 | 69 | 1019.9 |
| 20260906175925 | 74 | 91 | 8.0 | 12.0 | 0.00 | 0.00 | 0.00 | 69 | 1020.0 |
| 20260906175838 | 74 | 87 | 8.0 | 11.0 | 0.00 | 0.00 | 0.00 | 68 | 1020.0 |
| 20260906175750 | 74 | 69 | 6.0 | 11.0 | 0.00 | 0.00 | 0.00 | 68 | 1019.9 |
| 20260906175640 | 74 | 93 | 4.0 | 11.0 | 0.00 | 0.00 | 0.00 | 69 | 1020.0 |
| 20260906175532 | 74 | 101 | 5.0 | 11.0 | 0.00 | 0.00 | 0.00 | 68 | 1020.0 |
| 20260906175428 | 74 | 66 | 5.0 | 11.0 | 0.00 | 0.00 | 0.00 | 70 | 1020.0 |
| 20260906175319 | 74 | 77 | 4.0 | 11.0 | 0.00 | 0.00 | 0.00 | 71 | 1020.0 |
| 20260906175231 | 74 | 77 | 5.0 | 11.0 | 0.00 | 0.00 | 0.00 | 69 | 1019.9 |
| 20260906175144 | 74 | 121 | 7.0 | 11.0 | 0.00 | 0.00 | 0.00 | 68 | 1020.0 |
| 20260906175054 | 74 | 119 | 8.0 | 11.0 | 0.00 | 0.00 | 0.00 | 67 | 1020.1 |
| 20260906174926 | 74 | 96 | 8.0 | 11.0 | 0.00 | 0.00 | 0.00 | 70 | 1020.1 |
| 20260906174838 | 74 | 88 | 5.0 | 11.0 | 0.00 | 0.00 | 0.00 | 70 | 1020.1 |
| 20260906174730 | 74 | 59 | 4.0 | 13.0 | 0.00 | 0.00 | 0.00 | 71 | 1020.1 |
| 20260906174650 | 74 | 76 | 5.0 | 13.0 | 0.00 | 0.00 | 0.00 | 71 | 1020.1 |
| 20260906174541 | 74 | 113 | 5.0 | 13.0 | 0.00 | 0.00 | 0.00 | 70 | 1020.1 |
| 20260906174437 | 74 | 113 | 5.0 | 13.0 | 0.00 | 0.00 | 0.00 | 69 | 1020.0 |
| 20260906174329 | 74 | 79 | 6.0 | 13.0 | 0.00 | 0.00 | 0.00 | 70 | 1020.1 |
| 20260906174242 | 74 | 92 | 7.0 | 13.0 | 0.00 | 0.00 | 0.00 | 69 | 1019.9 |
| 20260906174154 | 74 | 84 | 7.0 | 13.0 | 0.00 | 0.00 | 0.00 | 70 | 1019.9 |
| 20260906174025 | 74 | 94 | 9.0 | 13.0 | 0.00 | 0.00 | 0.00 | 70 | 1019.9 |
| 20260906173937 | 74 | 114 | 9.0 | 13.0 | 0.00 | 0.00 | 0.00 | 69 | 1020.0 |
| 20260906173829 | 74 | 138 | 8.0 | 13.0 | 0.00 | 0.00 | 0.00 | 70 | 1020.0 |
| 20260906173721 | 74 | 105 | 5.0 | 13.0 | 0.00 | 0.00 | 0.00 | 72 | 1020.0 |
| 20260906173633 | 74 | 120 | 3.0 | 13.0 | 0.00 | 0.00 | 0.00 | 71 | 1020.0 |
| 20260906173530 | 74 | 104 | 5.0 | 13.0 | 0.00 | 0.00 | 0.00 | 69 | 1020.1 |
| 20260906173442 | 74 | 119 | 7.0 | 13.0 | 0.00 | 0.00 | 0.00 | 69 | 1020.1 |
| 20260906173334 | 74 | 114 | 7.0 | 13.0 | 0.00 | 0.00 | 0.00 | 72 | 1020.2 |
| 20260906173225 | 74 | 119 | 8.0 | 13.0 | 0.00 | 0.00 | 0.00 | 70 | 1020.2 |
| 20260906173148 | 74 | 101 | 7.0 | 13.0 | 0.00 | 0.00 | 0.00 | 71 | 1020.1 |
| 20260906173020 | 73 | 107 | 4.0 | 11.0 | 0.00 | 0.00 | 0.00 | 70 | 1020.2 |
| 20260906172933 | 73 | 102 | 5.0 | 11.0 | 0.00 | 0.00 | 0.00 | 69 | 1020.2 |
| 20260906172825 | 73 | 98 | 7.0 | 12.0 | 0.00 | 0.00 | 0.00 | 69 | 1020.2 |
| 20260906172721 | 73 | 109 | 8.0 | 12.0 | 0.00 | 0.00 | 0.00 | 71 | 1020.3 |
| 20260906172633 | 73 | 121 | 7.0 | 12.0 | 0.00 | 0.00 | 0.00 | 69 | 1020.3 |
| 20260906172523 | 73 | 140 | 5.0 | 12.0 | 0.00 | 0.00 | 0.00 | 71 | 1020.3 |
| 20260906172437 | 73 | 98 | 5.0 | 12.0 | 0.00 | 0.00 | 0.00 | 71 | 1020.4 |
| 20260906172330 | 73 | 99 | 5.0 | 12.0 | 0.00 | 0.00 | 0.00 | 71 | 1020.3 |
| 20260906172242 | 73 | 68 | 5.0 | 12.0 | 0.00 | 0.00 | 0.00 | 72 | 1020.3 |
| 20260906172154 | 73 | 67 | 7.0 | 12.0 | 0.00 | 0.00 | 0.00 | 72 | 1020.3 |
| 20260906172107 | 73 | 139 | 9.0 | 12.0 | 0.00 | 0.00 | 0.00 | 70 | 1020.3 |
| 20260906171958 | 73 | 142 | 6.0 | 11.0 | 0.00 | 0.00 | 0.00 | 71 | 1020.3 |
| 20260906171849 | 73 | 138 | 7.0 | 11.0 | 0.00 | 0.00 | 0.00 | 70 | 1020.3 |
| 20260906171740 | 73 | 133 | 8.0 | 11.0 | 0.00 | 0.00 | 0.00 | 69 | 1020.3 |
| 20260906171645 | 73 | 111 | 8.0 | 11.0 | 0.00 | 0.00 | 0.00 | 70 | 1020.3 |
| 20260906171537 | 73 | 96 | 9.0 | 12.0 | 0.00 | 0.00 | 0.00 | 71 | 1020.3 |
| 20260906171429 | 73 | 109 | 9.0 | 12.0 | 0.00 | 0.00 | 0.00 | 71 | 1020.3 |
| 20260906171322 | 73 | 110 | 8.0 | 12.0 | 0.00 | 0.00 | 0.00 | 70 | 1020.4 |
| 20260906171235 | 73 | 94 | 6.0 | 12.0 | 0.00 | 0.00 | 0.00 | 71 | 1020.4 |
| 20260906171126 | 73 | 72 | 5.0 | 12.0 | 0.00 | 0.00 | 0.00 | 70 | 1020.4 |
| 20260906171038 | 73 | 54 | 6.0 | 12.0 | 0.00 | 0.00 | 0.00 | 69 | 1020.4 |
| 20260906170928 | 73 | 92 | 8.0 | 12.0 | 0.00 | 0.00 | 0.00 | 71 | 1020.5 |
| 20260906170823 | 73 | 128 | 9.0 | 12.0 | 0.00 | 0.00 | 0.00 | 71 | 1020.5 |
| 20260906170735 | 74 | 115 | 8.0 | 12.0 | 0.00 | 0.00 | 0.00 | 71 | 1020.4 |
| 20260906170628 | 73 | 127 | 6.0 | 12.0 | 0.00 | 0.00 | 0.00 | 71 | 1020.5 |
| 20260906170540 | 73 | 78 | 4.0 | 12.0 | 0.00 | 0.00 | 0.00 | 71 | 1020.5 |
| 20260906170453 | 73 | 101 | 5.0 | 12.0 | 0.00 | 0.00 | 0.00 | 70 | 1020.6 |
| 20260906170345 | 73 | 82 | 7.0 | 12.0 | 0.00 | 0.00 | 0.00 | 69 | 1020.6 |
| 20260906170256 | 73 | 79 | 8.0 | 12.0 | 0.00 | 0.00 | 0.00 | 70 | 1020.6 |
| 20260906170216 | 73 | 84 | 6.0 | 12.0 | 0.00 | 0.00 | 0.00 | 72 | 1020.6 |
| 20260906170027 | 73 | 101 | 7.0 | 12.0 | 0.00 | 0.00 | 0.00 | 72 | 1020.6 |
| 20260906165918 | 73 | 122 | 7.0 | 12.0 | 0.00 | 0.00 | 0.00 | 73 | 1020.6 |
| 20260906165834 | 73 | 121 | 8.0 | 12.0 | 0.00 | 0.00 | 0.00 | 72 | 1020.6 |
| 20260906165727 | 73 | 105 | 7.0 | 12.0 | 0.00 | 0.00 | 0.00 | 72 | 1020.6 |
| 20260906165619 | 73 | 71 | 5.0 | 12.0 | 0.00 | 0.00 | 0.00 | 72 | 1020.5 |
| 20260906165532 | 73 | 36 | 6.0 | 12.0 | 0.00 | 0.00 | 0.00 | 71 | 1020.6 |
| 20260906165444 | 73 | 65 | 6.0 | 12.0 | 0.00 | 0.00 | 0.00 | 72 | 1020.5 |
| 20260906165357 | 73 | 86 | 7.0 | 12.0 | 0.00 | 0.00 | 0.00 | 71 | 1020.6 |
| 20260906165249 | 73 | 39 | 6.0 | 12.0 | 0.00 | 0.00 | 0.00 | 70 | 1020.6 |
| 20260906165139 | 73 | 105 | 4.0 | 14.0 | 0.00 | 0.00 | 0.00 | 74 | 1020.6 |
| 20260906165031 | 73 | 86 | 3.0 | 14.0 | 0.00 | 0.00 | 0.00 | 73 | 1020.6 |
| 20260906164943 | 73 | 96 | 5.0 | 14.0 | 0.00 | 0.00 | 0.00 | 74 | 1020.6 |
| 20260906164855 | 73 | 96 | 7.0 | 14.0 | 0.00 | 0.00 | 0.00 | 73 | 1020.6 |
| 20260906164730 | 73 | 98 | 7.0 | 14.0 | 0.00 | 0.00 | 0.00 | 71 | 1020.6 |
| 20260906164653 | 73 | 108 | 7.0 | 14.0 | 0.00 | 0.00 | 0.00 | 71 | 1020.6 |
| 20260906164543 | 73 | 101 | 7.0 | 14.0 | 0.00 | 0.00 | 0.00 | 71 | 1020.6 |
| 20260906164456 | 73 | 108 | 9.0 | 14.0 | 0.00 | 0.00 | 0.00 | 72 | 1020.6 |
| 20260906164346 | 73 | 142 | 7.0 | 14.0 | 0.00 | 0.00 | 0.00 | 75 | 1020.6 |
| 20260906164236 | 74 | 117 | 5.0 | 10.0 | 0.00 | 0.00 | 0.00 | 75 | 1020.6 |
| 20260906164126 | 73 | 94 | 5.0 | 10.0 | 0.00 | 0.00 | 0.00 | 74 | 1020.6 |
| 20260906164038 | 73 | 62 | 4.0 | 10.0 | 0.00 | 0.00 | 0.00 | 75 | 1020.6 |
| 20260906163931 | 73 | 78 | 3.0 | 10.0 | 0.00 | 0.00 | 0.00 | 75 | 1020.5 |
| 20260906163842 | 73 | 66 | 3.0 | 10.0 | 0.00 | 0.00 | 0.00 | 77 | 1020.6 |
| 20260906163737 | 73 | 87 | 4.0 | 10.0 | 0.00 | 0.00 | 0.00 | 75 | 1020.6 |
| 20260906163629 | 73 | 107 | 5.0 | 10.0 | 0.00 | 0.00 | 0.00 | 76 | 1020.6 |
| 20260906163521 | 73 | 83 | 5.0 | 10.0 | 0.00 | 0.00 | 0.00 | 75 | 1020.6 |
| 20260906163433 | 73 | 92 | 6.0 | 10.0 | 0.00 | 0.00 | 0.00 | 74 | 1020.6 |
| 20260906163324 | 73 | 109 | 6.0 | 10.0 | 0.00 | 0.00 | 0.00 | 75 | 1020.6 |
| 20260906163235 | 73 | 59 | 6.0 | 10.0 | 0.00 | 0.00 | 0.00 | 75 | 1020.5 |
| 20260906163158 | 73 | 45 | 6.0 | 10.0 | 0.00 | 0.00 | 0.00 | 75 | 1020.5 |
| 20260906163049 | 73 | 74 | 5.0 | 13.0 | 0.00 | 0.00 | 0.00 | 75 | 1020.5 |
| 20260906162921 | 73 | 30 | 6.0 | 13.0 | 0.00 | 0.00 | 0.00 | 75 | 1020.5 |
| 20260906162838 | 73 | 111 | 7.0 | 13.0 | 0.00 | 0.00 | 0.00 | 74 | 1020.6 |
| 20260906162729 | 73 | 123 | 5.0 | 13.0 | 0.00 | 0.00 | 0.00 | 75 | 1020.5 |
| 20260906162620 | 73 | 91 | 4.0 | 13.0 | 0.00 | 0.00 | 0.00 | 76 | 1020.6 |
| 20260906162532 | 72 | 105 | 4.0 | 13.0 | 0.00 | 0.00 | 0.00 | 76 | 1020.6 |
| 20260906162425 | 72 | 94 | 7.0 | 13.0 | 0.00 | 0.00 | 0.00 | 75 | 1020.6 |
| 20260906162337 | 72 | 97 | 7.0 | 13.0 | 0.00 | 0.00 | 0.00 | 75 | 1020.6 |
| 20260906162229 | 72 | 114 | 8.0 | 13.0 | 0.00 | 0.00 | 0.00 | 75 | 1020.6 |
| 20260906162141 | 72 | 98 | 6.0 | 11.0 | 0.00 | 0.00 | 0.00 | 75 | 1020.6 |
| 20260906162032 | 72 | 81 | 5.0 | 11.0 | 0.00 | 0.00 | 0.00 | 75 | 1020.7 |
| 20260906161928 | 72 | 80 | 5.0 | 11.0 | 0.00 | 0.00 | 0.00 | 75 | 1020.8 |
| 20260906161840 | 72 | 71 | 7.0 | 11.0 | 0.00 | 0.00 | 0.00 | 75 | 1020.8 |
| 20260906161730 | 72 | 65 | 7.0 | 11.0 | 0.00 | 0.00 | 0.00 | 75 | 1020.8 |
| 20260906161654 | 72 | 65 | 6.0 | 11.0 | 0.00 | 0.00 | 0.00 | 76 | 1020.8 |
| 20260906161525 | 72 | 78 | 5.0 | 11.0 | 0.00 | 0.00 | 0.00 | 76 | 1020.8 |
| 20260906161436 | 72 | 84 | 7.0 | 11.0 | 0.00 | 0.00 | 0.00 | 76 | 1020.7 |
| 20260906161329 | 72 | 74 | 7.0 | 11.0 | 0.00 | 0.00 | 0.00 | 77 | 1020.7 |
| 20260906161241 | 72 | 93 | 5.0 | 10.0 | 0.00 | 0.00 | 0.00 | 77 | 1020.9 |
| 20260906161131 | 72 | 80 | 4.0 | 10.0 | 0.00 | 0.00 | 0.00 | 78 | 1020.8 |
| 20260906161028 | 72 | 92 | 6.0 | 10.0 | 0.00 | 0.00 | 0.00 | 77 | 1020.8 |
| 20260906160919 | 72 | 81 | 7.0 | 10.0 | 0.00 | 0.00 | 0.00 | 77 | 1020.8 |
| 20260906160832 | 72 | 93 | 7.0 | 10.0 | 0.00 | 0.00 | 0.00 | 78 | 1020.9 |
| 20260906160724 | 72 | 63 | 5.0 | 10.0 | 0.00 | 0.00 | 0.00 | 77 | 1020.8 |
| 20260906160636 | 72 | 47 | 4.0 | 10.0 | 0.00 | 0.00 | 0.00 | 78 | 1020.8 |
| 20260906160528 | 72 | 82 | 4.0 | 10.0 | 0.00 | 0.00 | 0.00 | 79 | 1020.8 |
| 20260906160420 | 72 | 5 | 5.0 | 10.0 | 0.00 | 0.00 | 0.00 | 79 | 1020.8 |
| 20260906160332 | 71 | 66 | 4.0 | 10.0 | 0.00 | 0.00 | 0.00 | 79 | 1020.7 |
| 20260906160241 | 71 | 79 | 4.0 | 10.0 | 0.00 | 0.00 | 0.00 | 79 | 1020.7 |
| 20260906160217 | 71 | 105 | 4.0 | 10.0 | 0.00 | 0.00 | 0.00 | 79 | 1020.7 |
| 20260906160028 | 71 | 93 | 5.0 | 10.0 | 0.00 | 0.00 | 0.00 | 78 | 1020.8 |
| 20260906155941 | 71 | 52 | 5.0 | 10.0 | 0.00 | 0.00 | 0.00 | 77 | 1020.8 |
| 20260906155831 | 71 | 39 | 6.0 | 10.0 | 0.00 | 0.00 | 0.00 | 77 | 1020.8 |
| 20260906155723 | 71 | 68 | 8.0 | 10.0 | 0.00 | 0.00 | 0.00 | 77 | 1020.8 |
| 20260906155636 | 71 | 83 | 6.0 | 10.0 | 0.00 | 0.00 | 0.00 | 78 | 1020.9 |
| 20260906155549 | 71 | 75 | 4.0 | 10.0 | 0.00 | 0.00 | 0.00 | 78 | 1020.8 |
| 20260906155421 | 71 | 85 | 5.0 | 10.0 | 0.00 | 0.00 | 0.00 | 78 | 1020.8 |
| 20260906155331 | 71 | 74 | 4.0 | 10.0 | 0.00 | 0.00 | 0.00 | 79 | 1020.8 |
| 20260906155228 | 71 | 50 | 4.0 | 10.0 | 0.00 | 0.00 | 0.00 | 79 | 1020.8 |
| 20260906155121 | 71 | 25 | 5.0 | 10.0 | 0.00 | 0.00 | 0.00 | 78 | 1020.7 |
| 20260906155032 | 71 | 40 | 5.0 | 10.0 | 0.00 | 0.00 | 0.00 | 78 | 1020.7 |
| 20260906154925 | 71 | 72 | 5.0 | 9.0 | 0.00 | 0.00 | 0.00 | 78 | 1020.6 |
| 20260906154838 | 71 | 45 | 6.0 | 9.0 | 0.00 | 0.00 | 0.00 | 79 | 1020.6 |
| 20260906154730 | 71 | 29 | 5.0 | 9.0 | 0.00 | 0.00 | 0.00 | 80 | 1020.6 |
| 20260906154652 | 71 | 63 | 5.0 | 10.0 | 0.00 | 0.00 | 0.00 | 79 | 1020.6 |
| 20260906154524 | 71 | 142 | 6.0 | 10.0 | 0.00 | 0.00 | 0.00 | 78 | 1020.6 |
| 20260906154419 | 71 | 72 | 5.0 | 10.0 | 0.00 | 0.00 | 0.00 | 78 | 1020.6 |
| 20260906154332 | 71 | 92 | 5.0 | 10.0 | 0.00 | 0.00 | 0.00 | 79 | 1020.5 |
| 20260906154225 | 71 | 51 | 5.0 | 10.0 | 0.00 | 0.00 | 0.00 | 79 | 1020.5 |
| 20260906154135 | 71 | 57 | 5.0 | 11.0 | 0.00 | 0.00 | 0.00 | 80 | 1020.5 |
| 20260906154028 | 71 | 84 | 6.0 | 11.0 | 0.00 | 0.00 | 0.00 | 80 | 1020.5 |
| 20260906153940 | 70 | 133 | 7.0 | 11.0 | 0.00 | 0.00 | 0.00 | 80 | 1020.4 |
| 20260906153852 | 70 | 117 | 6.0 | 11.0 | 0.00 | 0.00 | 0.00 | 80 | 1020.4 |
| 20260906153724 | 70 | 108 | 4.0 | 12.0 | 0.00 | 0.00 | 0.00 | 79 | 1020.5 |
| 20260906153636 | 70 | 109 | 4.0 | 12.0 | 0.00 | 0.00 | 0.00 | 79 | 1020.5 |
| 20260906153549 | 70 | 96 | 6.0 | 12.0 | 0.00 | 0.00 | 0.00 | 79 | 1020.5 |
| 20260906153425 | 70 | 105 | 7.0 | 12.0 | 0.00 | 0.00 | 0.00 | 79 | 1020.6 |
| 20260906153338 | 70 | 101 | 6.0 | 12.0 | 0.00 | 0.00 | 0.00 | 80 | 1020.5 |
| 20260906153228 | 70 | 82 | 4.0 | 12.0 | 0.00 | 0.00 | 0.00 | 80 | 1020.5 |
| 20260906153149 | 70 | 333 | 4.0 | 12.0 | 0.00 | 0.00 | 0.00 | 81 | 1020.5 |
| 20260906153040 | 70 | 81 | 4.0 | 12.0 | 0.00 | 0.00 | 0.00 | 80 | 1020.5 |
| 20260906152930 | 70 | 74 | 6.0 | 12.0 | 0.00 | 0.00 | 0.00 | 79 | 1020.5 |
| 20260906152822 | 70 | 80 | 8.0 | 11.0 | 0.00 | 0.00 | 0.00 | 80 | 1020.5 |
| 20260906152734 | 70 | 100 | 8.0 | 11.0 | 0.00 | 0.00 | 0.00 | 79 | 1020.5 |
| 20260906152625 | 70 | 117 | 7.0 | 11.0 | 0.00 | 0.00 | 0.00 | 80 | 1020.6 |
| 20260906152522 | 70 | 103 | 3.0 | 11.0 | 0.00 | 0.00 | 0.00 | 82 | 1020.6 |
| 20260906152434 | 70 | 119 | 4.0 | 11.0 | 0.00 | 0.00 | 0.00 | 83 | 1020.6 |
| 20260906152326 | 70 | 59 | 6.0 | 11.0 | 0.00 | 0.00 | 0.00 | 83 | 1020.6 |
| 20260906152237 | 70 | 121 | 4.0 | 10.0 | 0.00 | 0.00 | 0.00 | 82 | 1020.6 |
| 20260906152129 | 70 | 118 | 3.0 | 10.0 | 0.00 | 0.00 | 0.00 | 82 | 1020.6 |
| 20260906152042 | 70 | 111 | 3.0 | 10.0 | 0.00 | 0.00 | 0.00 | 81 | 1020.5 |
| 20260906151953 | 70 | 71 | 4.0 | 10.0 | 0.00 | 0.00 | 0.00 | 81 | 1020.5 |
| 20260906151904 | 70 | 67 | 7.0 | 10.0 | 0.00 | 0.00 | 0.00 | 81 | 1020.6 |
| 20260906151756 | 70 | 105 | 7.0 | 10.0 | 0.00 | 0.00 | 0.00 | 82 | 1020.6 |
| 20260906151717 | 70 | 88 | 5.0 | 9.0 | 0.00 | 0.00 | 0.00 | 82 | 1020.6 |
| 20260906151531 | 69 | 102 | 5.0 | 9.0 | 0.00 | 0.00 | 0.00 | 82 | 1020.5 |
| 20260906151423 | 69 | 113 | 6.0 | 9.0 | 0.00 | 0.00 | 0.00 | 81 | 1020.6 |
| 20260906151335 | 69 | 99 | 6.0 | 9.0 | 0.00 | 0.00 | 0.00 | 83 | 1020.6 |
| 20260906151226 | 69 | 94 | 6.0 | 9.0 | 0.00 | 0.00 | 0.00 | 82 | 1020.6 |
| 20260906151138 | 69 | 75 | 6.0 | 9.0 | 0.00 | 0.00 | 0.00 | 82 | 1020.7 |
| 20260906151030 | 69 | 61 | 6.0 | 9.0 | 0.00 | 0.00 | 0.00 | 83 | 1020.6 |
| 20260906150921 | 69 | 76 | 5.0 | 9.0 | 0.00 | 0.00 | 0.00 | 83 | 1020.7 |
| 20260906150834 | 69 | 24 | 4.0 | 9.0 | 0.00 | 0.00 | 0.00 | 83 | 1020.7 |
| 20260906150730 | 69 | 77 | 4.0 | 9.0 | 0.00 | 0.00 | 0.00 | 82 | 1020.6 |
| 20260906150623 | 69 | 64 | 5.0 | 9.0 | 0.00 | 0.00 | 0.00 | 82 | 1020.6 |
| 20260906150535 | 69 | 101 | 5.0 | 9.0 | 0.00 | 0.00 | 0.00 | 82 | 1020.6 |
| 20260906150427 | 69 | 75 | 5.0 | 9.0 | 0.00 | 0.00 | 0.00 | 83 | 1020.6 |
| 20260906150339 | 69 | 69 | 4.0 | 9.0 | 0.00 | 0.00 | 0.00 | 84 | 1020.6 |
| 20260906150238 | 69 | 98 | 3.0 | 8.0 | 0.00 | 0.00 | 0.00 | 84 | 1020.6 |
| 20260906150141 | 69 | 69 | 4.0 | 9.0 | 0.00 | 0.00 | 0.00 | 84 | 1020.6 |
| 20260906150031 | 69 | 49 | 4.0 | 9.0 | 0.00 | 0.00 | 0.00 | 84 | 1020.7 |
| 20260906145927 | 69 | 88 | 3.0 | 9.0 | 0.00 | 0.00 | 0.00 | 84 | 1020.5 |
| 20260906145838 | 69 | 75 | 4.0 | 9.0 | 0.00 | 0.00 | 0.00 | 84 | 1020.6 |
| 20260906145729 | 69 | 40 | 5.0 | 9.0 | 0.00 | 0.00 | 0.00 | 84 | 1020.6 |
| 20260906145620 | 69 | 112 | 5.0 | 9.0 | 0.00 | 0.00 | 0.00 | 85 | 1020.6 |
| 20260906145531 | 69 | 102 | 4.0 | 9.0 | 0.00 | 0.00 | 0.00 | 84 | 1020.6 |
| 20260906145424 | 69 | 67 | 5.0 | 10.0 | 0.00 | 0.00 | 0.00 | 84 | 1020.5 |
| 20260906145336 | 68 | 74 | 5.0 | 10.0 | 0.00 | 0.00 | 0.00 | 84 | 1020.6 |
| 20260906145229 | 68 | 41 | 4.0 | 10.0 | 0.00 | 0.00 | 0.00 | 85 | 1020.4 |
| 20260906145125 | 68 | 107 | 3.0 | 10.0 | 0.00 | 0.00 | 0.00 | 85 | 1020.4 |
| 20260906145037 | 68 | 111 | 3.0 | 10.0 | 0.00 | 0.00 | 0.00 | 85 | 1020.3 |
| 20260906144930 | 68 | 103 | 4.0 | 10.0 | 0.00 | 0.00 | 0.00 | 85 | 1020.3 |
| 20260906144842 | 68 | 103 | 5.0 | 10.0 | 0.00 | 0.00 | 0.00 | 84 | 1020.3 |
| 20260906144755 | 68 | 96 | 5.0 | 10.0 | 0.00 | 0.00 | 0.00 | 85 | 1020.3 |
| 20260906144717 | 68 | 72 | 5.0 | 10.0 | 0.00 | 0.00 | 0.00 | 84 | 1020.3 |
| 20260906144547 | 68 | 101 | 5.0 | 10.0 | 0.00 | 0.00 | 0.00 | 84 | 1020.3 |
| 20260906144458 | 68 | 89 | 4.0 | 10.0 | 0.00 | 0.00 | 0.00 | 85 | 1020.4 |
| 20260906144329 | 68 | 107 | 5.0 | 10.0 | 0.00 | 0.00 | 0.00 | 85 | 1020.4 |
| 20260906144220 | 68 | 64 | 5.0 | 10.0 | 0.00 | 0.00 | 0.00 | 85 | 1020.4 |
| 20260906144137 | 68 | 97 | 5.0 | 10.0 | 0.00 | 0.00 | 0.00 | 85 | 1020.4 |
| 20260906144029 | 68 | 67 | 6.0 | 10.0 | 0.00 | 0.00 | 0.00 | 85 | 1020.4 |
| 20260906143920 | 68 | 115 | 6.0 | 10.0 | 0.00 | 0.00 | 0.00 | 86 | 1020.4 |
| 20260906143832 | 68 | 75 | 5.0 | 10.0 | 0.00 | 0.00 | 0.00 | 85 | 1020.3 |
| 20260906143723 | 68 | 115 | 6.0 | 10.0 | 0.00 | 0.00 | 0.00 | 86 | 1020.3 |
| 20260906143636 | 68 | 111 | 6.0 | 10.0 | 0.00 | 0.00 | 0.00 | 86 | 1020.4 |
| 20260906143549 | 68 | 80 | 5.0 | 10.0 | 0.00 | 0.00 | 0.00 | 86 | 1020.3 |
| 20260906143500 | 68 | 83 | 4.0 | 9.0 | 0.00 | 0.00 | 0.00 | 87 | 1020.2 |
| 20260906143351 | 68 | 123 | 3.0 | 9.0 | 0.00 | 0.00 | 0.00 | 86 | 1020.3 |
| 20260906143225 | 67 | 52 | 4.0 | 9.0 | 0.00 | 0.00 | 0.00 | 86 | 1020.3 |
| 20260906143148 | 67 | 78 | 5.0 | 9.0 | 0.00 | 0.00 | 0.00 | 86 | 1020.3 |
| 20260906143020 | 67 | 94 | 5.0 | 9.0 | 0.00 | 0.00 | 0.00 | 85 | 1020.3 |
| 20260906142933 | 67 | 76 | 5.0 | 8.0 | 0.00 | 0.00 | 0.00 | 85 | 1020.3 |
| 20260906142844 | 67 | 86 | 6.0 | 8.0 | 0.00 | 0.00 | 0.00 | 85 | 1020.3 |
| 20260906142756 | 68 | 100 | 5.0 | 8.0 | 0.00 | 0.00 | 0.00 | 86 | 1020.2 |
| 20260906142648 | 67 | 46 | 5.0 | 8.0 | 0.00 | 0.00 | 0.00 | 86 | 1020.3 |
| 20260906142538 | 67 | 91 | 4.0 | 8.0 | 0.00 | 0.00 | 0.00 | 86 | 1020.4 |
| 20260906142431 | 67 | 99 | 3.0 | 6.0 | 0.00 | 0.00 | 0.00 | 87 | 1020.3 |
| 20260906142323 | 67 | 81 | 3.0 | 7.0 | 0.00 | 0.00 | 0.00 | 87 | 1020.4 |
| 20260906142220 | 67 | 83 | 4.0 | 7.0 | 0.00 | 0.00 | 0.00 | 87 | 1020.4 |
| 20260906142132 | 67 | 120 | 4.0 | 7.0 | 0.00 | 0.00 | 0.00 | 87 | 1020.5 |
| 20260906142022 | 67 | 108 | 2.0 | 6.0 | 0.00 | 0.00 | 0.00 | 88 | 1020.4 |
| 20260906141935 | 67 | 90 | 2.0 | 6.0 | 0.00 | 0.00 | 0.00 | 88 | 1020.5 |
| 20260906141827 | 67 | 90 | 3.0 | 10.0 | 0.00 | 0.00 | 0.00 | 87 | 1020.5 |
| 20260906141720 | 67 | 80 | 4.0 | 10.0 | 0.00 | 0.00 | 0.00 | 87 | 1020.4 |
| 20260906141641 | 67 | 75 | 5.0 | 10.0 | 0.00 | 0.00 | 0.00 | 87 | 1020.5 |
| 20260906141533 | 67 | 82 | 4.0 | 10.0 | 0.00 | 0.00 | 0.00 | 87 | 1020.4 |
| 20260906141429 | 67 | 103 | 4.0 | 10.0 | 0.00 | 0.00 | 0.00 | 87 | 1020.3 |
| 20260906141341 | 67 | 84 | 5.0 | 10.0 | 0.00 | 0.00 | 0.00 | 88 | 1020.3 |
| 20260906141232 | 67 | 96 | 4.0 | 10.0 | 0.00 | 0.00 | 0.00 | 88 | 1020.3 |
| 20260906141143 | 66 | 24 | 6.0 | 10.0 | 0.00 | 0.00 | 0.00 | 87 | 1020.3 |
| 20260906141056 | 66 | 104 | 7.0 | 10.0 | 0.00 | 0.00 | 0.00 | 87 | 1020.3 |
| 20260906140927 | 66 | 77 | 5.0 | 12.0 | 0.00 | 0.00 | 0.00 | 88 | 1020.3 |
| 20260906140839 | 66 | 81 | 5.0 | 12.0 | 0.00 | 0.00 | 0.00 | 88 | 1020.3 |
| 20260906140730 | 66 | 90 | 5.0 | 12.0 | 0.00 | 0.00 | 0.00 | 88 | 1020.2 |
| 20260906140642 | 66 | 117 | 4.0 | 12.0 | 0.00 | 0.00 | 0.00 | 89 | 1020.3 |
| 20260906140554 | 66 | 128 | 6.0 | 12.0 | 0.00 | 0.00 | 0.00 | 88 | 1020.3 |
| 20260906140446 | 66 | 97 | 6.0 | 12.0 | 0.00 | 0.00 | 0.00 | 88 | 1020.3 |
| 20260906140342 | 66 | 128 | 7.0 | 12.0 | 0.00 | 0.00 | 0.00 | 87 | 1020.4 |
| 20260906140250 | 66 | 87 | 7.0 | 12.0 | 0.00 | 0.00 | 0.00 | 87 | 1020.4 |
| 20260906140151 | 66 | 103 | 7.0 | 12.0 | 0.00 | 0.00 | 0.00 | 87 | 1020.4 |
| 20260906140023 | 66 | 103 | 7.0 | 11.0 | 0.00 | 0.00 | 0.00 | 87 | 1020.5 |
| 20260906135935 | 66 | 114 | 6.0 | 11.0 | 0.00 | 0.00 | 0.00 | 87 | 1020.4 |
| 20260906135826 | 66 | 79 | 6.0 | 11.0 | 0.00 | 0.00 | 0.00 | 87 | 1020.3 |
| 20260906135738 | 66 | 104 | 7.0 | 11.0 | 0.00 | 0.00 | 0.00 | 88 | 1020.4 |
| 20260906135631 | 66 | 101 | 6.0 | 11.0 | 0.00 | 0.00 | 0.00 | 88 | 1020.3 |
| 20260906135523 | 66 | 98 | 5.0 | 11.0 | 0.00 | 0.00 | 0.00 | 88 | 1020.3 |
| 20260906135440 | 66 | 90 | 6.0 | 11.0 | 0.00 | 0.00 | 0.00 | 88 | 1020.3 |
| 20260906135352 | 66 | 103 | 7.0 | 11.0 | 0.00 | 0.00 | 0.00 | 88 | 1020.2 |
| 20260906135242 | 66 | 92 | 6.0 | 11.0 | 0.00 | 0.00 | 0.00 | 88 | 1020.3 |
| 20260906135153 | 66 | 97 | 6.0 | 11.0 | 0.00 | 0.00 | 0.00 | 88 | 1020.3 |
| 20260906135024 | 66 | 84 | 5.0 | 11.0 | 0.00 | 0.00 | 0.00 | 88 | 1020.3 |
| 20260906134936 | 66 | 104 | 6.0 | 11.0 | 0.00 | 0.00 | 0.00 | 88 | 1020.4 |
| 20260906134829 | 66 | 71 | 7.0 | 11.0 | 0.00 | 0.00 | 0.00 | 88 | 1020.4 |
| 20260906134722 | 66 | 69 | 6.0 | 9.0 | 0.00 | 0.00 | 0.00 | 88 | 1020.4 |
| 20260906134644 | 66 | 116 | 5.0 | 9.0 | 0.00 | 0.00 | 0.00 | 88 | 1020.5 |
| 20260906134534 | 66 | 72 | 5.0 | 8.0 | 0.00 | 0.00 | 0.00 | 88 | 1020.4 |
| 20260906134431 | 66 | 80 | 6.0 | 8.0 | 0.00 | 0.00 | 0.00 | 88 | 1020.5 |
| 20260906134323 | 66 | 108 | 6.0 | 8.0 | 0.00 | 0.00 | 0.00 | 88 | 1020.5 |
| 20260906134235 | 66 | 74 | 5.0 | 8.0 | 0.00 | 0.00 | 0.00 | 89 | 1020.5 |
| 20260906134147 | 65 | 77 | 5.0 | 8.0 | 0.00 | 0.00 | 0.00 | 89 | 1020.5 |
| 20260906134100 | 65 | 92 | 5.0 | 8.0 | 0.00 | 0.00 | 0.00 | 88 | 1020.5 |
| 20260906133931 | 65 | 85 | 4.0 | 10.0 | 0.00 | 0.00 | 0.00 | 89 | 1020.6 |
| 20260906133823 | 65 | 85 | 6.0 | 10.0 | 0.00 | 0.00 | 0.00 | 88 | 1020.6 |
| 20260906133735 | 65 | 107 | 5.0 | 10.0 | 0.00 | 0.00 | 0.00 | 88 | 1020.6 |
| 20260906133630 | 65 | 98 | 4.0 | 10.0 | 0.00 | 0.00 | 0.00 | 88 | 1020.5 |
| 20260906133543 | 65 | 85 | 6.0 | 10.0 | 0.00 | 0.00 | 0.00 | 88 | 1020.6 |
| 20260906133434 | 65 | 94 | 6.0 | 10.0 | 0.00 | 0.00 | 0.00 | 88 | 1020.6 |
| 20260906133346 | 65 | 108 | 6.0 | 10.0 | 0.00 | 0.00 | 0.00 | 88 | 1020.5 |
| 20260906133256 | 65 | 96 | 6.0 | 10.0 | 0.00 | 0.00 | 0.00 | 88 | 1020.6 |
| 20260906133158 | 65 | 86 | 6.0 | 10.0 | 0.00 | 0.00 | 0.00 | 88 | 1020.6 |
| 20260906133029 | 65 | 71 | 6.0 | 10.0 | 0.00 | 0.00 | 0.00 | 88 | 1020.5 |
| 20260906132921 | 65 | 140 | 4.0 | 9.0 | 0.00 | 0.00 | 0.00 | 88 | 1020.5 |
| 20260906132833 | 65 | 98 | 4.0 | 9.0 | 0.00 | 0.00 | 0.00 | 88 | 1020.5 |
| 20260906132725 | 65 | 74 | 6.0 | 9.0 | 0.00 | 0.00 | 0.00 | 88 | 1020.5 |
| 20260906132621 | 65 | 96 | 7.0 | 9.0 | 0.00 | 0.00 | 0.00 | 88 | 1020.5 |
| 20260906132533 | 65 | 97 | 7.0 | 9.0 | 0.00 | 0.00 | 0.00 | 88 | 1020.5 |
| 20260906132426 | 65 | 114 | 4.0 | 8.0 | 0.00 | 0.00 | 0.00 | 90 | 1020.5 |
| 20260906132338 | 65 | 152 | 2.0 | 7.0 | 0.00 | 0.00 | 0.00 | 90 | 1020.5 |
| 20260906132230 | 65 | 93 | 2.0 | 7.0 | 0.00 | 0.00 | 0.00 | 89 | 1020.6 |
| 20260906132143 | 65 | 94 | 2.0 | 7.0 | 0.00 | 0.00 | 0.00 | 90 | 1020.5 |
| 20260906132035 | 65 | 70 | 2.0 | 7.0 | 0.00 | 0.00 | 0.00 | 89 | 1020.5 |
| 20260906131947 | 65 | 70 | 3.0 | 7.0 | 0.00 | 0.00 | 0.00 | 89 | 1020.4 |
| 20260906131858 | 64 | 118 | 5.0 | 7.0 | 0.00 | 0.00 | 0.00 | 89 | 1020.4 |
| 20260906131735 | 64 | 91 | 5.0 | 7.0 | 0.00 | 0.00 | 0.00 | 89 | 1020.4 |
| 20260906131653 | 64 | 105 | 4.0 | 7.0 | 0.00 | 0.00 | 0.00 | 89 | 1020.4 |
| 20260906131545 | 64 | 107 | 3.0 | 8.0 | 0.00 | 0.00 | 0.00 | 89 | 1020.4 |
| 20260906131458 | 64 | 90 | 3.0 | 8.0 | 0.00 | 0.00 | 0.00 | 89 | 1020.4 |
| 20260906131330 | 64 | 119 | 4.0 | 8.0 | 0.00 | 0.00 | 0.00 | 89 | 1020.4 |
| 20260906131221 | 64 | 98 | 5.0 | 8.0 | 0.00 | 0.00 | 0.00 | 89 | 1020.5 |
| 20260906131134 | 64 | 102 | 4.0 | 8.0 | 0.00 | 0.00 | 0.00 | 89 | 1020.5 |
| 20260906131026 | 64 | 121 | 3.0 | 8.0 | 0.00 | 0.00 | 0.00 | 89 | 1020.5 |
| 20260906130937 | 64 | 107 | 3.0 | 8.0 | 0.00 | 0.00 | 0.00 | 89 | 1020.5 |
| 20260906130833 | 64 | 70 | 4.0 | 8.0 | 0.00 | 0.00 | 0.00 | 89 | 1020.5 |
| 20260906130724 | 64 | 88 | 4.0 | 8.0 | 0.00 | 0.00 | 0.00 | 90 | 1020.5 |
| 20260906130635 | 64 | 74 | 3.0 | 8.0 | 0.00 | 0.00 | 0.00 | 89 | 1020.5 |
| 20260906130527 | 64 | 39 | 4.0 | 10.0 | 0.00 | 0.00 | 0.00 | 89 | 1020.5 |
| 20260906130419 | 64 | 74 | 4.0 | 10.0 | 0.00 | 0.00 | 0.00 | 89 | 1020.5 |
| 20260906130332 | 64 | 67 | 3.0 | 10.0 | 0.00 | 0.00 | 0.00 | 89 | 1020.6 |
| 20260906130222 | 64 | 102 | 3.0 | 10.0 | 0.00 | 0.00 | 0.00 | 89 | 1020.5 |
| 20260906130144 | 64 | 32 | 3.0 | 10.0 | 0.00 | 0.00 | 0.00 | 89 | 1020.5 |
| 20260906130020 | 64 | 96 | 4.0 | 10.0 | 0.00 | 0.00 | 0.00 | 89 | 1020.5 |
| 20260906125930 | 64 | 74 | 5.0 | 10.0 | 0.00 | 0.00 | 0.00 | 89 | 1020.4 |
| 20260906125821 | 64 | 97 | 6.0 | 10.0 | 0.00 | 0.00 | 0.00 | 89 | 1020.4 |
| 20260906125734 | 64 | 46 | 6.0 | 10.0 | 0.00 | 0.00 | 0.00 | 89 | 1020.3 |
| 20260906125627 | 64 | 115 | 6.0 | 9.0 | 0.00 | 0.00 | 0.00 | 88 | 1020.2 |
| 20260906125538 | 64 | 134 | 6.0 | 8.0 | 0.00 | 0.00 | 0.00 | 88 | 1020.2 |
| 20260906125432 | 64 | 89 | 4.0 | 9.0 | 0.00 | 0.00 | 0.00 | 89 | 1020.2 |
| 20260906125343 | 64 | 111 | 5.0 | 9.0 | 0.00 | 0.00 | 0.00 | 89 | 1020.2 |
| 20260906125235 | 64 | 111 | 5.0 | 9.0 | 0.00 | 0.00 | 0.00 | 89 | 1020.1 |
| 20260906125131 | 64 | 100 | 4.0 | 9.0 | 0.00 | 0.00 | 0.00 | 89 | 1020.2 |
| 20260906125043 | 63 | 82 | 2.0 | 9.0 | 0.00 | 0.00 | 0.00 | 89 | 1020.1 |
| 20260906124933 | 63 | 75 | 3.0 | 9.0 | 0.00 | 0.00 | 0.00 | 89 | 1020.0 |
| 20260906124846 | 63 | 26 | 3.0 | 9.0 | 0.00 | 0.00 | 0.00 | 89 | 1020.1 |
| 20260906124756 | 63 | 92 | 4.0 | 9.0 | 0.00 | 0.00 | 0.00 | 89 | 1020.1 |
| 20260906124719 | 63 | 93 | 5.0 | 9.0 | 0.00 | 0.00 | 0.00 | 89 | 1020.1 |
| 20260906124530 | 63 | 80 | 4.0 | 9.0 | 0.00 | 0.00 | 0.00 | 89 | 1020.1 |
| 20260906124421 | 63 | 82 | 4.0 | 9.0 | 0.00 | 0.00 | 0.00 | 89 | 1020.0 |
| 20260906124334 | 63 | 96 | 3.0 | 8.0 | 0.00 | 0.00 | 0.00 | 89 | 1020.0 |
| 20260906124225 | 63 | 101 | 4.0 | 8.0 | 0.00 | 0.00 | 0.00 | 89 | 1019.9 |
| 20260906124142 | 63 | 86 | 5.0 | 8.0 | 0.00 | 0.00 | 0.00 | 89 | 1019.9 |
| 20260906124034 | 63 | 78 | 4.0 | 8.0 | 0.00 | 0.00 | 0.00 | 89 | 1019.9 |
| 20260906123947 | 63 | 46 | 4.0 | 6.0 | 0.00 | 0.00 | 0.00 | 89 | 1019.9 |
| 20260906123837 | 63 | 89 | 4.0 | 6.0 | 0.00 | 0.00 | 0.00 | 89 | 1019.9 |
| 20260906123729 | 63 | 69 | 3.0 | 6.0 | 0.00 | 0.00 | 0.00 | 89 | 1019.9 |
| 20260906123642 | 63 | 65 | 4.0 | 8.0 | 0.00 | 0.00 | 0.00 | 89 | 1019.9 |
| 20260906123534 | 63 | 69 | 3.0 | 8.0 | 0.00 | 0.00 | 0.00 | 89 | 1019.8 |
| 20260906123426 | 63 | 103 | 3.0 | 8.0 | 0.00 | 0.00 | 0.00 | 89 | 1019.9 |
| 20260906123338 | 63 | 57 | 4.0 | 8.0 | 0.00 | 0.00 | 0.00 | 89 | 1019.8 |
| 20260906123228 | 63 | 83 | 4.0 | 8.0 | 0.00 | 0.00 | 0.00 | 89 | 1019.8 |
| 20260906123154 | 63 | 51 | 4.0 | 8.0 | 0.00 | 0.00 | 0.00 | 89 | 1019.8 |
| 20260906123046 | 63 | 88 | 4.0 | 8.0 | 0.00 | 0.00 | 0.00 | 89 | 1019.8 |
| 20260906122958 | 63 | 80 | 4.0 | 8.0 | 0.00 | 0.00 | 0.00 | 89 | 1019.8 |
| 20260906122828 | 63 | 67 | 4.0 | 8.0 | 0.00 | 0.00 | 0.00 | 89 | 1019.8 |
| 20260906122720 | 63 | 70 | 4.0 | 7.0 | 0.00 | 0.00 | 0.00 | 90 | 1019.8 |
| 20260906122633 | 63 | 78 | 4.0 | 7.0 | 0.00 | 0.00 | 0.00 | 90 | 1019.8 |
| 20260906122526 | 63 | 71 | 2.0 | 5.0 | 0.00 | 0.00 | 0.00 | 90 | 1019.8 |
| 20260906122438 | 63 | 70 | 2.0 | 5.0 | 0.00 | 0.00 | 0.00 | 90 | 1019.8 |
| 20260906122331 | 63 | 61 | 3.0 | 5.0 | 0.00 | 0.00 | 0.00 | 90 | 1019.8 |
| 20260906122227 | 63 | 57 | 3.0 | 5.0 | 0.00 | 0.00 | 0.00 | 90 | 1019.7 |
| 20260906122120 | 63 | 73 | 3.0 | 5.0 | 0.00 | 0.00 | 0.00 | 90 | 1019.8 |
| 20260906122032 | 63 | 59 | 2.0 | 5.0 | 0.00 | 0.00 | 0.00 | 90 | 1019.8 |
| 20260906121924 | 63 | 44 | 2.0 | 5.0 | 0.00 | 0.00 | 0.00 | 90 | 1019.8 |
| 20260906121836 | 63 | 36 | 3.0 | 5.0 | 0.00 | 0.00 | 0.00 | 90 | 1019.8 |
| 20260906121748 | 63 | 82 | 2.0 | 5.0 | 0.00 | 0.00 | 0.00 | 90 | 1019.8 |
| 20260906121710 | 63 | 82 | 2.0 | 5.0 | 0.00 | 0.00 | 0.00 | 91 | 1019.8 |
| 20260906121602 | 62 | 69 | 1.0 | 5.0 | 0.00 | 0.00 | 0.00 | 91 | 1019.8 |
| 20260906121453 | 63 | 69 | 1.0 | 5.0 | 0.00 | 0.00 | 0.00 | 91 | 1019.8 |
| 20260906121328 | 62 | 69 | 2.0 | 5.0 | 0.00 | 0.00 | 0.00 | 91 | 1019.9 |
| 20260906121220 | 62 | 69 | 3.0 | 5.0 | 0.00 | 0.00 | 0.00 | 91 | 1019.8 |
| 20260906121132 | 62 | 69 | 3.0 | 5.0 | 0.00 | 0.00 | 0.00 | 91 | 1019.8 |
| 20260906121024 | 62 | 65 | 2.0 | 5.0 | 0.00 | 0.00 | 0.00 | 91 | 1019.7 |
| 20260906120936 | 62 | 68 | 1.0 | 4.0 | 0.00 | 0.00 | 0.00 | 91 | 1019.8 |
| 20260906120848 | 62 | 68 | 2.0 | 4.0 | 0.00 | 0.00 | 0.00 | 91 | 1019.8 |
| 20260906120719 | 62 | 68 | 2.0 | 4.0 | 0.00 | 0.00 | 0.00 | 91 | 1019.8 |
| 20260906120632 | 62 | 68 | 2.0 | 4.0 | 0.00 | 0.00 | 0.00 | 91 | 1019.7 |
| 20260906120523 | 62 | 68 | 2.0 | 4.0 | 0.00 | 0.00 | 0.00 | 91 | 1019.7 |
| 20260906120420 | 62 | 68 | 2.0 | 4.0 | 0.00 | 0.00 | 0.00 | 91 | 1019.8 |
| 20260906120331 | 62 | 68 | 2.0 | 3.0 | 0.00 | 0.00 | 0.00 | 92 | 1019.8 |
| 20260906120222 | 62 | 68 | 2.0 | 4.0 | 0.00 | 0.00 | 0.00 | 92 | 1019.8 |
| 20260906120146 | 62 | 61 | 2.0 | 4.0 | 0.00 | 0.00 | 0.00 | 92 | 1019.8 |
| 20260906120038 | 62 | 61 | 2.0 | 4.0 | 0.00 | 0.00 | 0.00 | 92 | 1019.8 |
| 20260906115930 | 62 | 61 | 1.0 | 4.0 | 0.00 | 0.00 | 0.00 | 92 | 1019.8 |
| 20260906115822 | 62 | 61 | 1.0 | 4.0 | 0.00 | 0.00 | 0.00 | 92 | 1019.8 |
| 20260906115734 | 62 | 61 | 1.0 | 4.0 | 0.00 | 0.00 | 0.00 | 92 | 1019.8 |
| 20260906115631 | 62 | 61 | 1.0 | 4.0 | 0.00 | 0.00 | 0.00 | 92 | 1019.7 |
| 20260906115544 | 62 | 61 | 2.0 | 4.0 | 0.00 | 0.00 | 0.00 | 92 | 1019.6 |
| 20260906115456 | 62 | 61 | 2.0 | 4.0 | 0.00 | 0.00 | 0.00 | 92 | 1019.7 |
| 20260906115327 | 62 | 102 | 1.0 | 4.0 | 0.00 | 0.00 | 0.00 | 92 | 1019.7 |
| 20260906115219 | 61 | 102 | 2.0 | 4.0 | 0.00 | 0.00 | 0.00 | 92 | 1019.6 |
| 20260906115131 | 61 | 102 | 2.0 | 4.0 | 0.00 | 0.00 | 0.00 | 92 | 1019.6 |
| 20260906115043 | 61 | 102 | 2.0 | 4.0 | 0.00 | 0.00 | 0.00 | 92 | 1019.6 |
| 20260906114934 | 61 | 102 | 2.0 | 4.0 | 0.00 | 0.00 | 0.00 | 92 | 1019.6 |
| 20260906114827 | 61 | 79 | 1.0 | 4.0 | 0.00 | 0.00 | 0.00 | 92 | 1019.5 |
| 20260906114722 | 61 | 79 | 1.0 | 4.0 | 0.00 | 0.00 | 0.00 | 92 | 1019.6 |
| 20260906114645 | 61 | 79 | 2.0 | 4.0 | 0.00 | 0.00 | 0.00 | 92 | 1019.5 |
| 20260906114536 | 61 | 79 | 3.0 | 6.0 | 0.00 | 0.00 | 0.00 | 93 | 1019.5 |
| 20260906114426 | 61 | 105 | 3.0 | 6.0 | 0.00 | 0.00 | 0.00 | 93 | 1019.5 |
| 20260906114319 | 61 | 84 | 3.0 | 6.0 | 0.00 | 0.00 | 0.00 | 93 | 1019.4 |
| 20260906114231 | 61 | 101 | 3.0 | 6.0 | 0.00 | 0.00 | 0.00 | 93 | 1019.4 |
| 20260906114142 | 61 | 101 | 3.0 | 6.0 | 0.00 | 0.00 | 0.00 | 93 | 1019.3 |
| 20260906114054 | 61 | 101 | 3.0 | 6.0 | 0.00 | 0.00 | 0.00 | 93 | 1019.3 |
| 20260906113926 | 61 | 101 | 3.0 | 6.0 | 0.00 | 0.00 | 0.00 | 93 | 1019.3 |
| 20260906113822 | 61 | 101 | 3.0 | 6.0 | 0.00 | 0.00 | 0.00 | 92 | 1019.3 |
| 20260906113735 | 61 | 51 | 3.0 | 6.0 | 0.00 | 0.00 | 0.00 | 92 | 1019.3 |
| 20260906113627 | 61 | 75 | 2.0 | 6.0 | 0.00 | 0.00 | 0.00 | 93 | 1019.3 |
| 20260906113538 | 61 | 75 | 2.0 | 6.0 | 0.00 | 0.00 | 0.00 | 92 | 1019.3 |
| 20260906113429 | 61 | 75 | 3.0 | 6.0 | 0.00 | 0.00 | 0.00 | 92 | 1019.3 |
| 20260906113321 | 61 | 72 | 3.0 | 6.0 | 0.00 | 0.00 | 0.00 | 93 | 1019.2 |
| 20260906113231 | 61 | 84 | 2.0 | 5.0 | 0.00 | 0.00 | 0.00 | 93 | 1019.3 |
| 20260906113152 | 61 | 73 | 2.0 | 5.0 | 0.00 | 0.00 | 0.00 | 93 | 1019.3 |
| 20260906113044 | 61 | 57 | 2.0 | 5.0 | 0.00 | 0.00 | 0.00 | 93 | 1019.3 |
| 20260906112957 | 61 | 57 | 3.0 | 5.0 | 0.00 | 0.00 | 0.00 | 93 | 1019.3 |
| 20260906112854 | 61 | 57 | 3.0 | 5.0 | 0.00 | 0.00 | 0.00 | 93 | 1019.3 |
| 20260906112724 | 61 | 61 | 3.0 | 5.0 | 0.00 | 0.00 | 0.00 | 93 | 1019.3 |
| 20260906112636 | 61 | 61 | 3.0 | 5.0 | 0.00 | 0.00 | 0.00 | 93 | 1019.3 |
| 20260906112527 | 61 | 62 | 2.0 | 5.0 | 0.00 | 0.00 | 0.00 | 93 | 1019.3 |
| 20260906112419 | 61 | 53 | 2.0 | 5.0 | 0.00 | 0.00 | 0.00 | 92 | 1019.2 |
| 20260906112329 | 61 | 52 | 2.0 | 5.0 | 0.00 | 0.00 | 0.00 | 92 | 1019.1 |
| 20260906112221 | 61 | 74 | 2.0 | 4.0 | 0.00 | 0.00 | 0.00 | 92 | 1019.0 |
| 20260906112134 | 61 | 74 | 2.0 | 4.0 | 0.00 | 0.00 | 0.00 | 92 | 1019.0 |
| 20260906112031 | 61 | 73 | 2.0 | 4.0 | 0.00 | 0.00 | 0.00 | 92 | 1018.9 |
| 20260906111923 | 61 | 73 | 2.0 | 4.0 | 0.00 | 0.00 | 0.00 | 92 | 1019.0 |
| 20260906111835 | 61 | 73 | 2.0 | 4.0 | 0.00 | 0.00 | 0.00 | 92 | 1018.9 |
| 20260906111727 | 61 | 73 | 2.0 | 4.0 | 0.00 | 0.00 | 0.00 | 92 | 1018.9 |
| 20260906111649 | 61 | 73 | 2.0 | 4.0 | 0.00 | 0.00 | 0.00 | 92 | 1018.9 |
| 20260906111541 | 61 | 73 | 2.0 | 4.0 | 0.00 | 0.00 | 0.00 | 92 | 1018.9 |
| 20260906111452 | 62 | 76 | 2.0 | 4.0 | 0.00 | 0.00 | 0.00 | 92 | 1018.9 |
| 20260906111343 | 62 | 76 | 2.0 | 4.0 | 0.00 | 0.00 | 0.00 | 92 | 1019.0 |
| 20260906111256 | 62 | 76 | 2.0 | 4.0 | 0.00 | 0.00 | 0.00 | 92 | 1018.9 |
| 20260906111127 | 62 | 76 | 2.0 | 5.0 | 0.00 | 0.00 | 0.00 | 92 | 1019.0 |
| 20260906111023 | 62 | 76 | 2.0 | 6.0 | 0.00 | 0.00 | 0.00 | 92 | 1019.0 |
| 20260906110935 | 62 | 103 | 2.0 | 6.0 | 0.00 | 0.00 | 0.00 | 92 | 1018.9 |
| 20260906110826 | 62 | 69 | 1.0 | 6.0 | 0.00 | 0.00 | 0.00 | 92 | 1019.0 |
| 20260906110737 | 62 | 69 | 2.0 | 6.0 | 0.00 | 0.00 | 0.00 | 92 | 1019.0 |
| 20260906110629 | 62 | 69 | 2.0 | 6.0 | 0.00 | 0.00 | 0.00 | 92 | 1018.9 |
| 20260906110522 | 62 | 69 | 2.0 | 6.0 | 0.00 | 0.00 | 0.00 | 92 | 1018.9 |
| 20260906110435 | 62 | 57 | 3.0 | 6.0 | 0.00 | 0.00 | 0.00 | 92 | 1019.0 |
| 20260906110347 | 62 | 84 | 3.0 | 6.0 | 0.00 | 0.00 | 0.00 | 92 | 1018.9 |
| 20260906110220 | 62 | 76 | 3.0 | 5.0 | 0.00 | 0.00 | 0.00 | 92 | 1018.8 |
| 20260906110143 | 62 | 76 | 3.0 | 5.0 | 0.00 | 0.00 | 0.00 | 92 | 1018.8 |
| 20260906110034 | 62 | 71 | 3.0 | 4.0 | 0.00 | 0.00 | 0.00 | 92 | 1018.9 |
| 20260906105925 | 62 | 76 | 1.0 | 4.0 | 0.00 | 0.00 | 0.00 | 92 | 1018.9 |
| 20260906105838 | 62 | 76 | 0.0 | 0.0 | 0.00 | 0.00 | 0.00 | 92 | 1018.9 |
| 20260906105730 | 62 | 76 | 0.0 | 0.0 | 0.00 | 0.00 | 0.00 | 92 | 1018.9 |
| 20260906105621 | 62 | 76 | 0.0 | 0.0 | 0.00 | 0.00 | 0.00 | 92 | 1018.9 |
| 20260906105533 | 62 | 76 | 0.0 | 0.0 | 0.00 | 0.00 | 0.00 | 92 | 1018.9 |
| 20260906105426 | 62 | 76 | 0.0 | 0.0 | 0.00 | 0.00 | 0.00 | 92 | 1019.0 |
| 20260906105337 | 62 | 76 | 0.0 | 0.0 | 0.00 | 0.00 | 0.00 | 92 | 1018.9 |
| 20260906105232 | 62 | 76 | 0.0 | 0.0 | 0.00 | 0.00 | 0.00 | 92 | 1018.9 |
| 20260906105124 | 62 | 76 | 0.0 | 0.0 | 0.00 | 0.00 | 0.00 | 92 | 1019.0 |
| 20260906105036 | 62 | 76 | 0.0 | 0.0 | 0.00 | 0.00 | 0.00 | 92 | 1018.9 |
| 20260906104929 | 62 | 76 | 0.0 | 0.0 | 0.00 | 0.00 | 0.00 | 92 | 1019.0 |
| 20260906104821 | 62 | 76 | 0.0 | 0.0 | 0.00 | 0.00 | 0.00 | 92 | 1019.0 |
| 20260906104732 | 62 | 76 | 0.0 | 0.0 | 0.00 | 0.00 | 0.00 | 92 | 1018.9 |
| 20260906104655 | 62 | 76 | 0.0 | 0.0 | 0.00 | 0.00 | 0.00 | 92 | 1018.9 |
| 20260906104548 | 63 | 76 | 0.0 | 3.0 | 0.00 | 0.00 | 0.00 | 92 | 1018.9 |
| 20260906104438 | 63 | 76 | 0.0 | 3.0 | 0.00 | 0.00 | 0.00 | 92 | 1018.9 |
| 20260906104332 | 63 | 76 | 0.0 | 3.0 | 0.00 | 0.00 | 0.00 | 92 | 1018.9 |
| 20260906104224 | 63 | 76 | 0.0 | 3.0 | 0.00 | 0.00 | 0.00 | 92 | 1019.0 |
| 20260906104137 | 63 | 76 | 0.0 | 3.0 | 0.00 | 0.00 | 0.00 | 92 | 1019.0 |
| 20260906104047 | 63 | 76 | 0.0 | 3.0 | 0.00 | 0.00 | 0.00 | 91 | 1018.9 |
| 20260906103919 | 63 | 76 | 0.0 | 3.0 | 0.00 | 0.00 | 0.00 | 91 | 1019.0 |
| 20260906103831 | 63 | 76 | 1.0 | 3.0 | 0.00 | 0.00 | 0.00 | 91 | 1018.9 |
| 20260906103743 | 63 | 76 | 2.0 | 3.0 | 0.00 | 0.00 | 0.00 | 91 | 1019.0 |
| 20260906103635 | 63 | 76 | 2.0 | 3.0 | 0.00 | 0.00 | 0.00 | 92 | 1019.0 |
| 20260906103547 | 63 | 76 | 2.0 | 3.0 | 0.00 | 0.00 | 0.00 | 92 | 1018.9 |
| 20260906103458 | 63 | 76 | 2.0 | 3.0 | 0.00 | 0.00 | 0.00 | 92 | 1018.9 |
| 20260906103332 | 63 | 76 | 2.0 | 3.0 | 0.00 | 0.00 | 0.00 | 91 | 1018.8 |
| 20260906103221 | 63 | 76 | 2.0 | 3.0 | 0.00 | 0.00 | 0.00 | 91 | 1018.9 |
| 20260906103141 | 63 | 76 | 2.0 | 3.0 | 0.00 | 0.00 | 0.00 | 91 | 1018.8 |
| 20260906103033 | 63 | 76 | 2.0 | 3.0 | 0.00 | 0.00 | 0.00 | 91 | 1018.8 |
| 20260906102925 | 63 | 76 | 2.0 | 6.0 | 0.00 | 0.00 | 0.00 | 91 | 1018.7 |
| 20260906102837 | 63 | 76 | 2.0 | 6.0 | 0.00 | 0.00 | 0.00 | 91 | 1018.7 |
| 20260906102729 | 63 | 76 | 2.0 | 6.0 | 0.00 | 0.00 | 0.00 | 91 | 1018.7 |
| 20260906102642 | 63 | 101 | 2.0 | 6.0 | 0.00 | 0.00 | 0.00 | 91 | 1018.7 |
| 20260906102533 | 63 | 101 | 2.0 | 6.0 | 0.00 | 0.00 | 0.00 | 92 | 1018.6 |
| 20260906102429 | 63 | 101 | 2.0 | 6.0 | 0.00 | 0.00 | 0.00 | 92 | 1018.7 |
| 20260906102342 | 63 | 101 | 3.0 | 6.0 | 0.00 | 0.00 | 0.00 | 92 | 1018.7 |
| 20260906102233 | 63 | 101 | 3.0 | 6.0 | 0.00 | 0.00 | 0.00 | 92 | 1018.5 |
| 20260906102126 | 63 | 106 | 2.0 | 5.0 | 0.00 | 0.00 | 0.00 | 91 | 1018.6 |
| 20260906102038 | 63 | 103 | 1.0 | 4.0 | 0.00 | 0.00 | 0.00 | 91 | 1018.6 |
| 20260906101930 | 63 | 78 | 1.0 | 4.0 | 0.00 | 0.00 | 0.00 | 91 | 1018.6 |
| 20260906101822 | 63 | 78 | 1.0 | 4.0 | 0.00 | 0.00 | 0.00 | 91 | 1018.7 |
| 20260906101735 | 63 | 78 | 2.0 | 4.0 | 0.00 | 0.00 | 0.00 | 91 | 1018.7 |
| 20260906101659 | 63 | 78 | 2.0 | 4.0 | 0.00 | 0.00 | 0.00 | 91 | 1018.7 |
| 20260906101533 | 63 | 78 | 2.0 | 4.0 | 0.00 | 0.00 | 0.00 | 91 | 1018.6 |
| 20260906101426 | 63 | 67 | 2.0 | 4.0 | 0.00 | 0.00 | 0.00 | 91 | 1018.7 |
| 20260906101339 | 63 | 87 | 2.0 | 4.0 | 0.00 | 0.00 | 0.00 | 91 | 1018.7 |
| 20260906101231 | 63 | 87 | 2.0 | 4.0 | 0.00 | 0.00 | 0.00 | 91 | 1018.6 |
| 20260906101144 | 63 | 87 | 2.0 | 4.0 | 0.00 | 0.00 | 0.00 | 91 | 1018.5 |
| 20260906101057 | 63 | 87 | 2.0 | 4.0 | 0.00 | 0.00 | 0.00 | 91 | 1018.5 |
| 20260906101009 | 63 | 87 | 1.0 | 4.0 | 0.00 | 0.00 | 0.00 | 91 | 1018.6 |
| 20260906100859 | 63 | 87 | 2.0 | 4.0 | 0.00 | 0.00 | 0.00 | 91 | 1018.6 |
| 20260906100731 | 63 | 87 | 2.0 | 4.0 | 0.00 | 0.00 | 0.00 | 91 | 1018.6 |
| 20260906100643 | 63 | 95 | 2.0 | 4.0 | 0.00 | 0.00 | 0.00 | 91 | 1018.6 |
| 20260906100536 | 63 | 95 | 2.0 | 4.0 | 0.00 | 0.00 | 0.00 | 91 | 1018.5 |
| 20260906100428 | 63 | 63 | 1.0 | 3.0 | 0.00 | 0.00 | 0.00 | 91 | 1018.5 |
| 20260906100321 | 63 | 63 | 1.0 | 3.0 | 0.00 | 0.00 | 0.00 | 91 | 1018.5 |
| 20260906100231 | 63 | 63 | 2.0 | 3.0 | 0.00 | 0.01 | 0.00 | 91 | 1018.5 |
| 20260906100153 | 63 | 63 | 2.0 | 3.0 | 0.00 | 0.01 | 0.00 | 91 | 1018.5 |
| 20260906100024 | 63 | 63 | 1.0 | 3.0 | 0.00 | 0.01 | 0.00 | 91 | 1018.5 |
| 20260906095935 | 63 | 63 | 1.0 | 3.0 | 0.00 | 0.01 | 0.00 | 90 | 1018.5 |
| 20260906095847 | 63 | 63 | 1.0 | 3.0 | 0.00 | 0.01 | 0.00 | 90 | 1018.4 |
| 20260906095738 | 63 | 63 | 1.0 | 3.0 | 0.00 | 0.01 | 0.00 | 90 | 1018.4 |
| 20260906095649 | 63 | 63 | 1.0 | 3.0 | 0.00 | 0.01 | 0.00 | 90 | 1018.4 |
| 20260906095525 | 63 | 63 | 1.0 | 3.0 | 0.00 | 0.01 | 0.00 | 90 | 1018.4 |
| 20260906095419 | 63 | 63 | 1.0 | 3.0 | 0.00 | 0.01 | 0.00 | 90 | 1018.4 |
| 20260906095330 | 63 | 63 | 1.0 | 3.0 | 0.00 | 0.01 | 0.00 | 90 | 1018.4 |
| 20260906095223 | 63 | 63 | 1.0 | 3.0 | 0.00 | 0.01 | 0.00 | 90 | 1018.4 |
| 20260906095134 | 63 | 63 | 1.0 | 3.0 | 0.00 | 0.01 | 0.00 | 90 | 1018.4 |
| 20260906095046 | 63 | 63 | 1.0 | 3.0 | 0.00 | 0.01 | 0.00 | 90 | 1018.4 |
| 20260906094959 | 63 | 63 | 2.0 | 3.0 | 0.00 | 0.01 | 0.00 | 90 | 1018.4 |
| 20260906094831 | 63 | 63 | 2.0 | 3.0 | 0.00 | 0.01 | 0.00 | 90 | 1018.4 |
| 20260906094734 | 63 | 63 | 2.0 | 3.0 | 0.00 | 0.01 | 0.00 | 90 | 1018.4 |
| 20260906094640 | 63 | 63 | 2.0 | 3.0 | 0.00 | 0.01 | 0.00 | 90 | 1018.4 |
| 20260906094532 | 63 | 63 | 2.0 | 3.0 | 0.00 | 0.01 | 0.00 | 90 | 1018.4 |
| 20260906094422 | 63 | 63 | 1.0 | 2.0 | 0.00 | 0.01 | 0.00 | 90 | 1018.4 |
| 20260906094335 | 63 | 63 | 1.0 | 2.0 | 0.00 | 0.01 | 0.00 | 90 | 1018.4 |
| 20260906094227 | 64 | 63 | 1.0 | 2.0 | 0.00 | 0.01 | 0.00 | 89 | 1018.4 |
| 20260906094119 | 64 | 63 | 1.0 | 3.0 | 0.00 | 0.01 | 0.00 | 89 | 1018.4 |
| 20260906094032 | 64 | 63 | 1.0 | 3.0 | 0.00 | 0.01 | 0.00 | 89 | 1018.3 |
| 20260906093943 | 64 | 63 | 1.0 | 3.0 | 0.00 | 0.01 | 0.00 | 89 | 1018.3 |
| 20260906093855 | 64 | 63 | 1.0 | 3.0 | 0.00 | 0.01 | 0.00 | 89 | 1018.4 |
| 20260906093730 | 64 | 63 | 1.0 | 3.0 | 0.00 | 0.01 | 0.00 | 89 | 1018.4 |
| 20260906093642 | 64 | 63 | 1.0 | 3.0 | 0.00 | 0.01 | 0.00 | 89 | 1018.3 |
| 20260906093534 | 64 | 63 | 1.0 | 3.0 | 0.00 | 0.01 | 0.00 | 89 | 1018.4 |
| 20260906093426 | 64 | 63 | 2.0 | 3.0 | 0.00 | 0.01 | 0.00 | 89 | 1018.4 |
| 20260906093337 | 64 | 63 | 2.0 | 3.0 | 0.00 | 0.01 | 0.00 | 89 | 1018.4 |
| 20260906093248 | 64 | 63 | 2.0 | 3.0 | 0.00 | 0.01 | 0.00 | 89 | 1018.4 |
| 20260906093211 | 64 | 63 | 2.0 | 3.0 | 0.00 | 0.01 | 0.00 | 89 | 1018.4 |
| 20260906093042 | 64 | 63 | 2.0 | 3.0 | 0.00 | 0.01 | 0.00 | 89 | 1018.3 |
| 20260906092954 | 64 | 63 | 2.0 | 3.0 | 0.00 | 0.01 | 0.00 | 89 | 1018.4 |
| 20260906092825 | 64 | 63 | 2.0 | 3.0 | 0.00 | 0.01 | 0.00 | 89 | 1018.4 |
| 20260906092721 | 64 | 63 | 2.0 | 3.0 | 0.00 | 0.01 | 0.00 | 89 | 1018.4 |
| 20260906092632 | 64 | 63 | 2.0 | 3.0 | 0.00 | 0.01 | 0.00 | 89 | 1018.3 |
| 20260906092525 | 64 | 63 | 2.0 | 3.0 | 0.00 | 0.01 | 0.00 | 88 | 1018.4 |
| 20260906092436 | 64 | 63 | 2.0 | 4.0 | 0.00 | 0.01 | 0.00 | 88 | 1018.4 |
| 20260906092328 | 64 | 63 | 2.0 | 4.0 | 0.00 | 0.01 | 0.00 | 88 | 1018.3 |
| 20260906092240 | 64 | 63 | 2.0 | 4.0 | 0.00 | 0.01 | 0.00 | 88 | 1018.3 |
| 20260906092152 | 64 | 63 | 2.0 | 4.0 | 0.00 | 0.01 | 0.00 | 88 | 1018.3 |
| 20260906092043 | 64 | 63 | 2.0 | 4.0 | 0.00 | 0.01 | 0.00 | 88 | 1018.3 |
| 20260906091934 | 64 | 63 | 2.0 | 4.0 | 0.00 | 0.01 | 0.00 | 88 | 1018.3 |
| 20260906091827 | 64 | 63 | 2.0 | 4.0 | 0.00 | 0.01 | 0.00 | 88 | 1018.3 |
| 20260906091724 | 64 | 63 | 3.0 | 4.0 | 0.00 | 0.01 | 0.00 | 88 | 1018.3 |
| 20260906091646 | 64 | 54 | 2.0 | 4.0 | 0.00 | 0.01 | 0.00 | 88 | 1018.3 |
| 20260906091538 | 64 | 45 | 2.0 | 4.0 | 0.00 | 0.01 | 0.00 | 88 | 1018.4 |
| 20260906091431 | 65 | 67 | 2.0 | 4.0 | 0.00 | 0.01 | 0.00 | 88 | 1018.3 |
| 20260906091344 | 65 | 67 | 2.0 | 4.0 | 0.00 | 0.01 | 0.00 | 88 | 1018.4 |
| 20260906091256 | 65 | 67 | 2.0 | 4.0 | 0.00 | 0.01 | 0.00 | 88 | 1018.4 |
| 20260906091127 | 65 | 69 | 2.0 | 4.0 | 0.00 | 0.01 | 0.00 | 88 | 1018.4 |
| 20260906091019 | 65 | 69 | 2.0 | 4.0 | 0.00 | 0.01 | 0.00 | 88 | 1018.3 |
| 20260906090930 | 65 | 71 | 2.0 | 4.0 | 0.00 | 0.01 | 0.00 | 88 | 1018.4 |
| 20260906090827 | 65 | 82 | 2.0 | 4.0 | 0.00 | 0.01 | 0.00 | 88 | 1018.3 |
| 20260906090719 | 65 | 82 | 1.0 | 4.0 | 0.00 | 0.01 | 0.00 | 88 | 1018.4 |
| 20260906090631 | 65 | 82 | 2.0 | 4.0 | 0.00 | 0.01 | 0.00 | 88 | 1018.4 |
| 20260906090524 | 65 | 82 | 3.0 | 4.0 | 0.00 | 0.01 | 0.00 | 88 | 1018.3 |
| 20260906090436 | 65 | 88 | 2.0 | 4.0 | 0.00 | 0.01 | 0.00 | 88 | 1018.3 |
| 20260906090328 | 65 | 65 | 1.0 | 4.0 | 0.00 | 0.01 | 0.00 | 88 | 1018.3 |
| 20260906090219 | 65 | 65 | 2.0 | 4.0 | 0.00 | 0.01 | 0.00 | 88 | 1018.3 |
| 20260906090140 | 65 | 65 | 2.0 | 4.0 | 0.00 | 0.01 | 0.00 | 88 | 1018.3 |
| 20260906090036 | 65 | 90 | 2.0 | 4.0 | 0.00 | 0.01 | 0.00 | 88 | 1018.3 |
| 20260906085947 | 65 | 73 | 1.0 | 4.0 | 0.00 | 0.01 | 0.00 | 88 | 1018.3 |
| 20260906085837 | 65 | 90 | 1.0 | 4.0 | 0.00 | 0.01 | 0.00 | 88 | 1018.3 |
| 20260906085750 | 65 | 42 | 2.0 | 4.0 | 0.00 | 0.01 | 0.00 | 88 | 1018.3 |
| 20260906085642 | 65 | 90 | 2.0 | 4.0 | 0.00 | 0.01 | 0.00 | 88 | 1018.3 |
| 20260906085555 | 65 | 96 | 2.0 | 4.0 | 0.00 | 0.01 | 0.00 | 88 | 1018.3 |
| 20260906085445 | 65 | 93 | 2.0 | 6.0 | 0.00 | 0.01 | 0.00 | 88 | 1018.3 |
| 20260906085337 | 65 | 93 | 3.0 | 6.0 | 0.00 | 0.01 | 0.00 | 88 | 1018.3 |
| 20260906085229 | 65 | 82 | 2.0 | 6.0 | 0.00 | 0.01 | 0.00 | 88 | 1018.3 |
| 20260906085122 | 65 | 90 | 1.0 | 6.0 | 0.00 | 0.01 | 0.00 | 88 | 1018.2 |
| 20260906085033 | 65 | 90 | 2.0 | 6.0 | 0.00 | 0.01 | 0.00 | 88 | 1018.3 |
| 20260906084948 | 65 | 90 | 3.0 | 6.0 | 0.00 | 0.01 | 0.00 | 88 | 1018.2 |
| 20260906084900 | 65 | 77 | 2.0 | 6.0 | 0.00 | 0.01 | 0.00 | 88 | 1018.2 |
| 20260906084752 | 65 | 102 | 3.0 | 6.0 | 0.00 | 0.01 | 0.00 | 88 | 1018.2 |
| 20260906084653 | 65 | 86 | 3.0 | 6.0 | 0.00 | 0.01 | 0.00 | 88 | 1018.2 |
| 20260906084524 | 65 | 66 | 2.0 | 6.0 | 0.00 | 0.01 | 0.00 | 88 | 1018.3 |
| 20260906084435 | 65 | 70 | 2.0 | 6.0 | 0.00 | 0.01 | 0.00 | 88 | 1018.3 |
| 20260906084347 | 65 | 111 | 2.0 | 6.0 | 0.00 | 0.01 | 0.00 | 88 | 1018.2 |
| 20260906084259 | 65 | 111 | 3.0 | 8.0 | 0.00 | 0.01 | 0.00 | 88 | 1018.2 |
| 20260906084210 | 65 | 74 | 2.0 | 8.0 | 0.00 | 0.01 | 0.00 | 88 | 1018.2 |
| 20260906084122 | 65 | 96 | 1.0 | 8.0 | 0.00 | 0.01 | 0.00 | 88 | 1018.2 |
| 20260906084013 | 65 | 76 | 2.0 | 8.0 | 0.00 | 0.01 | 0.00 | 88 | 1018.2 |
| 20260906083904 | 65 | 76 | 2.0 | 8.0 | 0.00 | 0.01 | 0.00 | 88 | 1018.2 |
| 20260906083738 | 65 | 100 | 1.0 | 8.0 | 0.00 | 0.01 | 0.00 | 88 | 1018.1 |
| 20260906083630 | 65 | 103 | 3.0 | 8.0 | 0.00 | 0.01 | 0.00 | 88 | 1018.1 |
| 20260906083522 | 65 | 103 | 4.0 | 8.0 | 0.00 | 0.01 | 0.00 | 88 | 1018.1 |
| 20260906083433 | 65 | 103 | 3.0 | 7.0 | 0.00 | 0.01 | 0.00 | 88 | 1018.1 |
| 20260906083232 | 65 | 85 | 3.0 | 8.0 | 0.00 | 0.01 | 0.00 | 88 | 1018.1 |
| 20260906083154 | 65 | 109 | 3.0 | 8.0 | 0.00 | 0.01 | 0.00 | 88 | 1018.1 |
| 20260906083025 | 65 | 102 | 3.0 | 8.0 | 0.00 | 0.01 | 0.00 | 88 | 1018.0 |
| 20260906082937 | 65 | 101 | 3.0 | 8.0 | 0.00 | 0.01 | 0.00 | 88 | 1018.1 |
| 20260906082829 | 65 | 94 | 5.0 | 8.0 | 0.00 | 0.01 | 0.00 | 88 | 1018.0 |
| 20260906082745 | 65 | 84 | 4.0 | 8.0 | 0.00 | 0.01 | 0.00 | 88 | 1018.0 |
| 20260906082657 | 65 | 105 | 4.0 | 8.0 | 0.00 | 0.01 | 0.00 | 89 | 1018.0 |
| 20260906082548 | 65 | 111 | 4.0 | 8.0 | 0.00 | 0.01 | 0.00 | 89 | 1018.0 |
| 20260906082438 | 65 | 115 | 4.0 | 8.0 | 0.00 | 0.01 | 0.00 | 89 | 1018.0 |
| 20260906082349 | 65 | 93 | 4.0 | 8.0 | 0.00 | 0.01 | 0.00 | 89 | 1018.0 |
| 20260906082221 | 65 | 96 | 4.0 | 8.0 | 0.00 | 0.01 | 0.00 | 89 | 1018.0 |
| 20260906082133 | 65 | 90 | 5.0 | 8.0 | 0.00 | 0.01 | 0.00 | 89 | 1018.0 |
| 20260906082045 | 65 | 93 | 5.0 | 8.0 | 0.00 | 0.01 | 0.00 | 89 | 1017.9 |
| 20260906081937 | 65 | 91 | 5.0 | 8.0 | 0.00 | 0.01 | 0.00 | 89 | 1017.9 |
| 20260906081829 | 65 | 111 | 4.0 | 8.0 | 0.00 | 0.01 | 0.00 | 89 | 1017.9 |
| 20260906081725 | 65 | 97 | 4.0 | 8.0 | 0.00 | 0.01 | 0.00 | 89 | 1018.0 |
| 20260906081647 | 65 | 76 | 4.0 | 8.0 | 0.00 | 0.01 | 0.00 | 89 | 1017.9 |
| 20260906081536 | 65 | 111 | 4.0 | 8.0 | 0.00 | 0.01 | 0.00 | 89 | 1017.9 |
| 20260906081427 | 65 | 124 | 4.0 | 7.0 | 0.00 | 0.01 | 0.00 | 89 | 1017.9 |
| 20260906081339 | 65 | 81 | 4.0 | 7.0 | 0.00 | 0.01 | 0.00 | 89 | 1018.0 |
| 20260906081229 | 65 | 115 | 4.0 | 7.0 | 0.00 | 0.01 | 0.00 | 89 | 1017.9 |
| 20260906081142 | 65 | 119 | 4.0 | 7.0 | 0.00 | 0.01 | 0.00 | 89 | 1017.9 |
| 20260906081034 | 66 | 121 | 4.0 | 7.0 | 0.00 | 0.01 | 0.00 | 89 | 1017.9 |
| 20260906080927 | 66 | 94 | 3.0 | 7.0 | 0.00 | 0.01 | 0.00 | 89 | 1017.9 |
| 20260906080822 | 66 | 98 | 3.0 | 7.0 | 0.00 | 0.01 | 0.00 | 89 | 1017.9 |
| 20260906080734 | 66 | 98 | 4.0 | 7.0 | 0.00 | 0.01 | 0.00 | 89 | 1017.9 |
| 20260906080646 | 66 | 131 | 5.0 | 7.0 | 0.00 | 0.01 | 0.00 | 89 | 1017.9 |
| 20260906080538 | 66 | 104 | 5.0 | 7.0 | 0.00 | 0.01 | 0.00 | 89 | 1017.9 |
| 20260906080449 | 66 | 93 | 4.0 | 7.0 | 0.00 | 0.01 | 0.00 | 89 | 1017.9 |
| 20260906080340 | 66 | 112 | 4.0 | 7.0 | 0.00 | 0.01 | 0.00 | 90 | 1017.9 |
| 20260906080230 | 66 | 101 | 4.0 | 6.0 | 0.00 | 0.01 | 0.00 | 90 | 1018.0 |
| 20260906080151 | 66 | 98 | 3.0 | 6.0 | 0.00 | 0.01 | 0.00 | 90 | 1018.0 |
| 20260906080022 | 66 | 103 | 4.0 | 6.0 | 0.00 | 0.01 | 0.00 | 89 | 1018.0 |
| 20260906075934 | 66 | 95 | 4.0 | 8.0 | 0.00 | 0.01 | 0.00 | 89 | 1018.0 |
| 20260906075846 | 66 | 105 | 3.0 | 8.0 | 0.00 | 0.01 | 0.00 | 89 | 1018.0 |
| 20260906075741 | 66 | 107 | 2.0 | 8.0 | 0.00 | 0.01 | 0.00 | 89 | 1018.0 |
| 20260906075632 | 66 | 66 | 3.0 | 8.0 | 0.00 | 0.01 | 0.00 | 89 | 1018.0 |
| 20260906075525 | 66 | 110 | 4.0 | 8.0 | 0.00 | 0.01 | 0.00 | 89 | 1018.0 |
| 20260906075436 | 66 | 112 | 4.0 | 8.0 | 0.00 | 0.01 | 0.00 | 89 | 1018.0 |
| 20260906075328 | 66 | 96 | 3.0 | 8.0 | 0.00 | 0.01 | 0.00 | 89 | 1018.0 |
| 20260906075220 | 66 | 115 | 4.0 | 8.0 | 0.00 | 0.01 | 0.00 | 89 | 1017.9 |
| 20260906075132 | 66 | 98 | 4.0 | 8.0 | 0.00 | 0.01 | 0.00 | 89 | 1017.9 |
| 20260906075025 | 66 | 88 | 3.0 | 7.0 | 0.00 | 0.01 | 0.00 | 89 | 1017.9 |
| 20260906074921 | 66 | 94 | 3.0 | 7.0 | 0.00 | 0.01 | 0.00 | 89 | 1017.9 |
| 20260906074833 | 66 | 94 | 2.0 | 7.0 | 0.00 | 0.01 | 0.00 | 89 | 1017.9 |
| 20260906074725 | 66 | 108 | 2.0 | 7.0 | 0.00 | 0.01 | 0.00 | 89 | 1017.9 |
| 20260906074646 | 66 | 108 | 3.0 | 7.0 | 0.00 | 0.01 | 0.00 | 89 | 1017.8 |
| 20260906074537 | 66 | 92 | 3.0 | 7.0 | 0.00 | 0.01 | 0.00 | 89 | 1017.8 |
| 20260906074429 | 66 | 103 | 4.0 | 7.0 | 0.00 | 0.01 | 0.00 | 89 | 1017.7 |
| 20260906074341 | 66 | 110 | 4.0 | 7.0 | 0.00 | 0.01 | 0.00 | 89 | 1017.8 |
| 20260906074233 | 66 | 116 | 4.0 | 7.0 | 0.00 | 0.01 | 0.00 | 89 | 1017.7 |
| 20260906074144 | 66 | 105 | 5.0 | 7.0 | 0.00 | 0.01 | 0.00 | 89 | 1017.8 |
| 20260906074057 | 66 | 101 | 4.0 | 7.0 | 0.00 | 0.01 | 0.00 | 89 | 1017.7 |
| 20260906073931 | 66 | 130 | 3.0 | 6.0 | 0.00 | 0.01 | 0.00 | 89 | 1017.8 |
| 20260906073824 | 66 | 119 | 3.0 | 7.0 | 0.00 | 0.01 | 0.00 | 89 | 1017.8 |
| 20260906073736 | 66 | 98 | 3.0 | 7.0 | 0.00 | 0.01 | 0.00 | 89 | 1017.8 |
| 20260906073627 | 66 | 101 | 2.0 | 7.0 | 0.00 | 0.01 | 0.00 | 89 | 1017.8 |
| 20260906073519 | 66 | 105 | 2.0 | 7.0 | 0.00 | 0.01 | 0.00 | 89 | 1017.8 |
| 20260906073431 | 66 | 105 | 2.0 | 7.0 | 0.00 | 0.01 | 0.00 | 89 | 1017.8 |
| 20260906073323 | 66 | 92 | 2.0 | 7.0 | 0.00 | 0.01 | 0.00 | 89 | 1017.7 |
| 20260906073234 | 66 | 94 | 3.0 | 7.0 | 0.00 | 0.01 | 0.00 | 89 | 1017.7 |
| 20260906073158 | 66 | 94 | 3.0 | 7.0 | 0.00 | 0.01 | 0.00 | 89 | 1017.7 |
| 20260906073053 | 66 | 93 | 4.0 | 7.0 | 0.00 | 0.01 | 0.00 | 89 | 1017.7 |
| 20260906072924 | 66 | 107 | 4.0 | 9.0 | 0.00 | 0.01 | 0.00 | 89 | 1017.7 |
| 20260906072836 | 66 | 95 | 4.0 | 9.0 | 0.00 | 0.01 | 0.00 | 88 | 1017.7 |
| 20260906072728 | 66 | 123 | 5.0 | 9.0 | 0.00 | 0.01 | 0.00 | 88 | 1017.7 |
| 20260906072621 | 66 | 95 | 4.0 | 9.0 | 0.00 | 0.01 | 0.00 | 88 | 1017.7 |
| 20260906072533 | 67 | 90 | 4.0 | 9.0 | 0.00 | 0.01 | 0.00 | 88 | 1017.7 |
| 20260906072425 | 67 | 110 | 4.0 | 9.0 | 0.00 | 0.01 | 0.00 | 88 | 1017.6 |
| 20260906072337 | 67 | 133 | 5.0 | 9.0 | 0.00 | 0.01 | 0.00 | 88 | 1017.7 |
| 20260906072232 | 67 | 96 | 6.0 | 9.0 | 0.00 | 0.01 | 0.00 | 88 | 1017.6 |
| 20260906072125 | 67 | 117 | 6.0 | 9.0 | 0.00 | 0.01 | 0.00 | 88 | 1017.7 |
| 20260906072037 | 67 | 118 | 5.0 | 8.0 | 0.00 | 0.01 | 0.00 | 88 | 1017.7 |
| 20260906071929 | 67 | 113 | 5.0 | 8.0 | 0.00 | 0.01 | 0.00 | 88 | 1017.7 |
| 20260906071842 | 67 | 123 | 5.0 | 8.0 | 0.00 | 0.01 | 0.00 | 88 | 1017.7 |
| 20260906071732 | 67 | 128 | 5.0 | 8.0 | 0.00 | 0.01 | 0.00 | 88 | 1017.7 |
| 20260906071655 | 67 | 116 | 4.0 | 8.0 | 0.00 | 0.01 | 0.00 | 88 | 1017.7 |
| 20260906071525 | 67 | 132 | 4.0 | 11.0 | 0.00 | 0.01 | 0.00 | 88 | 1017.8 |
| 20260906071437 | 67 | 124 | 4.0 | 11.0 | 0.00 | 0.01 | 0.00 | 88 | 1017.8 |
| 20260906071333 | 67 | 107 | 6.0 | 11.0 | 0.00 | 0.01 | 0.00 | 88 | 1017.7 |
| 20260906071225 | 67 | 106 | 5.0 | 11.0 | 0.00 | 0.01 | 0.00 | 88 | 1017.8 |
| 20260906071137 | 67 | 127 | 5.0 | 11.0 | 0.00 | 0.01 | 0.00 | 88 | 1017.8 |
| 20260906071028 | 67 | 101 | 4.0 | 11.0 | 0.00 | 0.01 | 0.00 | 88 | 1017.7 |
| 20260906070940 | 67 | 129 | 6.0 | 11.0 | 0.00 | 0.01 | 0.00 | 87 | 1017.8 |
| 20260906070831 | 67 | 119 | 8.0 | 11.0 | 0.00 | 0.01 | 0.00 | 87 | 1017.8 |
| 20260906070723 | 67 | 124 | 6.0 | 11.0 | 0.00 | 0.01 | 0.00 | 87 | 1017.8 |
| 20260906070635 | 67 | 115 | 5.0 | 10.0 | 0.00 | 0.01 | 0.00 | 87 | 1017.9 |
| 20260906070546 | 67 | 101 | 5.0 | 10.0 | 0.00 | 0.01 | 0.00 | 87 | 1017.8 |
| 20260906070422 | 67 | 105 | 6.0 | 10.0 | 0.00 | 0.01 | 0.00 | 87 | 1017.9 |
| 20260906070334 | 67 | 119 | 5.0 | 10.0 | 0.00 | 0.01 | 0.00 | 87 | 1017.9 |
| 20260906070245 | 67 | 111 | 5.0 | 10.0 | 0.00 | 0.05 | 0.00 | 87 | 1017.9 |
| 20260906070207 | 67 | 79 | 5.0 | 10.0 | 0.00 | 0.05 | 0.00 | 87 | 1017.9 |
| 20260906070037 | 67 | 113 | 6.0 | 10.0 | 0.00 | 0.05 | 0.00 | 88 | 1017.9 |
| 20260906065929 | 67 | 113 | 5.0 | 11.0 | 0.00 | 0.05 | 0.00 | 88 | 1018.0 |
| 20260906065840 | 67 | 113 | 6.0 | 11.0 | 0.00 | 0.05 | 0.00 | 88 | 1017.9 |
| 20260906065732 | 67 | 103 | 6.0 | 11.0 | 0.00 | 0.05 | 0.00 | 88 | 1017.9 |
| 20260906065623 | 67 | 109 | 6.0 | 11.0 | 0.00 | 0.05 | 0.00 | 88 | 1018.0 |
| 20260906065535 | 67 | 85 | 6.0 | 11.0 | 0.00 | 0.05 | 0.00 | 88 | 1017.9 |
| 20260906065431 | 67 | 113 | 7.0 | 11.0 | 0.00 | 0.05 | 0.00 | 88 | 1017.9 |
| 20260906065344 | 67 | 119 | 7.0 | 11.0 | 0.00 | 0.05 | 0.00 | 88 | 1017.9 |
| 20260906065255 | 67 | 96 | 8.0 | 11.0 | 0.00 | 0.05 | 0.00 | 88 | 1017.9 |
| 20260906065207 | 67 | 112 | 6.0 | 11.0 | 0.00 | 0.05 | 0.00 | 88 | 1017.9 |
| 20260906065119 | 67 | 93 | 6.0 | 11.0 | 0.00 | 0.05 | 0.00 | 88 | 1017.9 |
| 20260906065011 | 67 | 85 | 7.0 | 11.0 | 0.00 | 0.05 | 0.00 | 88 | 1017.9 |
| 20260906064901 | 67 | 84 | 7.0 | 10.0 | 0.00 | 0.05 | 0.00 | 88 | 1017.9 |
| 20260906064814 | 67 | 75 | 6.0 | 10.0 | 0.00 | 0.05 | 0.00 | 88 | 1017.9 |
| 20260906064716 | 67 | 123 | 5.0 | 12.0 | 0.00 | 0.05 | 0.00 | 88 | 1017.9 |
| 20260906064526 | 67 | 105 | 6.0 | 12.0 | 0.00 | 0.05 | 0.00 | 88 | 1018.0 |
| 20260906064419 | 67 | 113 | 7.0 | 12.0 | 0.00 | 0.05 | 0.00 | 88 | 1018.0 |
| 20260906064336 | 67 | 115 | 6.0 | 12.0 | 0.00 | 0.05 | 0.00 | 88 | 1018.0 |
| 20260906064247 | 67 | 120 | 5.0 | 12.0 | 0.00 | 0.05 | 0.00 | 89 | 1018.0 |
| 20260906064159 | 67 | 86 | 7.0 | 12.0 | 0.00 | 0.05 | 0.00 | 89 | 1018.0 |
| 20260906064049 | 67 | 121 | 8.0 | 12.0 | 0.00 | 0.05 | 0.00 | 89 | 1018.0 |
| 20260906063920 | 67 | 84 | 8.0 | 12.0 | 0.00 | 0.05 | 0.00 | 89 | 1018.1 |
| 20260906063831 | 67 | 116 | 7.0 | 11.0 | 0.00 | 0.05 | 0.00 | 89 | 1018.1 |
| 20260906063722 | 67 | 121 | 6.0 | 11.0 | 0.00 | 0.05 | 0.00 | 89 | 1018.0 |
| 20260906063634 | 67 | 107 | 7.0 | 11.0 | 0.00 | 0.05 | 0.00 | 89 | 1018.0 |
| 20260906063527 | 67 | 107 | 6.0 | 11.0 | 0.00 | 0.05 | 0.00 | 89 | 1018.0 |
| 20260906063422 | 67 | 89 | 4.0 | 9.0 | 0.00 | 0.05 | 0.00 | 89 | 1018.0 |
| 20260906063334 | 67 | 87 | 5.0 | 9.0 | 0.00 | 0.05 | 0.00 | 89 | 1018.0 |
| 20260906063244 | 67 | 109 | 5.0 | 10.0 | 0.00 | 0.05 | 0.00 | 89 | 1018.0 |
| 20260906063145 | 67 | 89 | 5.0 | 10.0 | 0.00 | 0.05 | 0.00 | 89 | 1018.0 |
| 20260906063037 | 67 | 112 | 5.0 | 10.0 | 0.00 | 0.05 | 0.00 | 89 | 1018.0 |
| 20260906062949 | 67 | 106 | 5.0 | 13.0 | 0.00 | 0.05 | 0.00 | 89 | 1018.0 |
| 20260906062902 | 67 | 76 | 4.0 | 13.0 | 0.00 | 0.05 | 0.00 | 89 | 1018.0 |
| 20260906062753 | 67 | 96 | 4.0 | 13.0 | 0.00 | 0.05 | 0.00 | 89 | 1018.0 |
| 20260906062643 | 68 | 103 | 5.0 | 13.0 | 0.00 | 0.05 | 0.00 | 90 | 1018.0 |
| 20260906062555 | 68 | 94 | 6.0 | 13.0 | 0.00 | 0.05 | 0.00 | 90 | 1017.9 |
| 20260906062426 | 68 | 103 | 7.0 | 13.0 | 0.00 | 0.05 | 0.00 | 90 | 1018.0 |
| 20260906062321 | 68 | 105 | 7.0 | 13.0 | 0.00 | 0.05 | 0.00 | 90 | 1017.9 |
| 20260906062234 | 68 | 106 | 7.0 | 13.0 | 0.00 | 0.05 | 0.00 | 90 | 1017.9 |
| 20260906062127 | 68 | 105 | 5.0 | 13.0 | 0.00 | 0.05 | 0.00 | 90 | 1017.9 |
| 20260906062020 | 68 | 109 | 4.0 | 8.0 | 0.00 | 0.05 | 0.00 | 90 | 1017.9 |
| 20260906061933 | 68 | 101 | 5.0 | 11.0 | 0.00 | 0.05 | 0.00 | 90 | 1017.9 |
| 20260906061844 | 68 | 103 | 5.0 | 11.0 | 0.00 | 0.05 | 0.00 | 90 | 1017.9 |
| 20260906061757 | 68 | 82 | 4.0 | 11.0 | 0.00 | 0.05 | 0.00 | 90 | 1017.9 |
| 20260906061658 | 68 | 112 | 4.0 | 11.0 | 0.00 | 0.05 | 0.00 | 90 | 1017.9 |
| 20260906061529 | 68 | 90 | 5.0 | 11.0 | 0.00 | 0.05 | 0.00 | 90 | 1017.9 |
| 20260906061441 | 68 | 113 | 5.0 | 12.0 | 0.00 | 0.05 | 0.00 | 90 | 1017.8 |
| 20260906061357 | 68 | 89 | 5.0 | 12.0 | 0.00 | 0.05 | 0.00 | 90 | 1017.8 |
| 20260906061228 | 68 | 109 | 6.0 | 12.0 | 0.00 | 0.05 | 0.00 | 90 | 1017.8 |
| 20260906061140 | 68 | 84 | 7.0 | 12.0 | 0.00 | 0.05 | 0.00 | 90 | 1017.8 |
| 20260906061032 | 68 | 107 | 6.0 | 12.0 | 0.00 | 0.05 | 0.00 | 90 | 1017.7 |
| 20260906060924 | 68 | 92 | 5.0 | 12.0 | 0.00 | 0.05 | 0.00 | 90 | 1017.7 |
| 20260906060836 | 68 | 78 | 6.0 | 12.0 | 0.00 | 0.05 | 0.00 | 90 | 1017.7 |
| 20260906060749 | 68 | 105 | 8.0 | 12.0 | 0.00 | 0.05 | 0.00 | 90 | 1017.7 |
| 20260906060621 | 68 | 103 | 8.0 | 12.0 | 0.00 | 0.05 | 0.00 | 91 | 1017.7 |
| 20260906060533 | 68 | 90 | 6.0 | 9.0 | 0.00 | 0.05 | 0.00 | 91 | 1017.7 |
| 20260906060445 | 68 | 101 | 5.0 | 9.0 | 0.00 | 0.05 | 0.00 | 91 | 1017.6 |
| 20260906060400 | 68 | 86 | 4.0 | 8.0 | 0.00 | 0.05 | 0.00 | 90 | 1017.7 |
| 20260906060249 | 68 | 67 | 4.0 | 8.0 | 0.00 | 0.06 | 0.00 | 90 | 1017.6 |
| 20260906060151 | 68 | 108 | 4.0 | 8.0 | 0.00 | 0.06 | 0.00 | 90 | 1017.6 |
| 20260906060022 | 68 | 112 | 5.0 | 8.0 | 0.00 | 0.06 | 0.00 | 90 | 1017.6 |
| 20260906055934 | 68 | 81 | 4.0 | 8.0 | 0.00 | 0.06 | 0.00 | 90 | 1017.6 |
| 20260906055826 | 68 | 84 | 4.0 | 9.0 | 0.00 | 0.06 | 0.00 | 90 | 1017.7 |
| 20260906055739 | 68 | 80 | 5.0 | 9.0 | 0.00 | 0.06 | 0.00 | 90 | 1017.7 |
| 20260906055629 | 68 | 118 | 5.0 | 9.0 | 0.00 | 0.06 | 0.00 | 90 | 1017.7 |
| 20260906055541 | 68 | 102 | 4.0 | 9.0 | 0.00 | 0.06 | 0.00 | 90 | 1017.8 |
| 20260906055452 | 68 | 115 | 3.0 | 9.0 | 0.00 | 0.06 | 0.00 | 90 | 1017.7 |
| 20260906055345 | 68 | 94 | 4.0 | 9.0 | 0.00 | 0.06 | 0.00 | 90 | 1017.8 |
| 20260906055237 | 68 | 95 | 4.0 | 9.0 | 0.00 | 0.06 | 0.00 | 90 | 1017.8 |
| 20260906055128 | 68 | 95 | 4.0 | 9.0 | 0.00 | 0.06 | 0.00 | 90 | 1017.8 |
| 20260906055021 | 68 | 85 | 4.0 | 9.0 | 0.00 | 0.06 | 0.00 | 90 | 1017.8 |
| 20260906054932 | 68 | 67 | 5.0 | 9.0 | 0.00 | 0.06 | 0.00 | 90 | 1017.8 |
| 20260906054824 | 68 | 94 | 5.0 | 9.0 | 0.00 | 0.06 | 0.00 | 90 | 1017.8 |
| 20260906054737 | 68 | 115 | 5.0 | 9.0 | 0.00 | 0.06 | 0.00 | 90 | 1017.8 |
| 20260906054659 | 68 | 91 | 4.0 | 9.0 | 0.00 | 0.06 | 0.00 | 90 | 1017.8 |
| 20260906054549 | 68 | 77 | 4.0 | 8.0 | 0.00 | 0.06 | 0.00 | 90 | 1017.7 |
| 20260906054425 | 68 | 87 | 4.0 | 8.0 | 0.00 | 0.06 | 0.00 | 90 | 1017.8 |
| 20260906054336 | 68 | 94 | 5.0 | 8.0 | 0.00 | 0.06 | 0.00 | 90 | 1017.7 |
| 20260906054229 | 68 | 84 | 5.0 | 9.0 | 0.00 | 0.06 | 0.00 | 91 | 1017.7 |
| 20260906054121 | 68 | 95 | 4.0 | 9.0 | 0.00 | 0.06 | 0.00 | 91 | 1017.6 |
| 20260906054033 | 68 | 81 | 3.0 | 9.0 | 0.00 | 0.06 | 0.00 | 91 | 1017.7 |
| 20260906053945 | 68 | 80 | 4.0 | 9.0 | 0.00 | 0.06 | 0.00 | 91 | 1017.5 |
| 20260906053836 | 68 | 81 | 4.0 | 9.0 | 0.00 | 0.06 | 0.00 | 91 | 1017.6 |
| 20260906053747 | 68 | 89 | 3.0 | 9.0 | 0.00 | 0.06 | 0.00 | 91 | 1017.5 |
| 20260906053659 | 68 | 90 | 4.0 | 9.0 | 0.00 | 0.06 | 0.00 | 91 | 1017.6 |
| 20260906053550 | 68 | 83 | 5.0 | 9.0 | 0.00 | 0.06 | 0.00 | 91 | 1017.6 |
| 20260906053501 | 68 | 66 | 5.0 | 9.0 | 0.00 | 0.06 | 0.00 | 91 | 1017.5 |
| 20260906053355 | 68 | 90 | 5.0 | 9.0 | 0.00 | 0.06 | 0.00 | 91 | 1017.5 |
| 20260906053245 | 68 | 84 | 4.0 | 9.0 | 0.00 | 0.06 | 0.00 | 91 | 1017.4 |
| 20260906053207 | 68 | 75 | 4.0 | 8.0 | 0.00 | 0.06 | 0.00 | 91 | 1017.4 |
| 20260906053037 | 68 | 84 | 4.0 | 8.0 | 0.00 | 0.06 | 0.00 | 91 | 1017.4 |
| 20260906052929 | 68 | 74 | 4.0 | 8.0 | 0.00 | 0.06 | 0.00 | 91 | 1017.4 |
| 20260906052820 | 69 | 81 | 3.0 | 8.0 | 0.00 | 0.06 | 0.00 | 91 | 1017.5 |
| 20260906052733 | 69 | 80 | 4.0 | 8.0 | 0.00 | 0.06 | 0.00 | 91 | 1017.5 |
| 20260906052625 | 69 | 79 | 4.0 | 8.0 | 0.00 | 0.06 | 0.00 | 91 | 1017.5 |
| 20260906052538 | 69 | 81 | 4.0 | 8.0 | 0.00 | 0.06 | 0.00 | 91 | 1017.5 |
| 20260906052449 | 69 | 80 | 5.0 | 8.0 | 0.00 | 0.06 | 0.00 | 91 | 1017.5 |
| 20260906052323 | 69 | 109 | 5.0 | 7.0 | 0.00 | 0.06 | 0.00 | 91 | 1017.5 |
| 20260906052236 | 69 | 78 | 4.0 | 6.0 | 0.00 | 0.06 | 0.00 | 91 | 1017.5 |
| 20260906052127 | 69 | 97 | 3.0 | 6.0 | 0.00 | 0.06 | 0.00 | 91 | 1017.5 |
| 20260906052020 | 69 | 106 | 3.0 | 6.0 | 0.00 | 0.06 | 0.00 | 91 | 1017.5 |
| 20260906051931 | 69 | 65 | 2.0 | 6.0 | 0.00 | 0.06 | 0.00 | 91 | 1017.5 |
| 20260906051824 | 69 | 67 | 2.0 | 6.0 | 0.00 | 0.06 | 0.00 | 91 | 1017.5 |
| 20260906051735 | 69 | 67 | 2.0 | 6.0 | 0.00 | 0.06 | 0.00 | 91 | 1017.4 |
| 20260906051658 | 69 | 67 | 2.0 | 6.0 | 0.00 | 0.06 | 0.00 | 91 | 1017.4 |
| 20260906051532 | 69 | 70 | 3.0 | 6.0 | 0.00 | 0.06 | 0.00 | 91 | 1017.5 |
| 20260906051424 | 69 | 88 | 3.0 | 6.0 | 0.00 | 0.06 | 0.00 | 91 | 1017.4 |
| 20260906051336 | 69 | 73 | 3.0 | 7.0 | 0.00 | 0.06 | 0.00 | 91 | 1017.3 |
| 20260906051249 | 69 | 69 | 3.0 | 5.0 | 0.00 | 0.06 | 0.00 | 91 | 1017.3 |
| 20260906051200 | 69 | 69 | 2.0 | 6.0 | 0.00 | 0.06 | 0.00 | 91 | 1017.3 |
| 20260906051051 | 69 | 68 | 3.0 | 6.0 | 0.00 | 0.06 | 0.00 | 91 | 1017.4 |
| 20260906050942 | 69 | 57 | 2.0 | 6.0 | 0.00 | 0.06 | 0.00 | 91 | 1017.4 |
| 20260906050832 | 69 | 71 | 2.0 | 6.0 | 0.00 | 0.06 | 0.00 | 91 | 1017.4 |
| 20260906050724 | 69 | 71 | 3.0 | 6.0 | 0.00 | 0.06 | 0.00 | 91 | 1017.4 |
| 20260906050637 | 69 | 71 | 3.0 | 6.0 | 0.00 | 0.06 | 0.00 | 91 | 1017.4 |
| 20260906050550 | 69 | 101 | 2.0 | 6.0 | 0.00 | 0.06 | 0.00 | 91 | 1017.4 |
| 20260906050445 | 69 | 80 | 3.0 | 6.0 | 0.00 | 0.06 | 0.00 | 91 | 1017.4 |
| 20260906050358 | 69 | 78 | 3.0 | 6.0 | 0.00 | 0.06 | 0.00 | 91 | 1017.4 |
| 20260906050228 | 69 | 61 | 3.0 | 8.0 | 0.00 | 0.06 | 0.00 | 91 | 1017.3 |
| 20260906050149 | 69 | 84 | 3.0 | 8.0 | 0.00 | 0.06 | 0.00 | 91 | 1017.3 |
| 20260906050041 | 69 | 69 | 3.0 | 8.0 | 0.00 | 0.06 | 0.00 | 91 | 1017.3 |
| 20260906045954 | 69 | 76 | 3.0 | 8.0 | 0.00 | 0.06 | 0.00 | 91 | 1017.3 |
| 20260906045905 | 69 | 85 | 3.0 | 8.0 | 0.00 | 0.06 | 0.00 | 91 | 1017.3 |
| 20260906045756 | 69 | 92 | 4.0 | 9.0 | 0.00 | 0.06 | 0.00 | 91 | 1017.3 |
| 20260906045647 | 69 | 79 | 3.0 | 9.0 | 0.00 | 0.06 | 0.00 | 91 | 1017.3 |
| 20260906045539 | 69 | 89 | 3.0 | 9.0 | 0.00 | 0.06 | 0.00 | 91 | 1017.3 |
| 20260906045431 | 69 | 78 | 4.0 | 9.0 | 0.00 | 0.06 | 0.00 | 91 | 1017.3 |
| 20260906045327 | 69 | 101 | 4.0 | 9.0 | 0.00 | 0.06 | 0.00 | 91 | 1017.3 |
| 20260906045237 | 70 | 71 | 3.0 | 9.0 | 0.00 | 0.06 | 0.00 | 91 | 1017.3 |
| 20260906045149 | 70 | 107 | 5.0 | 9.0 | 0.00 | 0.06 | 0.00 | 91 | 1017.3 |
| 20260906045020 | 70 | 100 | 5.0 | 9.0 | 0.00 | 0.06 | 0.00 | 91 | 1017.3 |
| 20260906044931 | 70 | 53 | 5.0 | 9.0 | 0.00 | 0.06 | 0.00 | 91 | 1017.3 |
| 20260906044823 | 70 | 63 | 4.0 | 9.0 | 0.00 | 0.06 | 0.00 | 91 | 1017.2 |
| 20260906044736 | 70 | 65 | 4.0 | 9.0 | 0.00 | 0.06 | 0.00 | 91 | 1017.3 |
| 20260906044658 | 70 | 82 | 3.0 | 9.0 | 0.00 | 0.06 | 0.00 | 91 | 1017.3 |
| 20260906044530 | 70 | 72 | 4.0 | 9.0 | 0.00 | 0.06 | 0.00 | 91 | 1017.2 |
| 20260906044427 | 70 | 86 | 4.0 | 9.0 | 0.00 | 0.06 | 0.00 | 91 | 1017.2 |
| 20260906044319 | 70 | 75 | 4.0 | 9.0 | 0.00 | 0.06 | 0.00 | 91 | 1017.2 |
| 20260906044232 | 70 | 101 | 5.0 | 9.0 | 0.00 | 0.06 | 0.00 | 91 | 1017.2 |
| 20260906044125 | 70 | 87 | 5.0 | 9.0 | 0.00 | 0.06 | 0.00 | 91 | 1017.2 |
| 20260906044037 | 70 | 86 | 4.0 | 10.0 | 0.00 | 0.06 | 0.00 | 91 | 1017.2 |
| 20260906043930 | 70 | 82 | 5.0 | 10.0 | 0.00 | 0.06 | 0.00 | 91 | 1017.2 |
| 20260906043823 | 70 | 80 | 6.0 | 10.0 | 0.00 | 0.06 | 0.00 | 91 | 1017.3 |
| 20260906043735 | 70 | 82 | 5.0 | 10.0 | 0.00 | 0.06 | 0.00 | 91 | 1017.2 |
| 20260906043652 | 70 | 109 | 5.0 | 10.0 | 0.00 | 0.06 | 0.00 | 91 | 1017.2 |
| 20260906043604 | 70 | 78 | 3.0 | 10.0 | 0.00 | 0.06 | 0.00 | 92 | 1017.1 |
| 20260906043517 | 70 | 80 | 5.0 | 10.0 | 0.00 | 0.06 | 0.00 | 92 | 1017.2 |
| 20260906043407 | 70 | 87 | 6.0 | 10.0 | 0.00 | 0.06 | 0.00 | 92 | 1017.1 |
| 20260906043259 | 70 | 66 | 5.0 | 10.0 | 0.00 | 0.06 | 0.00 | 92 | 1017.1 |
| 20260906043156 | 70 | 84 | 4.0 | 10.0 | 0.00 | 0.06 | 0.00 | 92 | 1017.1 |
| 20260906043028 | 70 | 101 | 4.0 | 10.0 | 0.00 | 0.06 | 0.00 | 92 | 1017.1 |
| 20260906042920 | 70 | 108 | 5.0 | 10.0 | 0.00 | 0.06 | 0.00 | 92 | 1017.0 |
| 20260906042832 | 70 | 83 | 5.0 | 10.0 | 0.00 | 0.06 | 0.00 | 92 | 1017.1 |
| 20260906042725 | 70 | 93 | 5.0 | 10.0 | 0.00 | 0.06 | 0.00 | 92 | 1017.0 |
| 20260906042641 | 70 | 86 | 4.0 | 9.0 | 0.00 | 0.06 | 0.00 | 92 | 1017.1 |
| 20260906042533 | 70 | 90 | 3.0 | 9.0 | 0.00 | 0.06 | 0.00 | 92 | 1017.0 |
| 20260906042425 | 70 | 93 | 3.0 | 9.0 | 0.00 | 0.06 | 0.00 | 93 | 1017.1 |
| 20260906042336 | 70 | 77 | 4.0 | 9.0 | 0.00 | 0.06 | 0.00 | 93 | 1017.1 |
| 20260906042249 | 70 | 71 | 6.0 | 9.0 | 0.00 | 0.06 | 0.00 | 93 | 1017.1 |
| 20260906042140 | 70 | 69 | 6.0 | 9.0 | 0.00 | 0.06 | 0.00 | 93 | 1017.0 |
| 20260906042051 | 70 | 82 | 5.0 | 8.0 | 0.00 | 0.06 | 0.00 | 93 | 1017.1 |
| 20260906041922 | 70 | 80 | 5.0 | 8.0 | 0.00 | 0.06 | 0.00 | 93 | 1017.1 |
| 20260906041835 | 70 | 70 | 5.0 | 8.0 | 0.00 | 0.06 | 0.00 | 93 | 1017.0 |
| 20260906041728 | 70 | 64 | 4.0 | 8.0 | 0.00 | 0.06 | 0.00 | 93 | 1017.1 |
| 20260906041654 | 70 | 76 | 4.0 | 8.0 | 0.00 | 0.06 | 0.00 | 93 | 1017.1 |
| 20260906041544 | 70 | 82 | 4.0 | 8.0 | 0.00 | 0.06 | 0.00 | 93 | 1017.1 |
| 20260906041457 | 70 | 71 | 4.0 | 8.0 | 0.00 | 0.06 | 0.00 | 93 | 1017.1 |
| 20260906041347 | 70 | 77 | 4.0 | 8.0 | 0.00 | 0.06 | 0.00 | 93 | 1017.1 |
| 20260906041237 | 70 | 44 | 4.0 | 8.0 | 0.00 | 0.06 | 0.00 | 94 | 1017.1 |
| 20260906041129 | 70 | 64 | 4.0 | 8.0 | 0.00 | 0.06 | 0.00 | 94 | 1017.2 |
| 20260906041041 | 70 | 78 | 3.0 | 8.0 | 0.00 | 0.06 | 0.00 | 94 | 1017.2 |
| 20260906040930 | 70 | 49 | 3.0 | 8.0 | 0.00 | 0.06 | 0.00 | 94 | 1017.1 |
| 20260906040822 | 71 | 57 | 4.0 | 8.0 | 0.00 | 0.06 | 0.00 | 94 | 1017.2 |
| 20260906040734 | 71 | 51 | 4.0 | 8.0 | 0.00 | 0.06 | 0.00 | 94 | 1017.2 |
| 20260906040630 | 71 | 59 | 4.0 | 8.0 | 0.00 | 0.06 | 0.00 | 94 | 1017.2 |
| 20260906040522 | 71 | 70 | 3.0 | 8.0 | 0.00 | 0.06 | 0.00 | 94 | 1017.2 |
| 20260906040434 | 71 | 52 | 2.0 | 8.0 | 0.00 | 0.06 | 0.00 | 94 | 1017.2 |
| 20260906040346 | 71 | 71 | 3.0 | 8.0 | 0.00 | 0.06 | 0.00 | 94 | 1017.1 |
| 20260906040257 | 71 | 35 | 4.0 | 8.0 | 0.00 | 0.06 | 0.00 | 94 | 1017.1 |
| 20260906040215 | 71 | 52 | 3.0 | 8.0 | 0.00 | 0.06 | 0.06 | 94 | 1017.1 |
| 20260906040106 | 71 | 57 | 2.0 | 5.0 | 0.00 | 0.06 | 0.06 | 94 | 1017.1 |
| 20260906035928 | 71 | 57 | 3.0 | 5.0 | 0.00 | 0.06 | 0.06 | 94 | 1017.1 |
| 20260906035820 | 71 | 47 | 3.0 | 5.0 | 0.00 | 0.06 | 0.06 | 94 | 1017.1 |
| 20260906035732 | 71 | 41 | 3.0 | 5.0 | 0.00 | 0.06 | 0.06 | 94 | 1017.1 |
| 20260906035649 | 71 | 78 | 3.0 | 5.0 | 0.00 | 0.06 | 0.06 | 94 | 1017.0 |
| 20260906035541 | 71 | 38 | 3.0 | 5.0 | 0.00 | 0.06 | 0.06 | 94 | 1017.0 |
| 20260906035451 | 71 | 40 | 2.0 | 6.0 | 0.00 | 0.06 | 0.06 | 94 | 1017.0 |
| 20260906035403 | 71 | 54 | 2.0 | 6.0 | 0.00 | 0.06 | 0.06 | 94 | 1017.0 |
| 20260906035253 | 71 | 51 | 3.0 | 6.0 | 0.00 | 0.06 | 0.06 | 94 | 1017.1 |
| 20260906035124 | 71 | 69 | 3.0 | 6.0 | 0.00 | 0.06 | 0.06 | 94 | 1017.1 |
| 20260906035037 | 71 | 76 | 3.0 | 6.0 | 0.00 | 0.06 | 0.06 | 94 | 1017.0 |
| 20260906034929 | 71 | 42 | 3.0 | 6.0 | 0.00 | 0.06 | 0.06 | 94 | 1017.1 |
| 20260906034822 | 71 | 36 | 3.0 | 6.0 | 0.00 | 0.06 | 0.06 | 94 | 1017.0 |
| 20260906034735 | 71 | 67 | 3.0 | 6.0 | 0.00 | 0.06 | 0.06 | 94 | 1017.1 |
| 20260906034701 | 71 | 67 | 2.0 | 6.0 | 0.00 | 0.06 | 0.06 | 94 | 1017.1 |
| 20260906034552 | 71 | 78 | 0.0 | 0.0 | 0.00 | 0.06 | 0.06 | 94 | 1017.0 |
| 20260906034442 | 71 | 78 | 0.0 | 0.0 | 0.00 | 0.06 | 0.06 | 94 | 1017.1 |
| 20260906034333 | 71 | 78 | 0.0 | 0.0 | 0.00 | 0.06 | 0.06 | 94 | 1017.1 |
| 20260906034246 | 71 | 78 | 0.0 | 0.0 | 0.00 | 0.06 | 0.06 | 94 | 1017.0 |
| 20260906034159 | 71 | 78 | 0.0 | 0.0 | 0.00 | 0.06 | 0.06 | 94 | 1017.0 |
| 20260906034110 | 71 | 78 | 0.0 | 0.0 | 0.00 | 0.06 | 0.06 | 94 | 1017.0 |
| 20260906034000 | 71 | 78 | 0.0 | 0.0 | 0.00 | 0.06 | 0.06 | 94 | 1017.0 |
| 20260906033850 | 71 | 78 | 0.0 | 0.0 | 0.00 | 0.06 | 0.06 | 94 | 1017.0 |
| 20260906033741 | 71 | 78 | 0.0 | 0.0 | 0.00 | 0.06 | 0.06 | 94 | 1017.0 |
| 20260906033653 | 71 | 78 | 0.0 | 0.0 | 0.00 | 0.06 | 0.06 | 94 | 1017.0 |
| 20260906033604 | 71 | 78 | 0.0 | 0.0 | 0.00 | 0.06 | 0.06 | 94 | 1016.9 |
| 20260906033455 | 71 | 78 | 0.0 | 0.0 | 0.00 | 0.06 | 0.06 | 94 | 1017.1 |
| 20260906033331 | 71 | 78 | 0.0 | 0.0 | 0.00 | 0.06 | 0.06 | 94 | 1017.0 |
| 20260906033222 | 72 | 78 | 0.0 | 0.0 | 0.00 | 0.06 | 0.06 | 94 | 1017.0 |
| 20260906033145 | 72 | 78 | 0.0 | 0.0 | 0.00 | 0.06 | 0.06 | 94 | 1017.0 |
| 20260906033037 | 71 | 78 | 0.0 | 0.0 | 0.00 | 0.06 | 0.06 | 94 | 1017.0 |
| 20260906032930 | 71 | 78 | 0.0 | 0.0 | 0.00 | 0.06 | 0.06 | 94 | 1017.0 |
| 20260906032821 | 72 | 78 | 0.0 | 0.0 | 0.00 | 0.06 | 0.06 | 94 | 1017.0 |
| 20260906032734 | 72 | 78 | 0.0 | 0.0 | 0.00 | 0.06 | 0.06 | 94 | 1017.1 |
| 20260906032646 | 72 | 78 | 0.0 | 0.0 | 0.00 | 0.06 | 0.06 | 94 | 1017.0 |
| 20260906032538 | 72 | 78 | 0.0 | 0.0 | 0.00 | 0.06 | 0.06 | 94 | 1017.0 |
| 20260906032453 | 72 | 78 | 0.0 | 0.0 | 0.00 | 0.06 | 0.06 | 94 | 1017.1 |
| 20260906032325 | 72 | 78 | 0.0 | 0.0 | 0.00 | 0.06 | 0.06 | 94 | 1017.0 |
| 20260906032238 | 72 | 78 | 0.0 | 0.0 | 0.00 | 0.06 | 0.06 | 94 | 1017.1 |
| 20260906032129 | 72 | 78 | 0.0 | 0.0 | 0.00 | 0.06 | 0.06 | 94 | 1017.1 |
| 20260906032040 | 72 | 78 | 0.0 | 0.0 | 0.00 | 0.06 | 0.06 | 94 | 1017.1 |
| 20260906031952 | 72 | 78 | 0.0 | 0.0 | 0.00 | 0.06 | 0.06 | 94 | 1017.1 |
| 20260906031843 | 72 | 78 | 0.0 | 0.0 | 0.00 | 0.06 | 0.06 | 94 | 1017.1 |
| 20260906031756 | 72 | 78 | 0.0 | 0.0 | 0.00 | 0.06 | 0.06 | 94 | 1017.1 |
| 20260906031720 | 72 | 78 | 0.0 | 0.0 | 0.00 | 0.06 | 0.06 | 94 | 1017.0 |
| 20260906031528 | 72 | 78 | 0.0 | 1.0 | 0.00 | 0.06 | 0.06 | 94 | 1017.0 |
| 20260906031444 | 72 | 78 | 0.0 | 2.0 | 0.00 | 0.06 | 0.06 | 93 | 1017.1 |
| 20260906031336 | 72 | 78 | 0.0 | 2.0 | 0.00 | 0.06 | 0.06 | 93 | 1017.1 |
| 20260906031248 | 72 | 78 | 0.0 | 2.0 | 0.00 | 0.06 | 0.06 | 93 | 1017.0 |
| 20260906031200 | 72 | 78 | 0.0 | 2.0 | 0.00 | 0.06 | 0.06 | 93 | 1017.0 |
| 20260906031030 | 72 | 78 | 0.0 | 2.0 | 0.00 | 0.06 | 0.06 | 93 | 1017.1 |
| 20260906030921 | 72 | 78 | 0.0 | 2.0 | 0.00 | 0.06 | 0.06 | 93 | 1017.0 |
| 20260906030833 | 72 | 78 | 0.0 | 2.0 | 0.00 | 0.06 | 0.06 | 93 | 1017.0 |
| 20260906030744 | 72 | 78 | 1.0 | 2.0 | 0.00 | 0.06 | 0.06 | 93 | 1017.0 |
| 20260906030635 | 72 | 78 | 1.0 | 2.0 | 0.00 | 0.06 | 0.06 | 93 | 1017.0 |
| 20260906030527 | 72 | 78 | 1.0 | 2.0 | 0.00 | 0.06 | 0.06 | 93 | 1017.0 |
| 20260906030423 | 72 | 78 | 1.0 | 2.0 | 0.00 | 0.06 | 0.06 | 93 | 1017.0 |
| 20260906030336 | 72 | 78 | 0.0 | 2.0 | 0.00 | 0.06 | 0.06 | 93 | 1017.0 |
| 20260906030226 | 72 | 78 | 0.0 | 2.0 | 0.00 | 0.06 | 0.06 | 93 | 1017.0 |
| 20260906030147 | 72 | 78 | 0.0 | 2.0 | 0.00 | 0.06 | 0.06 | 93 | 1017.0 |
| 20260906030039 | 72 | 78 | 1.0 | 2.0 | 0.00 | 0.06 | 0.06 | 93 | 1017.0 |
| 20260906025930 | 72 | 78 | 1.0 | 2.0 | 0.00 | 0.06 | 0.06 | 93 | 1017.0 |
| 20260906025843 | 72 | 78 | 1.0 | 2.0 | 0.00 | 0.06 | 0.06 | 93 | 1016.9 |
| 20260906025754 | 72 | 78 | 1.0 | 2.0 | 0.00 | 0.06 | 0.06 | 93 | 1016.9 |
| 20260906025646 | 72 | 78 | 1.0 | 2.0 | 0.00 | 0.06 | 0.06 | 93 | 1016.9 |
| 20260906025537 | 72 | 78 | 1.0 | 2.0 | 0.00 | 0.06 | 0.06 | 92 | 1016.8 |
| 20260906025431 | 72 | 78 | 1.0 | 2.0 | 0.00 | 0.06 | 0.06 | 92 | 1016.9 |
| 20260906025343 | 72 | 78 | 1.0 | 2.0 | 0.00 | 0.06 | 0.06 | 92 | 1016.9 |
| 20260906025233 | 72 | 78 | 1.0 | 2.0 | 0.00 | 0.06 | 0.06 | 92 | 1016.9 |
| 20260906025126 | 72 | 78 | 1.0 | 2.0 | 0.00 | 0.06 | 0.06 | 92 | 1016.9 |
| 20260906025038 | 72 | 78 | 0.0 | 1.0 | 0.00 | 0.06 | 0.06 | 92 | 1016.9 |
| 20260906024930 | 72 | 78 | 0.0 | 0.0 | 0.00 | 0.06 | 0.06 | 92 | 1016.8 |
| 20260906024842 | 72 | 78 | 0.0 | 0.0 | 0.00 | 0.06 | 0.06 | 92 | 1016.9 |
| 20260906024754 | 72 | 78 | 0.0 | 0.0 | 0.00 | 0.06 | 0.06 | 92 | 1016.8 |
| 20260906024655 | 72 | 78 | 0.0 | 1.0 | 0.00 | 0.06 | 0.06 | 92 | 1016.8 |
| 20260906024526 | 72 | 78 | 0.0 | 1.0 | 0.00 | 0.06 | 0.06 | 92 | 1016.9 |
| 20260906024421 | 72 | 78 | 0.0 | 1.0 | 0.00 | 0.06 | 0.06 | 92 | 1016.9 |
| 20260906024333 | 72 | 78 | 0.0 | 1.0 | 0.00 | 0.06 | 0.06 | 92 | 1016.9 |
| 20260906024225 | 72 | 78 | 0.0 | 1.0 | 0.00 | 0.06 | 0.06 | 92 | 1016.8 |
| 20260906024137 | 72 | 78 | 0.0 | 1.0 | 0.00 | 0.06 | 0.06 | 92 | 1016.9 |
| 20260906024029 | 72 | 78 | 0.0 | 1.0 | 0.00 | 0.06 | 0.06 | 92 | 1016.8 |
| 20260906023942 | 72 | 78 | 0.0 | 1.0 | 0.00 | 0.06 | 0.06 | 92 | 1016.8 |
| 20260906023855 | 72 | 78 | 0.0 | 1.0 | 0.00 | 0.06 | 0.06 | 92 | 1016.9 |
| 20260906023746 | 72 | 78 | 0.0 | 1.0 | 0.00 | 0.06 | 0.06 | 92 | 1016.9 |
| 20260906023638 | 72 | 78 | 0.0 | 1.0 | 0.00 | 0.06 | 0.06 | 92 | 1016.9 |
| 20260906023535 | 72 | 78 | 0.0 | 1.0 | 0.00 | 0.06 | 0.06 | 92 | 1016.8 |
| 20260906023429 | 72 | 78 | 0.0 | 1.0 | 0.00 | 0.06 | 0.06 | 92 | 1016.9 |
| 20260906023340 | 72 | 78 | 0.0 | 1.0 | 0.00 | 0.06 | 0.06 | 92 | 1016.9 |
| 20260906023250 | 72 | 78 | 0.0 | 3.0 | 0.00 | 0.06 | 0.06 | 92 | 1016.9 |
| 20260906023152 | 72 | 78 | 0.0 | 3.0 | 0.00 | 0.06 | 0.06 | 92 | 1016.9 |
| 20260906023043 | 72 | 78 | 0.0 | 3.0 | 0.00 | 0.06 | 0.06 | 92 | 1016.9 |
| 20260906022955 | 72 | 78 | 0.0 | 3.0 | 0.00 | 0.06 | 0.06 | 92 | 1016.9 |
| 20260906022845 | 72 | 78 | 0.0 | 3.0 | 0.00 | 0.06 | 0.06 | 92 | 1016.8 |
| 20260906022756 | 72 | 78 | 0.0 | 3.0 | 0.00 | 0.06 | 0.06 | 92 | 1016.8 |
| 20260906022628 | 72 | 78 | 0.0 | 3.0 | 0.00 | 0.06 | 0.06 | 92 | 1016.9 |
| 20260906022542 | 72 | 78 | 1.0 | 3.0 | 0.00 | 0.06 | 0.06 | 92 | 1016.8 |
| 20260906022457 | 72 | 78 | 1.0 | 3.0 | 0.00 | 0.06 | 0.06 | 92 | 1016.8 |
| 20260906022409 | 72 | 78 | 1.0 | 3.0 | 0.00 | 0.06 | 0.06 | 92 | 1016.8 |
| 20260906022322 | 72 | 78 | 1.0 | 3.0 | 0.00 | 0.06 | 0.06 | 92 | 1016.9 |
| 20260906022214 | 72 | 78 | 1.0 | 3.0 | 0.00 | 0.06 | 0.06 | 92 | 1016.9 |
| 20260906022104 | 72 | 78 | 2.0 | 3.0 | 0.00 | 0.06 | 0.06 | 92 | 1016.8 |
| 20260906021955 | 72 | 78 | 1.0 | 3.0 | 0.00 | 0.06 | 0.06 | 92 | 1016.8 |
| 20260906021827 | 72 | 78 | 0.0 | 3.0 | 0.00 | 0.06 | 0.06 | 92 | 1016.8 |
| 20260906021720 | 72 | 78 | 0.0 | 4.0 | 0.00 | 0.06 | 0.06 | 92 | 1016.8 |
| 20260906021642 | 72 | 78 | 0.0 | 4.0 | 0.00 | 0.06 | 0.06 | 92 | 1016.9 |
| 20260906021532 | 72 | 78 | 0.0 | 4.0 | 0.00 | 0.06 | 0.06 | 91 | 1016.8 |
| 20260906021429 | 72 | 78 | 0.0 | 4.0 | 0.00 | 0.06 | 0.06 | 91 | 1016.8 |
| 20260906021342 | 72 | 78 | 0.0 | 4.0 | 0.00 | 0.06 | 0.06 | 92 | 1016.9 |
| 20260906021255 | 72 | 78 | 1.0 | 4.0 | 0.00 | 0.06 | 0.06 | 91 | 1016.8 |
| 20260906021037 | 72 | 78 | 1.0 | 4.0 | 0.00 | 0.06 | 0.06 | 92 | 1016.8 |
| 20260906020930 | 72 | 78 | 1.0 | 4.0 | 0.00 | 0.06 | 0.06 | 91 | 1016.8 |
| 20260906020842 | 72 | 78 | 0.0 | 0.0 | 0.00 | 0.06 | 0.06 | 91 | 1016.7 |
| 20260906020752 | 72 | 78 | 0.0 | 0.0 | 0.00 | 0.06 | 0.06 | 92 | 1016.8 |
| 20260906020624 | 72 | 78 | 0.0 | 0.0 | 0.00 | 0.06 | 0.06 | 91 | 1016.7 |
| 20260906020520 | 72 | 78 | 0.0 | 0.0 | 0.00 | 0.06 | 0.06 | 91 | 1016.7 |
| 20260906020432 | 72 | 78 | 0.0 | 0.0 | 0.00 | 0.06 | 0.06 | 91 | 1016.7 |
| 20260906020324 | 72 | 78 | 0.0 | 0.0 | 0.00 | 0.06 | 0.06 | 91 | 1016.7 |
| 20260906020235 | 72 | 78 | 0.0 | 0.0 | 0.00 | 0.06 | 0.06 | 91 | 1016.8 |
| 20260906020157 | 72 | 78 | 0.0 | 0.0 | 0.00 | 0.06 | 0.06 | 91 | 1016.8 |
| 20260906020028 | 72 | 78 | 0.0 | 0.0 | 0.00 | 0.06 | 0.06 | 91 | 1016.7 |
| 20260906015939 | 72 | 78 | 0.0 | 0.0 | 0.00 | 0.06 | 0.06 | 91 | 1016.7 |
| 20260906015831 | 72 | 78 | 0.0 | 0.0 | 0.00 | 0.06 | 0.06 | 91 | 1016.7 |
| 20260906015723 | 72 | 78 | 0.0 | 0.0 | 0.00 | 0.06 | 0.06 | 91 | 1016.7 |
| 20260906015619 | 72 | 78 | 0.0 | 0.0 | 0.00 | 0.06 | 0.06 | 91 | 1016.9 |
| 20260906015532 | 72 | 78 | 0.0 | 0.0 | 0.00 | 0.06 | 0.06 | 91 | 1016.8 |
| 20260906015424 | 72 | 78 | 0.0 | 0.0 | 0.00 | 0.06 | 0.06 | 91 | 1016.7 |
| 20260906015336 | 72 | 78 | 0.0 | 0.0 | 0.00 | 0.06 | 0.06 | 91 | 1016.8 |
| 20260906015229 | 72 | 78 | 0.0 | 0.0 | 0.00 | 0.06 | 0.06 | 91 | 1016.7 |
| 20260906015120 | 72 | 78 | 0.0 | 0.0 | 0.00 | 0.06 | 0.06 | 91 | 1016.8 |
| 20260906015032 | 72 | 78 | 0.0 | 0.0 | 0.00 | 0.06 | 0.06 | 91 | 1016.8 |
| 20260906014944 | 72 | 78 | 0.0 | 0.0 | 0.00 | 0.06 | 0.06 | 91 | 1016.7 |
| 20260906014835 | 72 | 78 | 0.0 | 0.0 | 0.00 | 0.06 | 0.06 | 91 | 1016.7 |
| 20260906014732 | 72 | 78 | 0.0 | 0.0 | 0.00 | 0.06 | 0.06 | 91 | 1016.7 |
| 20260906014653 | 72 | 78 | 0.0 | 0.0 | 0.00 | 0.06 | 0.06 | 91 | 1016.7 |
| 20260906014525 | 72 | 78 | 0.0 | 0.0 | 0.00 | 0.06 | 0.06 | 91 | 1016.7 |
| 20260906014435 | 72 | 78 | 0.0 | 0.0 | 0.00 | 0.06 | 0.06 | 91 | 1016.7 |
| 20260906014328 | 72 | 78 | 0.0 | 0.0 | 0.00 | 0.06 | 0.06 | 90 | 1016.6 |
| 20260906014241 | 72 | 78 | 0.0 | 0.0 | 0.00 | 0.06 | 0.06 | 90 | 1016.6 |
| 20260906014132 | 72 | 78 | 0.0 | 0.0 | 0.00 | 0.06 | 0.06 | 90 | 1016.6 |
| 20260906014023 | 72 | 78 | 0.0 | 0.0 | 0.00 | 0.06 | 0.06 | 90 | 1016.5 |
| 20260906013935 | 72 | 78 | 0.0 | 0.0 | 0.00 | 0.06 | 0.06 | 90 | 1016.6 |
| 20260906013830 | 72 | 78 | 0.0 | 0.0 | 0.00 | 0.06 | 0.06 | 90 | 1016.6 |
| 20260906013743 | 72 | 78 | 0.0 | 0.0 | 0.00 | 0.06 | 0.06 | 90 | 1016.6 |
| 20260906013634 | 72 | 78 | 0.0 | 0.0 | 0.00 | 0.06 | 0.06 | 90 | 1016.6 |
| 20260906013546 | 72 | 78 | 0.0 | 1.0 | 0.00 | 0.06 | 0.06 | 90 | 1016.5 |
| 20260906013458 | 72 | 78 | 0.0 | 3.0 | 0.00 | 0.06 | 0.06 | 90 | 1016.5 |
| 20260906013329 | 72 | 78 | 0.0 | 4.0 | 0.00 | 0.06 | 0.06 | 90 | 1016.5 |
| 20260906013239 | 72 | 78 | 0.0 | 4.0 | 0.00 | 0.06 | 0.06 | 90 | 1016.5 |
| 20260906013202 | 73 | 78 | 0.0 | 4.0 | 0.00 | 0.06 | 0.06 | 90 | 1016.5 |
| 20260906013031 | 73 | 78 | 0.0 | 4.0 | 0.00 | 0.06 | 0.06 | 90 | 1016.5 |
| 20260906012944 | 73 | 78 | 0.0 | 4.0 | 0.00 | 0.06 | 0.06 | 90 | 1016.4 |
| 20260906012856 | 73 | 78 | 1.0 | 5.0 | 0.00 | 0.06 | 0.06 | 90 | 1016.5 |
| 20260906012730 | 73 | 78 | 2.0 | 5.0 | 0.00 | 0.06 | 0.06 | 90 | 1016.4 |
| 20260906012622 | 73 | 78 | 2.0 | 5.0 | 0.00 | 0.06 | 0.06 | 90 | 1016.4 |
| 20260906012534 | 73 | 78 | 2.0 | 5.0 | 0.00 | 0.06 | 0.06 | 90 | 1016.4 |
| 20260906012445 | 73 | 78 | 2.0 | 5.0 | 0.00 | 0.06 | 0.06 | 90 | 1016.3 |
| 20260906012357 | 73 | 78 | 2.0 | 7.0 | 0.00 | 0.06 | 0.06 | 90 | 1016.4 |
| 20260906012228 | 73 | 78 | 2.0 | 7.0 | 0.00 | 0.06 | 0.06 | 90 | 1016.3 |
| 20260906012139 | 73 | 78 | 2.0 | 7.0 | 0.00 | 0.06 | 0.06 | 90 | 1016.4 |
| 20260906012030 | 73 | 78 | 3.0 | 7.0 | 0.00 | 0.06 | 0.06 | 90 | 1016.3 |
| 20260906011943 | 73 | 48 | 3.0 | 7.0 | 0.00 | 0.06 | 0.06 | 90 | 1016.4 |
| 20260906011854 | 73 | 54 | 3.0 | 7.0 | 0.00 | 0.06 | 0.06 | 90 | 1016.4 |
| 20260906011739 | 73 | 54 | 3.0 | 7.0 | 0.00 | 0.06 | 0.06 | 90 | 1016.3 |
| 20260906011641 | 73 | 59 | 4.0 | 9.0 | 0.00 | 0.06 | 0.06 | 90 | 1016.3 |
| 20260906011533 | 73 | 105 | 4.0 | 9.0 | 0.00 | 0.06 | 0.06 | 90 | 1016.4 |
| 20260906011425 | 73 | 71 | 4.0 | 9.0 | 0.00 | 0.06 | 0.06 | 90 | 1016.3 |
| 20260906011337 | 73 | 80 | 4.0 | 9.0 | 0.00 | 0.06 | 0.06 | 90 | 1016.4 |
| 20260906011228 | 73 | 61 | 4.0 | 9.0 | 0.00 | 0.06 | 0.06 | 89 | 1016.3 |
| 20260906011140 | 73 | 76 | 3.0 | 9.0 | 0.00 | 0.06 | 0.06 | 89 | 1016.3 |
| 20260906011053 | 73 | 78 | 4.0 | 9.0 | 0.00 | 0.06 | 0.06 | 89 | 1016.3 |
| 20260906010922 | 73 | 53 | 5.0 | 9.0 | 0.00 | 0.06 | 0.06 | 89 | 1016.2 |
| 20260906010838 | 73 | 65 | 6.0 | 9.0 | 0.00 | 0.06 | 0.06 | 89 | 1016.2 |
| 20260906010730 | 73 | 84 | 5.0 | 8.0 | 0.00 | 0.06 | 0.06 | 89 | 1016.2 |
| 20260906010621 | 73 | 66 | 3.0 | 8.0 | 0.00 | 0.06 | 0.06 | 89 | 1016.2 |
| 20260906010533 | 73 | 61 | 3.0 | 8.0 | 0.00 | 0.06 | 0.06 | 89 | 1016.3 |
| 20260906010444 | 73 | 74 | 3.0 | 10.0 | 0.00 | 0.06 | 0.06 | 89 | 1016.3 |
| 20260906010358 | 73 | 74 | 4.0 | 10.0 | 0.00 | 0.06 | 0.06 | 89 | 1016.3 |
| 20260906010228 | 73 | 64 | 5.0 | 10.0 | 0.00 | 0.06 | 0.06 | 89 | 1016.3 |
| 20260906010151 | 73 | 69 | 5.0 | 10.0 | 0.00 | 0.06 | 0.06 | 89 | 1016.3 |
| 20260906010021 | 73 | 47 | 2.0 | 10.0 | 0.00 | 0.06 | 0.06 | 89 | 1016.2 |
| 20260906005937 | 73 | 68 | 3.0 | 10.0 | 0.00 | 0.06 | 0.06 | 89 | 1016.2 |
| 20260906005827 | 73 | 68 | 4.0 | 10.0 | 0.00 | 0.06 | 0.06 | 89 | 1016.3 |
| 20260906005740 | 73 | 72 | 5.0 | 10.0 | 0.00 | 0.06 | 0.06 | 89 | 1016.3 |
| 20260906005633 | 73 | 65 | 5.0 | 10.0 | 0.00 | 0.06 | 0.06 | 89 | 1016.3 |
| 20260906005544 | 73 | 53 | 4.0 | 9.0 | 0.00 | 0.06 | 0.06 | 89 | 1016.3 |
| 20260906005435 | 73 | 60 | 4.0 | 9.0 | 0.00 | 0.06 | 0.06 | 89 | 1016.3 |
| 20260906005328 | 73 | 57 | 3.0 | 8.0 | 0.00 | 0.06 | 0.06 | 89 | 1016.1 |
| 20260906005221 | 73 | 65 | 3.0 | 8.0 | 0.00 | 0.06 | 0.06 | 89 | 1016.2 |
| 20260906005133 | 73 | 84 | 3.0 | 8.0 | 0.00 | 0.06 | 0.06 | 89 | 1016.2 |
| 20260906005028 | 73 | 51 | 4.0 | 8.0 | 0.00 | 0.06 | 0.06 | 89 | 1016.2 |
| 20260906004921 | 73 | 71 | 4.0 | 8.0 | 0.00 | 0.06 | 0.06 | 89 | 1016.2 |
| 20260906004833 | 73 | 77 | 5.0 | 8.0 | 0.00 | 0.06 | 0.06 | 89 | 1016.2 |
| 20260906004744 | 73 | 76 | 4.0 | 8.0 | 0.00 | 0.06 | 0.06 | 89 | 1016.2 |
| 20260906004706 | 73 | 72 | 4.0 | 8.0 | 0.00 | 0.06 | 0.06 | 89 | 1016.2 |
| 20260906004559 | 73 | 73 | 4.0 | 8.0 | 0.00 | 0.06 | 0.06 | 88 | 1016.2 |
| 20260906004430 | 73 | 49 | 3.0 | 8.0 | 0.00 | 0.06 | 0.06 | 89 | 1016.3 |
| 20260906004322 | 73 | 80 | 4.0 | 8.0 | 0.00 | 0.06 | 0.06 | 88 | 1016.2 |
| 20260906004234 | 73 | 17 | 4.0 | 9.0 | 0.00 | 0.06 | 0.06 | 88 | 1016.3 |
| 20260906004130 | 73 | 82 | 4.0 | 9.0 | 0.00 | 0.06 | 0.06 | 88 | 1016.1 |
| 20260906004043 | 73 | 74 | 3.0 | 10.0 | 0.00 | 0.06 | 0.06 | 88 | 1016.2 |
| 20260906003933 | 73 | 44 | 4.0 | 10.0 | 0.00 | 0.06 | 0.06 | 88 | 1016.2 |
| 20260906003827 | 73 | 63 | 4.0 | 10.0 | 0.00 | 0.06 | 0.06 | 88 | 1016.1 |
| 20260906003738 | 73 | 51 | 4.0 | 10.0 | 0.00 | 0.06 | 0.06 | 88 | 1016.1 |
| 20260906003630 | 73 | 69 | 3.0 | 10.0 | 0.00 | 0.06 | 0.06 | 88 | 1016.0 |
| 20260906003522 | 73 | 78 | 3.0 | 10.0 | 0.00 | 0.06 | 0.06 | 88 | 1016.0 |
| 20260906003433 | 73 | 67 | 5.0 | 10.0 | 0.00 | 0.06 | 0.06 | 88 | 1016.0 |
| 20260906003327 | 73 | 94 | 6.0 | 10.0 | 0.00 | 0.06 | 0.06 | 88 | 1016.0 |
| 20260906003220 | 73 | 67 | 5.0 | 10.0 | 0.00 | 0.06 | 0.06 | 88 | 1016.0 |
| 20260906003144 | 73 | 119 | 5.0 | 10.0 | 0.00 | 0.06 | 0.06 | 88 | 1016.0 |
| 20260906003035 | 73 | 72 | 5.0 | 9.0 | 0.00 | 0.06 | 0.06 | 88 | 1016.0 |
| 20260906002928 | 73 | 80 | 5.0 | 9.0 | 0.00 | 0.06 | 0.06 | 88 | 1016.0 |
| 20260906002821 | 73 | 78 | 4.0 | 9.0 | 0.00 | 0.06 | 0.06 | 88 | 1015.9 |
| 20260906002732 | 73 | 90 | 4.0 | 9.0 | 0.00 | 0.06 | 0.06 | 88 | 1015.9 |
| 20260906002645 | 73 | 87 | 3.0 | 9.0 | 0.00 | 0.06 | 0.06 | 88 | 1015.8 |
| 20260906002535 | 73 | 105 | 3.0 | 9.0 | 0.00 | 0.06 | 0.06 | 88 | 1015.9 |
| 20260906002426 | 73 | 107 | 4.0 | 14.0 | 0.00 | 0.06 | 0.06 | 88 | 1015.8 |
| 20260906002343 | 73 | 77 | 5.0 | 14.0 | 0.00 | 0.06 | 0.06 | 88 | 1015.8 |
| 20260906002254 | 73 | 85 | 5.0 | 14.0 | 0.00 | 0.06 | 0.06 | 88 | 1015.8 |
| 20260906002146 | 73 | 98 | 6.0 | 14.0 | 0.00 | 0.06 | 0.06 | 88 | 1015.9 |
| 20260906002057 | 73 | 93 | 6.0 | 14.0 | 0.00 | 0.06 | 0.06 | 88 | 1015.8 |
| 20260906001927 | 73 | 97 | 6.0 | 14.0 | 0.00 | 0.06 | 0.06 | 88 | 1015.8 |
| 20260906001839 | 73 | 84 | 6.0 | 14.0 | 0.00 | 0.06 | 0.06 | 88 | 1015.8 |
| 20260906001731 | 73 | 69 | 7.0 | 14.0 | 0.00 | 0.06 | 0.06 | 88 | 1015.8 |
| 20260906001652 | 73 | 63 | 9.0 | 14.0 | 0.00 | 0.06 | 0.06 | 88 | 1015.8 |
| 20260906001523 | 73 | 107 | 8.0 | 14.0 | 0.00 | 0.06 | 0.06 | 88 | 1015.8 |
| 20260906001435 | 73 | 93 | 5.0 | 12.0 | 0.00 | 0.06 | 0.06 | 88 | 1015.8 |
| 20260906001332 | 73 | 89 | 5.0 | 12.0 | 0.00 | 0.06 | 0.06 | 88 | 1015.8 |
| 20260906001225 | 73 | 96 | 5.0 | 12.0 | 0.00 | 0.06 | 0.06 | 88 | 1015.7 |
| 20260906001137 | 73 | 87 | 6.0 | 12.0 | 0.00 | 0.06 | 0.06 | 88 | 1015.8 |
| 20260906001029 | 74 | 74 | 8.0 | 12.0 | 0.00 | 0.06 | 0.06 | 88 | 1015.7 |
| 20260906000921 | 74 | 76 | 6.0 | 10.0 | 0.00 | 0.06 | 0.06 | 88 | 1015.8 |
| 20260906000833 | 74 | 24 | 4.0 | 10.0 | 0.00 | 0.06 | 0.06 | 88 | 1015.7 |
| 20260906000726 | 74 | 44 | 5.0 | 10.0 | 0.00 | 0.06 | 0.06 | 88 | 1015.8 |
| 20260906000637 | 74 | 86 | 4.0 | 10.0 | 0.00 | 0.06 | 0.06 | 88 | 1015.7 |
| 20260906000552 | 74 | 55 | 3.0 | 11.0 | 0.00 | 0.06 | 0.06 | 88 | 1015.6 |
| 20260906000423 | 74 | 57 | 4.0 | 11.0 | 0.00 | 0.06 | 0.06 | 88 | 1015.6 |
| 20260906000333 | 74 | 71 | 6.0 | 11.0 | 0.00 | 0.06 | 0.06 | 88 | 1015.6 |
| 20260906000226 | 74 | 92 | 7.0 | 11.0 | 0.00 | 0.06 | 0.06 | 88 | 1015.6 |
| 20260906000146 | 74 | 86 | 6.0 | 11.0 | 0.00 | 0.06 | 0.06 | 88 | 1015.7 |
| 20260906000036 | 74 | 81 | 6.0 | 11.0 | 0.00 | 0.06 | 0.06 | 88 | 1015.6 |
| 20260905235929 | 74 | 54 | 6.0 | 11.0 | 0.00 | 0.06 | 0.06 | 88 | 1015.6 |
| 20260905235822 | 74 | 78 | 6.0 | 11.0 | 0.00 | 0.06 | 0.06 | 88 | 1015.6 |
| 20260905235734 | 74 | 85 | 6.0 | 11.0 | 0.00 | 0.06 | 0.06 | 88 | 1015.7 |
| 20260905235630 | 74 | 58 | 5.0 | 9.0 | 0.00 | 0.06 | 0.06 | 88 | 1015.6 |
| 20260905235542 | 74 | 44 | 4.0 | 9.0 | 0.00 | 0.06 | 0.06 | 88 | 1015.8 |
| 20260905235432 | 74 | 54 | 5.0 | 9.0 | 0.00 | 0.06 | 0.06 | 88 | 1015.6 |
| 20260905235324 | 74 | 75 | 5.0 | 9.0 | 0.00 | 0.06 | 0.06 | 88 | 1015.8 |
| 20260905235235 | 74 | 51 | 4.0 | 12.0 | 0.00 | 0.06 | 0.06 | 88 | 1015.7 |
| 20260905235128 | 74 | 69 | 4.0 | 13.0 | 0.00 | 0.06 | 0.06 | 88 | 1015.6 |
| 20260905235020 | 74 | 63 | 3.0 | 13.0 | 0.00 | 0.06 | 0.06 | 88 | 1015.6 |
| 20260905234933 | 74 | 55 | 4.0 | 13.0 | 0.00 | 0.06 | 0.06 | 88 | 1015.6 |
| 20260905234829 | 74 | 68 | 5.0 | 13.0 | 0.00 | 0.06 | 0.06 | 88 | 1015.6 |
| 20260905234722 | 74 | 82 | 5.0 | 13.0 | 0.00 | 0.06 | 0.06 | 88 | 1015.5 |
| 20260905234644 | 74 | 113 | 5.0 | 13.0 | 0.00 | 0.06 | 0.06 | 88 | 1015.6 |
| 20260905234534 | 74 | 50 | 6.0 | 13.0 | 0.00 | 0.06 | 0.06 | 88 | 1015.5 |
| 20260905234427 | 74 | 109 | 7.0 | 13.0 | 0.00 | 0.06 | 0.06 | 88 | 1015.5 |
| 20260905234339 | 74 | 90 | 7.0 | 13.0 | 0.00 | 0.06 | 0.06 | 88 | 1015.5 |
| 20260905234232 | 74 | 85 | 6.0 | 11.0 | 0.00 | 0.06 | 0.06 | 88 | 1015.5 |
| 20260905234124 | 74 | 74 | 4.0 | 11.0 | 0.00 | 0.06 | 0.06 | 88 | 1015.5 |
| 20260905234020 | 74 | 90 | 5.0 | 11.0 | 0.00 | 0.06 | 0.06 | 88 | 1015.5 |
| 20260905233933 | 74 | 71 | 5.0 | 11.0 | 0.00 | 0.06 | 0.06 | 88 | 1015.6 |
| 20260905233824 | 74 | 72 | 4.0 | 12.0 | 0.00 | 0.06 | 0.06 | 88 | 1015.5 |
| 20260905233736 | 74 | 62 | 5.0 | 12.0 | 0.00 | 0.06 | 0.06 | 88 | 1015.6 |
| 20260905233627 | 74 | 73 | 6.0 | 12.0 | 0.00 | 0.06 | 0.06 | 88 | 1015.5 |
| 20260905233519 | 74 | 72 | 6.0 | 12.0 | 0.00 | 0.06 | 0.06 | 88 | 1015.5 |
| 20260905233431 | 74 | 95 | 6.0 | 12.0 | 0.00 | 0.06 | 0.06 | 88 | 1015.5 |
| 20260905233322 | 74 | 74 | 6.0 | 12.0 | 0.00 | 0.06 | 0.06 | 88 | 1015.6 |
| 20260905233232 | 74 | 101 | 5.0 | 12.0 | 0.00 | 0.06 | 0.06 | 88 | 1015.6 |
| 20260905233159 | 74 | 90 | 5.0 | 12.0 | 0.00 | 0.06 | 0.06 | 88 | 1015.6 |
| 20260905233048 | 74 | 86 | 7.0 | 12.0 | 0.00 | 0.06 | 0.06 | 88 | 1015.5 |
| 20260905232920 | 74 | 75 | 6.0 | 12.0 | 0.00 | 0.06 | 0.06 | 88 | 1015.5 |
| 20260905232832 | 75 | 92 | 6.0 | 12.0 | 0.00 | 0.06 | 0.06 | 88 | 1015.5 |
| 20260905232725 | 75 | 65 | 6.0 | 12.0 | 0.00 | 0.06 | 0.06 | 88 | 1015.6 |
| 20260905232638 | 75 | 66 | 5.0 | 12.0 | 0.00 | 0.06 | 0.06 | 88 | 1015.6 |
| 20260905232530 | 75 | 80 | 6.0 | 12.0 | 0.00 | 0.06 | 0.06 | 88 | 1015.5 |
| 20260905232423 | 75 | 80 | 5.0 | 12.0 | 0.00 | 0.06 | 0.06 | 88 | 1015.5 |
| 20260905232320 | 75 | 34 | 5.0 | 10.0 | 0.00 | 0.06 | 0.06 | 88 | 1015.4 |
| 20260905232233 | 75 | 92 | 5.0 | 10.0 | 0.00 | 0.06 | 0.06 | 88 | 1015.5 |
| 20260905232124 | 75 | 86 | 5.0 | 10.0 | 0.00 | 0.06 | 0.06 | 88 | 1015.5 |
| 20260905232036 | 75 | 76 | 5.0 | 10.0 | 0.00 | 0.06 | 0.06 | 88 | 1015.5 |
| 20260905231928 | 75 | 104 | 5.0 | 10.0 | 0.00 | 0.06 | 0.06 | 88 | 1015.5 |
| 20260905231838 | 75 | 74 | 3.0 | 10.0 | 0.00 | 0.06 | 0.06 | 88 | 1015.5 |
| 20260905231730 | 75 | 67 | 3.0 | 10.0 | 0.00 | 0.06 | 0.06 | 88 | 1015.5 |
| 20260905231653 | 75 | 74 | 4.0 | 10.0 | 0.00 | 0.06 | 0.06 | 88 | 1015.5 |
| 20260905231525 | 75 | 86 | 5.0 | 10.0 | 0.00 | 0.06 | 0.06 | 88 | 1015.6 |
| 20260905231421 | 75 | 59 | 3.0 | 10.0 | 0.00 | 0.06 | 0.06 | 88 | 1015.5 |
| 20260905231333 | 75 | 63 | 3.0 | 12.0 | 0.00 | 0.06 | 0.06 | 88 | 1015.6 |
| 20260905231227 | 75 | 93 | 3.0 | 12.0 | 0.00 | 0.06 | 0.06 | 88 | 1015.5 |
| 20260905231119 | 75 | 75 | 4.0 | 12.0 | 0.00 | 0.06 | 0.06 | 88 | 1015.5 |
| 20260905231031 | 75 | 94 | 5.0 | 12.0 | 0.00 | 0.06 | 0.06 | 88 | 1015.5 |
| 20260905230924 | 75 | 75 | 6.0 | 12.0 | 0.00 | 0.06 | 0.06 | 88 | 1015.5 |
| 20260905230835 | 75 | 96 | 5.0 | 12.0 | 0.00 | 0.06 | 0.06 | 88 | 1015.5 |
| 20260905230727 | 75 | 84 | 5.0 | 12.0 | 0.00 | 0.06 | 0.06 | 88 | 1015.4 |
| 20260905230644 | 75 | 55 | 6.0 | 12.0 | 0.00 | 0.06 | 0.06 | 88 | 1015.4 |
| 20260905230535 | 75 | 78 | 6.0 | 12.0 | 0.00 | 0.06 | 0.06 | 88 | 1015.4 |
| 20260905230426 | 75 | 109 | 6.0 | 12.0 | 0.00 | 0.06 | 0.06 | 88 | 1015.4 |
| 20260905230339 | 75 | 51 | 8.0 | 12.0 | 0.00 | 0.06 | 0.06 | 88 | 1015.3 |
| 20260905230230 | 75 | 61 | 6.0 | 12.0 | 0.00 | 0.06 | 0.06 | 88 | 1015.5 |
| 20260905230151 | 75 | 31 | 5.0 | 12.0 | 0.00 | 0.06 | 0.06 | 88 | 1015.5 |
| 20260905230023 | 75 | 72 | 5.0 | 12.0 | 0.00 | 0.06 | 0.06 | 88 | 1015.4 |
| 20260905225935 | 75 | 32 | 5.0 | 12.0 | 0.00 | 0.06 | 0.06 | 88 | 1015.4 |
| 20260905225827 | 75 | 43 | 5.0 | 12.0 | 0.00 | 0.06 | 0.06 | 88 | 1015.4 |
| 20260905225723 | 75 | 13 | 5.0 | 12.0 | 0.00 | 0.06 | 0.06 | 88 | 1015.4 |
| 20260905225635 | 75 | 78 | 6.0 | 12.0 | 0.00 | 0.06 | 0.06 | 88 | 1015.3 |
| 20260905225528 | 75 | 86 | 6.0 | 12.0 | 0.00 | 0.06 | 0.06 | 88 | 1015.3 |
| 20260905225420 | 75 | 53 | 6.0 | 14.0 | 0.00 | 0.06 | 0.06 | 88 | 1015.3 |
| 20260905225332 | 75 | 65 | 5.0 | 15.0 | 0.00 | 0.06 | 0.06 | 88 | 1015.3 |
| 20260905225223 | 75 | 86 | 7.0 | 15.0 | 0.00 | 0.06 | 0.06 | 88 | 1015.2 |
| 20260905225135 | 75 | 83 | 8.0 | 15.0 | 0.00 | 0.06 | 0.06 | 88 | 1015.3 |
| 20260905225047 | 75 | 87 | 7.0 | 15.0 | 0.00 | 0.06 | 0.06 | 88 | 1015.3 |
| 20260905224959 | 75 | 69 | 6.0 | 15.0 | 0.00 | 0.06 | 0.06 | 88 | 1015.3 |
| 20260905224855 | 75 | 147 | 6.0 | 15.0 | 0.00 | 0.06 | 0.06 | 88 | 1015.2 |
| 20260905224726 | 75 | 109 | 8.0 | 15.0 | 0.00 | 0.06 | 0.06 | 88 | 1015.3 |
| 20260905224648 | 75 | 62 | 8.0 | 15.0 | 0.00 | 0.06 | 0.06 | 88 | 1015.2 |
| 20260905224539 | 75 | 94 | 8.0 | 15.0 | 0.00 | 0.06 | 0.06 | 88 | 1015.3 |
| 20260905224429 | 75 | 77 | 7.0 | 12.0 | 0.00 | 0.06 | 0.06 | 88 | 1015.1 |
| 20260905224341 | 75 | 80 | 6.0 | 12.0 | 0.00 | 0.06 | 0.06 | 88 | 1015.2 |
| 20260905224253 | 75 | 53 | 5.0 | 12.0 | 0.00 | 0.06 | 0.06 | 88 | 1015.2 |
| 20260905224206 | 75 | 92 | 5.0 | 13.0 | 0.00 | 0.06 | 0.06 | 88 | 1015.2 |
| 20260905224057 | 75 | 47 | 5.0 | 13.0 | 0.00 | 0.06 | 0.06 | 88 | 1015.3 |
| 20260905223928 | 75 | 88 | 7.0 | 13.0 | 0.00 | 0.06 | 0.06 | 88 | 1015.2 |
| 20260905223824 | 75 | 82 | 6.0 | 13.0 | 0.00 | 0.06 | 0.06 | 88 | 1015.2 |
| 20260905223736 | 76 | 38 | 5.0 | 13.0 | 0.00 | 0.06 | 0.06 | 88 | 1015.2 |
| 20260905223648 | 75 | 59 | 6.0 | 13.0 | 0.00 | 0.06 | 0.06 | 88 | 1015.3 |
| 20260905223559 | 75 | 61 | 8.0 | 13.0 | 0.00 | 0.06 | 0.06 | 88 | 1015.2 |
| 20260905223450 | 76 | 34 | 7.0 | 13.0 | 0.00 | 0.06 | 0.06 | 88 | 1015.2 |
| 20260905223340 | 76 | 67 | 7.0 | 13.0 | 0.00 | 0.06 | 0.06 | 88 | 1015.3 |
| 20260905223254 | 76 | 344 | 6.0 | 13.0 | 0.00 | 0.06 | 0.06 | 88 | 1015.3 |
| 20260905223214 | 76 | 80 | 6.0 | 13.0 | 0.00 | 0.06 | 0.06 | 88 | 1015.2 |
| 20260905223025 | 76 | 34 | 7.0 | 13.0 | 0.00 | 0.06 | 0.06 | 88 | 1015.2 |
| 20260905222936 | 76 | 49 | 8.0 | 13.0 | 0.00 | 0.06 | 0.06 | 88 | 1015.2 |
| 20260905222833 | 76 | 32 | 6.0 | 13.0 | 0.00 | 0.06 | 0.06 | 88 | 1015.1 |
| 20260905222726 | 76 | 57 | 6.0 | 13.0 | 0.00 | 0.06 | 0.06 | 88 | 1015.2 |
| 20260905222637 | 76 | 12 | 6.0 | 13.0 | 0.00 | 0.06 | 0.06 | 88 | 1015.2 |
| 20260905222529 | 76 | 67 | 6.0 | 13.0 | 0.00 | 0.06 | 0.06 | 88 | 1015.2 |
| 20260905222442 | 76 | 98 | 8.0 | 13.0 | 0.00 | 0.06 | 0.06 | 87 | 1015.2 |
| 20260905222355 | 76 | 34 | 8.0 | 13.0 | 0.00 | 0.06 | 0.06 | 87 | 1015.1 |
| 20260905222246 | 76 | 68 | 8.0 | 13.0 | 0.00 | 0.06 | 0.06 | 87 | 1015.1 |
| 20260905222158 | 76 | 80 | 8.0 | 17.0 | 0.00 | 0.06 | 0.06 | 87 | 1015.2 |
| 20260905222029 | 76 | 24 | 9.0 | 17.0 | 0.00 | 0.06 | 0.06 | 87 | 1015.1 |
| 20260905221925 | 76 | 59 | 9.0 | 17.0 | 0.00 | 0.06 | 0.06 | 87 | 1015.1 |
| 20260905221837 | 77 | 72 | 9.0 | 18.0 | 0.00 | 0.06 | 0.06 | 87 | 1015.0 |
| 20260905221730 | 77 | 87 | 7.0 | 18.0 | 0.00 | 0.06 | 0.06 | 87 | 1015.1 |
| 20260905221651 | 77 | 69 | 5.0 | 18.0 | 0.00 | 0.06 | 0.06 | 87 | 1015.1 |
| 20260905221523 | 77 | 49 | 6.0 | 18.0 | 0.00 | 0.06 | 0.06 | 86 | 1014.9 |
| 20260905221435 | 77 | 58 | 8.0 | 18.0 | 0.00 | 0.06 | 0.06 | 86 | 1014.9 |
| 20260905221327 | 77 | 78 | 8.0 | 18.0 | 0.00 | 0.06 | 0.06 | 86 | 1015.0 |
| 20260905221239 | 77 | 44 | 7.0 | 18.0 | 0.00 | 0.06 | 0.06 | 86 | 1014.9 |
| 20260905221129 | 77 | 70 | 10.0 | 18.0 | 0.00 | 0.06 | 0.06 | 85 | 1014.9 |
| 20260905221025 | 78 | 50 | 9.0 | 18.0 | 0.00 | 0.06 | 0.06 | 85 | 1014.8 |
| 20260905220937 | 78 | 82 | 8.0 | 15.0 | 0.00 | 0.06 | 0.06 | 85 | 1014.8 |
| 20260905220825 | 78 | 73 | 10.0 | 15.0 | 0.00 | 0.06 | 0.06 | 85 | 1014.8 |
| 20260905220738 | 78 | 44 | 11.0 | 15.0 | 0.00 | 0.06 | 0.06 | 85 | 1014.8 |
| 20260905220630 | 78 | 61 | 10.0 | 15.0 | 0.00 | 0.06 | 0.06 | 85 | 1014.9 |
| 20260905220523 | 79 | 73 | 7.0 | 13.0 | 0.00 | 0.06 | 0.06 | 85 | 1014.8 |
| 20260905220433 | 79 | 83 | 7.0 | 13.0 | 0.00 | 0.06 | 0.06 | 85 | 1014.7 |
| 20260905220326 | 79 | 71 | 7.0 | 13.0 | 0.00 | 0.06 | 0.06 | 85 | 1014.7 |
| 20260905220221 | 79 | 62 | 8.0 | 13.0 | 0.00 | 0.06 | 0.06 | 85 | 1014.7 |
| 20260905220142 | 79 | 68 | 8.0 | 13.0 | 0.00 | 0.06 | 0.06 | 85 | 1014.8 |
| 20260905220033 | 79 | 12 | 7.0 | 12.0 | 0.00 | 0.06 | 0.06 | 86 | 1014.8 |
| 20260905215925 | 79 | 35 | 6.0 | 12.0 | 0.00 | 0.06 | 0.06 | 85 | 1014.7 |
| 20260905215838 | 79 | 15 | 5.0 | 11.0 | 0.00 | 0.06 | 0.06 | 85 | 1014.7 |
| 20260905215730 | 79 | 30 | 5.0 | 11.0 | 0.00 | 0.06 | 0.06 | 85 | 1014.7 |
| 20260905215623 | 79 | 22 | 5.0 | 12.0 | 0.00 | 0.06 | 0.06 | 85 | 1014.7 |
| 20260905215535 | 79 | 73 | 6.0 | 12.0 | 0.00 | 0.06 | 0.06 | 85 | 1014.6 |
| 20260905215430 | 79 | 60 | 6.0 | 12.0 | 0.00 | 0.06 | 0.06 | 85 | 1014.6 |
| 20260905215322 | 79 | 56 | 7.0 | 12.0 | 0.00 | 0.06 | 0.06 | 84 | 1014.7 |
| 20260905215233 | 79 | 82 | 8.0 | 12.0 | 0.00 | 0.06 | 0.06 | 84 | 1014.7 |
| 20260905215126 | 79 | 51 | 8.0 | 12.0 | 0.00 | 0.06 | 0.06 | 84 | 1014.6 |
| 20260905215038 | 79 | 62 | 7.0 | 12.0 | 0.00 | 0.06 | 0.06 | 84 | 1014.6 |
| 20260905214930 | 79 | 61 | 8.0 | 12.0 | 0.00 | 0.06 | 0.06 | 84 | 1014.7 |
| 20260905214822 | 79 | 60 | 8.0 | 12.0 | 0.00 | 0.06 | 0.06 | 84 | 1014.6 |
| 20260905214734 | 79 | 76 | 7.0 | 13.0 | 0.00 | 0.06 | 0.06 | 84 | 1014.6 |
| 20260905214656 | 79 | 40 | 7.0 | 13.0 | 0.00 | 0.06 | 0.06 | 84 | 1014.6 |
| 20260905214532 | 79 | 88 | 5.0 | 13.0 | 0.00 | 0.06 | 0.06 | 84 | 1014.5 |
| 20260905214424 | 79 | 88 | 6.0 | 13.0 | 0.00 | 0.06 | 0.06 | 84 | 1014.6 |
| 20260905214336 | 79 | 49 | 6.0 | 13.0 | 0.00 | 0.06 | 0.06 | 84 | 1014.6 |
| 20260905214248 | 80 | 67 | 6.0 | 13.0 | 0.00 | 0.06 | 0.06 | 83 | 1014.5 |
| 20260905214119 | 80 | 80 | 7.0 | 13.0 | 0.00 | 0.06 | 0.06 | 83 | 1014.6 |
| 20260905214032 | 80 | 27 | 8.0 | 13.0 | 0.00 | 0.06 | 0.06 | 83 | 1014.5 |
| 20260905213944 | 80 | 30 | 9.0 | 13.0 | 0.00 | 0.06 | 0.06 | 82 | 1014.7 |
| 20260905213855 | 80 | 61 | 9.0 | 13.0 | 0.00 | 0.06 | 0.06 | 83 | 1014.7 |
| 20260905213808 | 80 | 63 | 8.0 | 13.0 | 0.00 | 0.06 | 0.06 | 83 | 1014.5 |
| 20260905213721 | 80 | 44 | 7.0 | 13.0 | 0.00 | 0.06 | 0.06 | 84 | 1014.6 |
| 20260905213616 | 80 | 35 | 6.0 | 10.0 | 0.00 | 0.06 | 0.06 | 84 | 1014.6 |
| 20260905213508 | 80 | 78 | 5.0 | 10.0 | 0.00 | 0.06 | 0.06 | 84 | 1014.6 |
| 20260905213400 | 80 | 40 | 4.0 | 10.0 | 0.00 | 0.06 | 0.06 | 84 | 1014.5 |
| 20260905213229 | 80 | 67 | 4.0 | 10.0 | 0.00 | 0.06 | 0.06 | 84 | 1014.4 |
| 20260905213151 | 80 | 57 | 4.0 | 13.0 | 0.00 | 0.06 | 0.06 | 84 | 1014.4 |
| 20260905213023 | 80 | 30 | 5.0 | 13.0 | 0.00 | 0.06 | 0.06 | 84 | 1014.4 |
| 20260905212935 | 80 | 92 | 5.0 | 13.0 | 0.00 | 0.06 | 0.06 | 83 | 1014.4 |
| 20260905212825 | 80 | 79 | 7.0 | 13.0 | 0.00 | 0.06 | 0.06 | 83 | 1014.4 |
| 20260905212737 | 80 | 84 | 6.0 | 13.0 | 0.00 | 0.06 | 0.06 | 83 | 1014.4 |
| 20260905212629 | 80 | 63 | 4.0 | 13.0 | 0.00 | 0.06 | 0.06 | 83 | 1014.4 |
| 20260905212526 | 80 | 57 | 5.0 | 13.0 | 0.00 | 0.06 | 0.06 | 82 | 1014.4 |
| 20260905212438 | 80 | 36 | 7.0 | 13.0 | 0.00 | 0.06 | 0.06 | 82 | 1014.5 |
| 20260905212330 | 80 | 73 | 7.0 | 13.0 | 0.00 | 0.06 | 0.06 | 82 | 1014.4 |
| 20260905212243 | 81 | 82 | 5.0 | 13.0 | 0.00 | 0.06 | 0.06 | 83 | 1014.4 |
| 20260905212155 | 81 | 78 | 6.0 | 13.0 | 0.00 | 0.06 | 0.06 | 82 | 1014.3 |
| 20260905212026 | 81 | 42 | 6.0 | 13.0 | 0.00 | 0.06 | 0.06 | 82 | 1014.4 |
| 20260905211939 | 81 | 24 | 7.0 | 13.0 | 0.00 | 0.06 | 0.06 | 82 | 1014.3 |
| 20260905211832 | 81 | 33 | 7.0 | 13.0 | 0.00 | 0.06 | 0.06 | 83 | 1014.3 |
| 20260905211744 | 81 | 43 | 7.0 | 13.0 | 0.00 | 0.06 | 0.06 | 82 | 1014.3 |
| 20260905211720 | 81 | 360 | 7.0 | 13.0 | 0.00 | 0.06 | 0.06 | 82 | 1014.3 |
| 20260905211530 | 81 | 49 | 8.0 | 13.0 | 0.00 | 0.06 | 0.06 | 82 | 1014.4 |
| 20260905211442 | 81 | 62 | 9.0 | 13.0 | 0.00 | 0.06 | 0.06 | 82 | 1014.4 |
| 20260905211334 | 81 | 33 | 8.0 | 13.0 | 0.00 | 0.06 | 0.06 | 82 | 1014.4 |
| 20260905211226 | 81 | 33 | 6.0 | 11.0 | 0.00 | 0.06 | 0.06 | 83 | 1014.4 |
| 20260905211139 | 80 | 41 | 7.0 | 11.0 | 0.00 | 0.06 | 0.06 | 83 | 1014.5 |
| 20260905211031 | 80 | 28 | 6.0 | 10.0 | 0.00 | 0.06 | 0.06 | 83 | 1014.3 |
| 20260905210922 | 80 | 5 | 6.0 | 10.0 | 0.00 | 0.06 | 0.06 | 84 | 1014.5 |
| 20260905210835 | 80 | 333 | 5.0 | 9.0 | 0.00 | 0.06 | 0.06 | 84 | 1014.4 |
| 20260905210731 | 80 | 15 | 3.0 | 8.0 | 0.00 | 0.06 | 0.06 | 84 | 1014.4 |
| 20260905210623 | 80 | 5 | 5.0 | 8.0 | 0.00 | 0.06 | 0.06 | 85 | 1014.4 |
| 20260905210535 | 80 | 22 | 5.0 | 8.0 | 0.00 | 0.06 | 0.06 | 84 | 1014.4 |
| 20260905210426 | 80 | 27 | 5.0 | 7.0 | 0.00 | 0.06 | 0.06 | 84 | 1014.4 |
| 20260905210338 | 80 | 32 | 4.0 | 7.0 | 0.00 | 0.06 | 0.06 | 84 | 1014.4 |
| 20260905210229 | 80 | 47 | 4.0 | 7.0 | 0.00 | 0.06 | 0.06 | 84 | 1014.4 |
| 20260905210151 | 80 | 37 | 5.0 | 7.0 | 0.00 | 0.06 | 0.06 | 84 | 1014.4 |
| 20260905210043 | 80 | 23 | 5.0 | 7.0 | 0.00 | 0.06 | 0.06 | 83 | 1014.4 |
| 20260905205933 | 80 | 13 | 5.0 | 11.0 | 0.00 | 0.06 | 0.06 | 83 | 1014.3 |
| 20260905205829 | 80 | 19 | 5.0 | 11.0 | 0.00 | 0.06 | 0.06 | 83 | 1014.3 |
| 20260905205741 | 80 | 33 | 5.0 | 11.0 | 0.00 | 0.06 | 0.06 | 83 | 1014.3 |
| 20260905205653 | 80 | 52 | 5.0 | 11.0 | 0.00 | 0.06 | 0.06 | 83 | 1014.4 |
| 20260905205544 | 80 | 13 | 4.0 | 11.0 | 0.00 | 0.06 | 0.06 | 83 | 1014.4 |
| 20260905205435 | 80 | 35 | 4.0 | 11.0 | 0.00 | 0.06 | 0.06 | 83 | 1014.4 |
| 20260905205348 | 80 | 5 | 4.0 | 11.0 | 0.00 | 0.06 | 0.06 | 82 | 1014.4 |
| 20260905205300 | 80 | 348 | 5.0 | 11.0 | 0.00 | 0.06 | 0.06 | 82 | 1014.4 |
| 20260905205132 | 80 | 12 | 6.0 | 11.0 | 0.00 | 0.06 | 0.06 | 82 | 1014.3 |
| 20260905205044 | 81 | 40 | 5.0 | 11.0 | 0.00 | 0.06 | 0.06 | 82 | 1014.4 |
| 20260905204958 | 81 | 57 | 5.0 | 11.0 | 0.00 | 0.06 | 0.06 | 82 | 1014.3 |
| 20260905204832 | 81 | 51 | 7.0 | 11.0 | 0.00 | 0.06 | 0.06 | 82 | 1014.4 |
| 20260905204722 | 81 | 30 | 7.0 | 12.0 | 0.00 | 0.06 | 0.06 | 82 | 1014.4 |
| 20260905204644 | 81 | 38 | 7.0 | 12.0 | 0.00 | 0.06 | 0.06 | 82 | 1014.4 |
| 20260905204536 | 81 | 15 | 8.0 | 12.0 | 0.00 | 0.06 | 0.06 | 81 | 1014.4 |
| 20260905204428 | 81 | 48 | 8.0 | 12.0 | 0.00 | 0.06 | 0.06 | 81 | 1014.4 |
| 20260905204340 | 81 | 51 | 8.0 | 12.0 | 0.00 | 0.06 | 0.06 | 81 | 1014.4 |
| 20260905204230 | 81 | 39 | 7.0 | 12.0 | 0.00 | 0.06 | 0.06 | 81 | 1014.4 |
| 20260905204141 | 82 | 10 | 7.0 | 12.0 | 0.00 | 0.06 | 0.06 | 81 | 1014.3 |
| 20260905204053 | 82 | 69 | 8.0 | 12.0 | 0.00 | 0.06 | 0.06 | 80 | 1014.3 |
| 20260905203928 | 82 | 23 | 8.0 | 12.0 | 0.00 | 0.06 | 0.06 | 80 | 1014.2 |
| 20260905203841 | 82 | 42 | 6.0 | 12.0 | 0.00 | 0.06 | 0.06 | 81 | 1014.4 |
| 20260905203753 | 82 | 42 | 5.0 | 9.0 | 0.00 | 0.06 | 0.06 | 82 | 1014.3 |
| 20260905203644 | 81 | 16 | 4.0 | 10.0 | 0.00 | 0.06 | 0.06 | 81 | 1014.4 |
| 20260905203536 | 81 | 56 | 4.0 | 10.0 | 0.00 | 0.06 | 0.06 | 80 | 1014.3 |
| 20260905203428 | 81 | 331 | 5.0 | 10.0 | 0.00 | 0.06 | 0.06 | 80 | 1014.3 |
| 20260905203341 | 81 | 351 | 5.0 | 10.0 | 0.00 | 0.06 | 0.06 | 80 | 1014.3 |
| 20260905203253 | 81 | 342 | 3.0 | 10.0 | 0.00 | 0.06 | 0.06 | 82 | 1014.3 |
| 20260905203214 | 81 | 79 | 3.0 | 10.0 | 0.00 | 0.06 | 0.06 | 81 | 1014.3 |
| 20260905203044 | 81 | 17 | 4.0 | 10.0 | 0.00 | 0.06 | 0.06 | 80 | 1014.4 |
| 20260905202957 | 81 | 64 | 5.0 | 10.0 | 0.00 | 0.06 | 0.06 | 80 | 1014.3 |
| 20260905202833 | 81 | 70 | 5.0 | 10.0 | 0.00 | 0.06 | 0.06 | 80 | 1014.3 |
| 20260905202746 | 81 | 9 | 5.0 | 10.0 | 0.00 | 0.06 | 0.06 | 80 | 1014.4 |
| 20260905202658 | 81 | 61 | 6.0 | 10.0 | 0.00 | 0.06 | 0.06 | 80 | 1014.4 |
| 20260905202549 | 81 | 36 | 7.0 | 10.0 | 0.00 | 0.06 | 0.06 | 80 | 1014.4 |
| 20260905202500 | 81 | 66 | 7.0 | 10.0 | 0.00 | 0.06 | 0.06 | 80 | 1014.5 |
| 20260905202332 | 81 | 22 | 5.0 | 10.0 | 0.00 | 0.06 | 0.06 | 81 | 1014.5 |
| 20260905202244 | 81 | 5 | 5.0 | 9.0 | 0.00 | 0.06 | 0.06 | 81 | 1014.4 |
| 20260905202136 | 81 | 41 | 4.0 | 9.0 | 0.00 | 0.06 | 0.06 | 81 | 1014.4 |
| 20260905202028 | 81 | 32 | 5.0 | 9.0 | 0.00 | 0.06 | 0.06 | 81 | 1014.5 |
| 20260905201920 | 81 | 24 | 4.0 | 10.0 | 0.00 | 0.06 | 0.06 | 81 | 1014.5 |
| 20260905201835 | 81 | 31 | 5.0 | 10.0 | 0.00 | 0.06 | 0.06 | 81 | 1014.5 |
| 20260905201748 | 81 | 26 | 5.0 | 11.0 | 0.00 | 0.06 | 0.06 | 80 | 1014.5 |
| 20260905201649 | 81 | 32 | 4.0 | 11.0 | 0.00 | 0.06 | 0.06 | 80 | 1014.6 |
| 20260905201541 | 81 | 355 | 4.0 | 11.0 | 0.00 | 0.06 | 0.06 | 80 | 1014.5 |
| 20260905201453 | 81 | 38 | 4.0 | 11.0 | 0.00 | 0.06 | 0.06 | 79 | 1014.6 |
| 20260905201323 | 81 | 24 | 5.0 | 11.0 | 0.00 | 0.06 | 0.06 | 79 | 1014.6 |
| 20260905201235 | 81 | 59 | 6.0 | 11.0 | 0.00 | 0.06 | 0.06 | 79 | 1014.6 |
| 20260905201148 | 81 | 30 | 7.0 | 11.0 | 0.00 | 0.06 | 0.06 | 78 | 1014.5 |
| 20260905201059 | 81 | 38 | 7.0 | 11.0 | 0.00 | 0.06 | 0.06 | 79 | 1014.6 |
| 20260905200930 | 81 | 81 | 6.0 | 11.0 | 0.00 | 0.06 | 0.06 | 79 | 1014.6 |
| 20260905200842 | 82 | 36 | 6.0 | 10.0 | 0.00 | 0.06 | 0.06 | 79 | 1014.6 |
| 20260905200737 | 82 | 59 | 5.0 | 10.0 | 0.00 | 0.06 | 0.06 | 80 | 1014.6 |
| 20260905200629 | 82 | 54 | 5.0 | 10.0 | 0.00 | 0.06 | 0.06 | 79 | 1014.6 |
| 20260905200522 | 82 | 67 | 7.0 | 10.0 | 0.00 | 0.06 | 0.06 | 79 | 1014.6 |
| 20260905200433 | 82 | 46 | 7.0 | 10.0 | 0.00 | 0.06 | 0.06 | 79 | 1014.7 |
| 20260905200346 | 82 | 38 | 7.0 | 10.0 | 0.00 | 0.06 | 0.06 | 80 | 1014.8 |
| 20260905200257 | 82 | 66 | 5.0 | 10.0 | 0.00 | 0.06 | 0.06 | 81 | 1014.7 |
| 20260905200159 | 82 | 355 | 4.0 | 10.0 | 0.00 | 0.06 | 0.06 | 81 | 1014.7 |
| 20260905200031 | 82 | 89 | 5.0 | 12.0 | 0.00 | 0.06 | 0.06 | 80 | 1014.8 |
| 20260905195943 | 82 | 45 | 6.0 | 14.0 | 0.00 | 0.06 | 0.06 | 79 | 1014.8 |
| 20260905195855 | 82 | 31 | 6.0 | 14.0 | 0.00 | 0.06 | 0.06 | 80 | 1014.8 |
| 20260905195620 | 82 | 91 | 4.0 | 14.0 | 0.00 | 0.06 | 0.06 | 81 | 1014.8 |
| 20260905195532 | 82 | 85 | 4.0 | 14.0 | 0.00 | 0.06 | 0.06 | 80 | 1014.7 |
| 20260905195423 | 82 | 68 | 6.0 | 14.0 | 0.00 | 0.06 | 0.06 | 81 | 1014.8 |